<?xml version="1.0" encoding="UTF-8" standalone="no" ?>
<gpx xmlns="http://www.topografix.com/GPX/1/1" xmlns:xsi="http://www.w3.org/2001/XMLSchema-instance" xsi:schemaLocation="http://www.topografix.com/GPX/1/1 http://www.topografix.com/GPX/1/1/gpx.xsd" version="1.1" creator="VisuGPX - https://www.visugpx.com">
  <metadata>
    <name>randonnée VTT forêt de haye 14/04/2013</name>
    <desc><![CDATA[randonnée VTT du 14/04/2013]]></desc>
  </metadata>
  <trk>
    <name><![CDATA[14 avril 2013]]></name>
    <trkseg>
      <trkpt lat="48.68548" lon="6.15963">
        <ele>230</ele>
        <time>2013-04-14T09:57:15Z</time>
      </trkpt>
      <trkpt lat="48.68547" lon="6.15953">
        <ele>230</ele>
        <time>2013-04-14T09:57:27Z</time>
      </trkpt>
      <trkpt lat="48.68544" lon="6.15961">
        <ele>230</ele>
        <time>2013-04-14T09:57:31Z</time>
      </trkpt>
      <trkpt lat="48.68539" lon="6.1596">
        <ele>230</ele>
        <time>2013-04-14T09:57:34Z</time>
      </trkpt>
      <trkpt lat="48.68541" lon="6.15947">
        <ele>235</ele>
        <time>2013-04-14T09:57:37Z</time>
      </trkpt>
      <trkpt lat="48.68551" lon="6.15943">
        <ele>247</ele>
        <time>2013-04-14T09:57:47Z</time>
      </trkpt>
      <trkpt lat="48.68557" lon="6.1594">
        <ele>250</ele>
        <time>2013-04-14T09:57:51Z</time>
      </trkpt>
      <trkpt lat="48.6856" lon="6.1594">
        <ele>253</ele>
        <time>2013-04-14T09:57:53Z</time>
      </trkpt>
      <trkpt lat="48.68564" lon="6.1594">
        <ele>251</ele>
        <time>2013-04-14T09:57:55Z</time>
      </trkpt>
      <trkpt lat="48.68567" lon="6.15939">
        <ele>251</ele>
        <time>2013-04-14T09:57:57Z</time>
      </trkpt>
      <trkpt lat="48.6857" lon="6.15939">
        <ele>254</ele>
        <time>2013-04-14T09:57:59Z</time>
      </trkpt>
      <trkpt lat="48.68572" lon="6.15938">
        <ele>257</ele>
        <time>2013-04-14T09:58:01Z</time>
      </trkpt>
      <trkpt lat="48.68579" lon="6.15938">
        <ele>251</ele>
        <time>2013-04-14T09:58:07Z</time>
      </trkpt>
      <trkpt lat="48.68584" lon="6.15939">
        <ele>242</ele>
        <time>2013-04-14T09:58:09Z</time>
      </trkpt>
      <trkpt lat="48.68589" lon="6.15939">
        <ele>243</ele>
        <time>2013-04-14T09:58:11Z</time>
      </trkpt>
      <trkpt lat="48.68591" lon="6.15926">
        <ele>242</ele>
        <time>2013-04-14T09:58:16Z</time>
      </trkpt>
      <trkpt lat="48.68592" lon="6.15914">
        <ele>239</ele>
        <time>2013-04-14T09:58:18Z</time>
      </trkpt>
      <trkpt lat="48.68594" lon="6.15902">
        <ele>234</ele>
        <time>2013-04-14T09:58:20Z</time>
      </trkpt>
      <trkpt lat="48.68594" lon="6.15892">
        <ele>234</ele>
        <time>2013-04-14T09:58:22Z</time>
      </trkpt>
      <trkpt lat="48.68593" lon="6.1588">
        <ele>238</ele>
        <time>2013-04-14T09:58:24Z</time>
      </trkpt>
      <trkpt lat="48.6859" lon="6.15869">
        <ele>242</ele>
        <time>2013-04-14T09:58:26Z</time>
      </trkpt>
      <trkpt lat="48.68585" lon="6.15862">
        <ele>245</ele>
        <time>2013-04-14T09:58:28Z</time>
      </trkpt>
      <trkpt lat="48.68581" lon="6.15851">
        <ele>243</ele>
        <time>2013-04-14T09:58:30Z</time>
      </trkpt>
      <trkpt lat="48.68577" lon="6.15837">
        <ele>243</ele>
        <time>2013-04-14T09:58:32Z</time>
      </trkpt>
      <trkpt lat="48.68575" lon="6.15821">
        <ele>244</ele>
        <time>2013-04-14T09:58:34Z</time>
      </trkpt>
      <trkpt lat="48.68572" lon="6.15811">
        <ele>244</ele>
        <time>2013-04-14T09:58:36Z</time>
      </trkpt>
      <trkpt lat="48.68568" lon="6.15802">
        <ele>242</ele>
        <time>2013-04-14T09:58:38Z</time>
      </trkpt>
      <trkpt lat="48.68567" lon="6.15792">
        <ele>243</ele>
        <time>2013-04-14T09:58:40Z</time>
      </trkpt>
      <trkpt lat="48.68562" lon="6.15785">
        <ele>242</ele>
        <time>2013-04-14T09:58:42Z</time>
      </trkpt>
      <trkpt lat="48.68561" lon="6.15777">
        <ele>243</ele>
        <time>2013-04-14T09:58:44Z</time>
      </trkpt>
      <trkpt lat="48.68559" lon="6.15767">
        <ele>244</ele>
        <time>2013-04-14T09:58:46Z</time>
      </trkpt>
      <trkpt lat="48.68557" lon="6.15753">
        <ele>245</ele>
        <time>2013-04-14T09:58:48Z</time>
      </trkpt>
      <trkpt lat="48.68556" lon="6.15741">
        <ele>244</ele>
        <time>2013-04-14T09:58:50Z</time>
      </trkpt>
      <trkpt lat="48.68554" lon="6.15731">
        <ele>245</ele>
        <time>2013-04-14T09:58:52Z</time>
      </trkpt>
      <trkpt lat="48.68552" lon="6.15722">
        <ele>244</ele>
        <time>2013-04-14T09:58:54Z</time>
      </trkpt>
      <trkpt lat="48.6855" lon="6.15714">
        <ele>248</ele>
        <time>2013-04-14T09:58:56Z</time>
      </trkpt>
      <trkpt lat="48.68548" lon="6.15705">
        <ele>245</ele>
        <time>2013-04-14T09:58:58Z</time>
      </trkpt>
      <trkpt lat="48.68545" lon="6.15693">
        <ele>245</ele>
        <time>2013-04-14T09:59:00Z</time>
      </trkpt>
      <trkpt lat="48.68541" lon="6.15682">
        <ele>245</ele>
        <time>2013-04-14T09:59:02Z</time>
      </trkpt>
      <trkpt lat="48.68538" lon="6.1567">
        <ele>248</ele>
        <time>2013-04-14T09:59:04Z</time>
      </trkpt>
      <trkpt lat="48.68533" lon="6.15663">
        <ele>245</ele>
        <time>2013-04-14T09:59:06Z</time>
      </trkpt>
      <trkpt lat="48.68528" lon="6.15654">
        <ele>244</ele>
        <time>2013-04-14T09:59:08Z</time>
      </trkpt>
      <trkpt lat="48.68523" lon="6.15644">
        <ele>248</ele>
        <time>2013-04-14T09:59:10Z</time>
      </trkpt>
      <trkpt lat="48.68521" lon="6.15635">
        <ele>246</ele>
        <time>2013-04-14T09:59:12Z</time>
      </trkpt>
      <trkpt lat="48.68517" lon="6.15627">
        <ele>244</ele>
        <time>2013-04-14T09:59:14Z</time>
      </trkpt>
      <trkpt lat="48.68513" lon="6.15615">
        <ele>242</ele>
        <time>2013-04-14T09:59:16Z</time>
      </trkpt>
      <trkpt lat="48.6851" lon="6.15603">
        <ele>243</ele>
        <time>2013-04-14T09:59:18Z</time>
      </trkpt>
      <trkpt lat="48.68507" lon="6.15591">
        <ele>244</ele>
        <time>2013-04-14T09:59:20Z</time>
      </trkpt>
      <trkpt lat="48.68503" lon="6.1558">
        <ele>240</ele>
        <time>2013-04-14T09:59:22Z</time>
      </trkpt>
      <trkpt lat="48.68499" lon="6.15569">
        <ele>236</ele>
        <time>2013-04-14T09:59:24Z</time>
      </trkpt>
      <trkpt lat="48.68497" lon="6.15558">
        <ele>240</ele>
        <time>2013-04-14T09:59:26Z</time>
      </trkpt>
      <trkpt lat="48.68492" lon="6.15548">
        <ele>241</ele>
        <time>2013-04-14T09:59:28Z</time>
      </trkpt>
      <trkpt lat="48.68487" lon="6.15538">
        <ele>239</ele>
        <time>2013-04-14T09:59:30Z</time>
      </trkpt>
      <trkpt lat="48.68482" lon="6.15526">
        <ele>238</ele>
        <time>2013-04-14T09:59:32Z</time>
      </trkpt>
      <trkpt lat="48.6848" lon="6.15511">
        <ele>242</ele>
        <time>2013-04-14T09:59:34Z</time>
      </trkpt>
      <trkpt lat="48.68481" lon="6.15496">
        <ele>241</ele>
        <time>2013-04-14T09:59:36Z</time>
      </trkpt>
      <trkpt lat="48.68479" lon="6.15483">
        <ele>237</ele>
        <time>2013-04-14T09:59:38Z</time>
      </trkpt>
      <trkpt lat="48.68476" lon="6.15471">
        <ele>240</ele>
        <time>2013-04-14T09:59:40Z</time>
      </trkpt>
      <trkpt lat="48.68473" lon="6.15459">
        <ele>243</ele>
        <time>2013-04-14T09:59:42Z</time>
      </trkpt>
      <trkpt lat="48.68469" lon="6.15451">
        <ele>242</ele>
        <time>2013-04-14T09:59:44Z</time>
      </trkpt>
      <trkpt lat="48.68463" lon="6.15442">
        <ele>237</ele>
        <time>2013-04-14T09:59:46Z</time>
      </trkpt>
      <trkpt lat="48.6846" lon="6.15427">
        <ele>237</ele>
        <time>2013-04-14T09:59:48Z</time>
      </trkpt>
      <trkpt lat="48.68457" lon="6.15413">
        <ele>241</ele>
        <time>2013-04-14T09:59:50Z</time>
      </trkpt>
      <trkpt lat="48.68456" lon="6.15398">
        <ele>242</ele>
        <time>2013-04-14T09:59:52Z</time>
      </trkpt>
      <trkpt lat="48.68454" lon="6.15386">
        <ele>236</ele>
        <time>2013-04-14T09:59:54Z</time>
      </trkpt>
      <trkpt lat="48.68451" lon="6.15375">
        <ele>237</ele>
        <time>2013-04-14T09:59:56Z</time>
      </trkpt>
      <trkpt lat="48.6845" lon="6.15361">
        <ele>233</ele>
        <time>2013-04-14T09:59:58Z</time>
      </trkpt>
      <trkpt lat="48.68448" lon="6.15347">
        <ele>237</ele>
        <time>2013-04-14T10:00:00Z</time>
      </trkpt>
      <trkpt lat="48.68446" lon="6.15334">
        <ele>240</ele>
        <time>2013-04-14T10:00:02Z</time>
      </trkpt>
      <trkpt lat="48.68443" lon="6.1532">
        <ele>239</ele>
        <time>2013-04-14T10:00:04Z</time>
      </trkpt>
      <trkpt lat="48.68441" lon="6.15308">
        <ele>236</ele>
        <time>2013-04-14T10:00:06Z</time>
      </trkpt>
      <trkpt lat="48.68442" lon="6.15296">
        <ele>235</ele>
        <time>2013-04-14T10:00:08Z</time>
      </trkpt>
      <trkpt lat="48.68441" lon="6.15286">
        <ele>230</ele>
        <time>2013-04-14T10:00:10Z</time>
      </trkpt>
      <trkpt lat="48.68441" lon="6.15275">
        <ele>232</ele>
        <time>2013-04-14T10:00:12Z</time>
      </trkpt>
      <trkpt lat="48.6844" lon="6.15265">
        <ele>232</ele>
        <time>2013-04-14T10:00:14Z</time>
      </trkpt>
      <trkpt lat="48.68439" lon="6.15253">
        <ele>232</ele>
        <time>2013-04-14T10:00:16Z</time>
      </trkpt>
      <trkpt lat="48.68436" lon="6.15241">
        <ele>232</ele>
        <time>2013-04-14T10:00:18Z</time>
      </trkpt>
      <trkpt lat="48.68434" lon="6.15229">
        <ele>229</ele>
        <time>2013-04-14T10:00:20Z</time>
      </trkpt>
      <trkpt lat="48.68434" lon="6.15216">
        <ele>231</ele>
        <time>2013-04-14T10:00:22Z</time>
      </trkpt>
      <trkpt lat="48.68433" lon="6.15203">
        <ele>230</ele>
        <time>2013-04-14T10:00:24Z</time>
      </trkpt>
      <trkpt lat="48.68431" lon="6.15192">
        <ele>230</ele>
        <time>2013-04-14T10:00:26Z</time>
      </trkpt>
      <trkpt lat="48.68427" lon="6.15179">
        <ele>229</ele>
        <time>2013-04-14T10:00:28Z</time>
      </trkpt>
      <trkpt lat="48.68423" lon="6.15167">
        <ele>230</ele>
        <time>2013-04-14T10:00:30Z</time>
      </trkpt>
      <trkpt lat="48.68421" lon="6.15156">
        <ele>227</ele>
        <time>2013-04-14T10:00:32Z</time>
      </trkpt>
      <trkpt lat="48.68417" lon="6.15143">
        <ele>230</ele>
        <time>2013-04-14T10:00:34Z</time>
      </trkpt>
      <trkpt lat="48.68413" lon="6.15131">
        <ele>230</ele>
        <time>2013-04-14T10:00:36Z</time>
      </trkpt>
      <trkpt lat="48.6841" lon="6.15119">
        <ele>233</ele>
        <time>2013-04-14T10:00:38Z</time>
      </trkpt>
      <trkpt lat="48.68407" lon="6.15107">
        <ele>233</ele>
        <time>2013-04-14T10:00:40Z</time>
      </trkpt>
      <trkpt lat="48.68405" lon="6.15096">
        <ele>231</ele>
        <time>2013-04-14T10:00:42Z</time>
      </trkpt>
      <trkpt lat="48.68401" lon="6.15086">
        <ele>229</ele>
        <time>2013-04-14T10:00:44Z</time>
      </trkpt>
      <trkpt lat="48.68397" lon="6.15078">
        <ele>232</ele>
        <time>2013-04-14T10:00:46Z</time>
      </trkpt>
      <trkpt lat="48.68393" lon="6.15071">
        <ele>231</ele>
        <time>2013-04-14T10:00:48Z</time>
      </trkpt>
      <trkpt lat="48.6839" lon="6.15061">
        <ele>225</ele>
        <time>2013-04-14T10:00:50Z</time>
      </trkpt>
      <trkpt lat="48.68385" lon="6.15055">
        <ele>224</ele>
        <time>2013-04-14T10:00:52Z</time>
      </trkpt>
      <trkpt lat="48.6838" lon="6.15051">
        <ele>223</ele>
        <time>2013-04-14T10:00:54Z</time>
      </trkpt>
      <trkpt lat="48.68379" lon="6.15043">
        <ele>225</ele>
        <time>2013-04-14T10:00:56Z</time>
      </trkpt>
      <trkpt lat="48.68378" lon="6.15038">
        <ele>228</ele>
        <time>2013-04-14T10:00:58Z</time>
      </trkpt>
      <trkpt lat="48.68376" lon="6.15031">
        <ele>230</ele>
        <time>2013-04-14T10:01:00Z</time>
      </trkpt>
      <trkpt lat="48.68375" lon="6.15025">
        <ele>230</ele>
        <time>2013-04-14T10:01:02Z</time>
      </trkpt>
      <trkpt lat="48.68371" lon="6.15019">
        <ele>232</ele>
        <time>2013-04-14T10:01:04Z</time>
      </trkpt>
      <trkpt lat="48.68366" lon="6.15013">
        <ele>231</ele>
        <time>2013-04-14T10:01:06Z</time>
      </trkpt>
      <trkpt lat="48.6836" lon="6.15008">
        <ele>234</ele>
        <time>2013-04-14T10:01:08Z</time>
      </trkpt>
      <trkpt lat="48.68355" lon="6.15003">
        <ele>235</ele>
        <time>2013-04-14T10:01:10Z</time>
      </trkpt>
      <trkpt lat="48.68351" lon="6.14996">
        <ele>236</ele>
        <time>2013-04-14T10:01:12Z</time>
      </trkpt>
      <trkpt lat="48.68346" lon="6.1499">
        <ele>237</ele>
        <time>2013-04-14T10:01:14Z</time>
      </trkpt>
      <trkpt lat="48.68341" lon="6.14982">
        <ele>239</ele>
        <time>2013-04-14T10:01:16Z</time>
      </trkpt>
      <trkpt lat="48.68337" lon="6.14973">
        <ele>240</ele>
        <time>2013-04-14T10:01:18Z</time>
      </trkpt>
      <trkpt lat="48.68332" lon="6.14966">
        <ele>239</ele>
        <time>2013-04-14T10:01:20Z</time>
      </trkpt>
      <trkpt lat="48.68328" lon="6.14961">
        <ele>238</ele>
        <time>2013-04-14T10:01:22Z</time>
      </trkpt>
      <trkpt lat="48.68324" lon="6.14954">
        <ele>238</ele>
        <time>2013-04-14T10:01:24Z</time>
      </trkpt>
      <trkpt lat="48.68319" lon="6.14948">
        <ele>235</ele>
        <time>2013-04-14T10:01:26Z</time>
      </trkpt>
      <trkpt lat="48.68315" lon="6.14941">
        <ele>234</ele>
        <time>2013-04-14T10:01:28Z</time>
      </trkpt>
      <trkpt lat="48.6831" lon="6.14936">
        <ele>233</ele>
        <time>2013-04-14T10:01:30Z</time>
      </trkpt>
      <trkpt lat="48.68306" lon="6.1493">
        <ele>233</ele>
        <time>2013-04-14T10:01:32Z</time>
      </trkpt>
      <trkpt lat="48.68302" lon="6.14925">
        <ele>233</ele>
        <time>2013-04-14T10:01:34Z</time>
      </trkpt>
      <trkpt lat="48.68298" lon="6.1492">
        <ele>233</ele>
        <time>2013-04-14T10:01:36Z</time>
      </trkpt>
      <trkpt lat="48.68294" lon="6.14913">
        <ele>237</ele>
        <time>2013-04-14T10:01:38Z</time>
      </trkpt>
      <trkpt lat="48.68289" lon="6.14907">
        <ele>232</ele>
        <time>2013-04-14T10:01:40Z</time>
      </trkpt>
      <trkpt lat="48.68287" lon="6.14901">
        <ele>235</ele>
        <time>2013-04-14T10:01:42Z</time>
      </trkpt>
      <trkpt lat="48.68284" lon="6.14894">
        <ele>235</ele>
        <time>2013-04-14T10:01:44Z</time>
      </trkpt>
      <trkpt lat="48.68281" lon="6.14885">
        <ele>237</ele>
        <time>2013-04-14T10:01:46Z</time>
      </trkpt>
      <trkpt lat="48.68277" lon="6.14878">
        <ele>239</ele>
        <time>2013-04-14T10:01:48Z</time>
      </trkpt>
      <trkpt lat="48.68273" lon="6.14871">
        <ele>238</ele>
        <time>2013-04-14T10:01:50Z</time>
      </trkpt>
      <trkpt lat="48.68269" lon="6.14865">
        <ele>235</ele>
        <time>2013-04-14T10:01:52Z</time>
      </trkpt>
      <trkpt lat="48.68266" lon="6.14861">
        <ele>236</ele>
        <time>2013-04-14T10:01:54Z</time>
      </trkpt>
      <trkpt lat="48.68262" lon="6.14857">
        <ele>238</ele>
        <time>2013-04-14T10:01:56Z</time>
      </trkpt>
      <trkpt lat="48.68258" lon="6.14851">
        <ele>238</ele>
        <time>2013-04-14T10:01:58Z</time>
      </trkpt>
      <trkpt lat="48.68255" lon="6.14845">
        <ele>245</ele>
        <time>2013-04-14T10:02:00Z</time>
      </trkpt>
      <trkpt lat="48.68253" lon="6.1484">
        <ele>247</ele>
        <time>2013-04-14T10:02:02Z</time>
      </trkpt>
      <trkpt lat="48.6825" lon="6.14838">
        <ele>243</ele>
        <time>2013-04-14T10:02:04Z</time>
      </trkpt>
      <trkpt lat="48.68247" lon="6.14837">
        <ele>242</ele>
        <time>2013-04-14T10:02:06Z</time>
      </trkpt>
      <trkpt lat="48.68243" lon="6.14832">
        <ele>243</ele>
        <time>2013-04-14T10:02:08Z</time>
      </trkpt>
      <trkpt lat="48.6824" lon="6.14826">
        <ele>243</ele>
        <time>2013-04-14T10:02:10Z</time>
      </trkpt>
      <trkpt lat="48.68237" lon="6.1482">
        <ele>245</ele>
        <time>2013-04-14T10:02:12Z</time>
      </trkpt>
      <trkpt lat="48.68234" lon="6.14817">
        <ele>244</ele>
        <time>2013-04-14T10:02:14Z</time>
      </trkpt>
      <trkpt lat="48.6823" lon="6.14812">
        <ele>242</ele>
        <time>2013-04-14T10:02:16Z</time>
      </trkpt>
      <trkpt lat="48.68225" lon="6.14805">
        <ele>240</ele>
        <time>2013-04-14T10:02:18Z</time>
      </trkpt>
      <trkpt lat="48.6822" lon="6.148">
        <ele>241</ele>
        <time>2013-04-14T10:02:20Z</time>
      </trkpt>
      <trkpt lat="48.68218" lon="6.14792">
        <ele>239</ele>
        <time>2013-04-14T10:02:22Z</time>
      </trkpt>
      <trkpt lat="48.68216" lon="6.14783">
        <ele>241</ele>
        <time>2013-04-14T10:02:24Z</time>
      </trkpt>
      <trkpt lat="48.68212" lon="6.14776">
        <ele>240</ele>
        <time>2013-04-14T10:02:26Z</time>
      </trkpt>
      <trkpt lat="48.68208" lon="6.1477">
        <ele>242</ele>
        <time>2013-04-14T10:02:28Z</time>
      </trkpt>
      <trkpt lat="48.68204" lon="6.14762">
        <ele>247</ele>
        <time>2013-04-14T10:02:30Z</time>
      </trkpt>
      <trkpt lat="48.682" lon="6.14755">
        <ele>248</ele>
        <time>2013-04-14T10:02:32Z</time>
      </trkpt>
      <trkpt lat="48.68198" lon="6.14748">
        <ele>251</ele>
        <time>2013-04-14T10:02:34Z</time>
      </trkpt>
      <trkpt lat="48.68196" lon="6.1474">
        <ele>249</ele>
        <time>2013-04-14T10:02:36Z</time>
      </trkpt>
      <trkpt lat="48.68194" lon="6.14735">
        <ele>249</ele>
        <time>2013-04-14T10:02:38Z</time>
      </trkpt>
      <trkpt lat="48.6819" lon="6.14729">
        <ele>251</ele>
        <time>2013-04-14T10:02:40Z</time>
      </trkpt>
      <trkpt lat="48.68186" lon="6.14723">
        <ele>250</ele>
        <time>2013-04-14T10:02:42Z</time>
      </trkpt>
      <trkpt lat="48.68182" lon="6.14717">
        <ele>246</ele>
        <time>2013-04-14T10:02:44Z</time>
      </trkpt>
      <trkpt lat="48.68176" lon="6.14711">
        <ele>245</ele>
        <time>2013-04-14T10:02:46Z</time>
      </trkpt>
      <trkpt lat="48.68172" lon="6.14703">
        <ele>247</ele>
        <time>2013-04-14T10:02:48Z</time>
      </trkpt>
      <trkpt lat="48.68168" lon="6.14696">
        <ele>249</ele>
        <time>2013-04-14T10:02:50Z</time>
      </trkpt>
      <trkpt lat="48.68164" lon="6.14687">
        <ele>252</ele>
        <time>2013-04-14T10:02:52Z</time>
      </trkpt>
      <trkpt lat="48.6816" lon="6.14679">
        <ele>252</ele>
        <time>2013-04-14T10:02:54Z</time>
      </trkpt>
      <trkpt lat="48.68155" lon="6.14669">
        <ele>249</ele>
        <time>2013-04-14T10:02:56Z</time>
      </trkpt>
      <trkpt lat="48.68152" lon="6.14659">
        <ele>251</ele>
        <time>2013-04-14T10:02:58Z</time>
      </trkpt>
      <trkpt lat="48.68149" lon="6.14648">
        <ele>249</ele>
        <time>2013-04-14T10:03:00Z</time>
      </trkpt>
      <trkpt lat="48.68146" lon="6.14639">
        <ele>248</ele>
        <time>2013-04-14T10:03:02Z</time>
      </trkpt>
      <trkpt lat="48.68141" lon="6.14631">
        <ele>243</ele>
        <time>2013-04-14T10:03:04Z</time>
      </trkpt>
      <trkpt lat="48.68136" lon="6.14624">
        <ele>245</ele>
        <time>2013-04-14T10:03:06Z</time>
      </trkpt>
      <trkpt lat="48.6813" lon="6.14617">
        <ele>246</ele>
        <time>2013-04-14T10:03:08Z</time>
      </trkpt>
      <trkpt lat="48.68125" lon="6.14609">
        <ele>248</ele>
        <time>2013-04-14T10:03:10Z</time>
      </trkpt>
      <trkpt lat="48.68121" lon="6.14602">
        <ele>241</ele>
        <time>2013-04-14T10:03:12Z</time>
      </trkpt>
      <trkpt lat="48.68116" lon="6.14593">
        <ele>245</ele>
        <time>2013-04-14T10:03:14Z</time>
      </trkpt>
      <trkpt lat="48.68111" lon="6.14586">
        <ele>246</ele>
        <time>2013-04-14T10:03:16Z</time>
      </trkpt>
      <trkpt lat="48.68107" lon="6.1458">
        <ele>248</ele>
        <time>2013-04-14T10:03:18Z</time>
      </trkpt>
      <trkpt lat="48.68105" lon="6.14574">
        <ele>247</ele>
        <time>2013-04-14T10:03:20Z</time>
      </trkpt>
      <trkpt lat="48.68101" lon="6.14566">
        <ele>245</ele>
        <time>2013-04-14T10:03:22Z</time>
      </trkpt>
      <trkpt lat="48.68097" lon="6.1456">
        <ele>242</ele>
        <time>2013-04-14T10:03:24Z</time>
      </trkpt>
      <trkpt lat="48.68093" lon="6.14554">
        <ele>248</ele>
        <time>2013-04-14T10:03:26Z</time>
      </trkpt>
      <trkpt lat="48.68088" lon="6.14547">
        <ele>248</ele>
        <time>2013-04-14T10:03:28Z</time>
      </trkpt>
      <trkpt lat="48.68084" lon="6.14543">
        <ele>246</ele>
        <time>2013-04-14T10:03:30Z</time>
      </trkpt>
      <trkpt lat="48.68079" lon="6.1454">
        <ele>246</ele>
        <time>2013-04-14T10:03:32Z</time>
      </trkpt>
      <trkpt lat="48.68072" lon="6.14536">
        <ele>250</ele>
        <time>2013-04-14T10:03:34Z</time>
      </trkpt>
      <trkpt lat="48.68069" lon="6.14526">
        <ele>255</ele>
        <time>2013-04-14T10:03:36Z</time>
      </trkpt>
      <trkpt lat="48.68065" lon="6.14518">
        <ele>257</ele>
        <time>2013-04-14T10:03:38Z</time>
      </trkpt>
      <trkpt lat="48.6806" lon="6.14512">
        <ele>253</ele>
        <time>2013-04-14T10:03:40Z</time>
      </trkpt>
      <trkpt lat="48.68057" lon="6.14502">
        <ele>247</ele>
        <time>2013-04-14T10:03:42Z</time>
      </trkpt>
      <trkpt lat="48.68054" lon="6.14494">
        <ele>246</ele>
        <time>2013-04-14T10:03:44Z</time>
      </trkpt>
      <trkpt lat="48.68051" lon="6.14484">
        <ele>245</ele>
        <time>2013-04-14T10:03:46Z</time>
      </trkpt>
      <trkpt lat="48.68048" lon="6.14476">
        <ele>246</ele>
        <time>2013-04-14T10:03:48Z</time>
      </trkpt>
      <trkpt lat="48.68045" lon="6.14465">
        <ele>246</ele>
        <time>2013-04-14T10:03:50Z</time>
      </trkpt>
      <trkpt lat="48.68043" lon="6.14457">
        <ele>249</ele>
        <time>2013-04-14T10:03:52Z</time>
      </trkpt>
      <trkpt lat="48.6804" lon="6.1445">
        <ele>249</ele>
        <time>2013-04-14T10:03:54Z</time>
      </trkpt>
      <trkpt lat="48.68037" lon="6.14444">
        <ele>247</ele>
        <time>2013-04-14T10:03:56Z</time>
      </trkpt>
      <trkpt lat="48.68034" lon="6.14437">
        <ele>247</ele>
        <time>2013-04-14T10:03:58Z</time>
      </trkpt>
      <trkpt lat="48.6803" lon="6.14431">
        <ele>244</ele>
        <time>2013-04-14T10:04:00Z</time>
      </trkpt>
      <trkpt lat="48.68026" lon="6.14425">
        <ele>250</ele>
        <time>2013-04-14T10:04:02Z</time>
      </trkpt>
      <trkpt lat="48.68022" lon="6.14418">
        <ele>248</ele>
        <time>2013-04-14T10:04:04Z</time>
      </trkpt>
      <trkpt lat="48.68019" lon="6.14411">
        <ele>247</ele>
        <time>2013-04-14T10:04:06Z</time>
      </trkpt>
      <trkpt lat="48.68016" lon="6.14404">
        <ele>243</ele>
        <time>2013-04-14T10:04:08Z</time>
      </trkpt>
      <trkpt lat="48.68012" lon="6.14396">
        <ele>252</ele>
        <time>2013-04-14T10:04:10Z</time>
      </trkpt>
      <trkpt lat="48.68008" lon="6.1439">
        <ele>254</ele>
        <time>2013-04-14T10:04:12Z</time>
      </trkpt>
      <trkpt lat="48.68005" lon="6.14384">
        <ele>251</ele>
        <time>2013-04-14T10:04:14Z</time>
      </trkpt>
      <trkpt lat="48.68" lon="6.14379">
        <ele>254</ele>
        <time>2013-04-14T10:04:16Z</time>
      </trkpt>
      <trkpt lat="48.67998" lon="6.14369">
        <ele>255</ele>
        <time>2013-04-14T10:04:18Z</time>
      </trkpt>
      <trkpt lat="48.67995" lon="6.14358">
        <ele>256</ele>
        <time>2013-04-14T10:04:20Z</time>
      </trkpt>
      <trkpt lat="48.67991" lon="6.14347">
        <ele>252</ele>
        <time>2013-04-14T10:04:22Z</time>
      </trkpt>
      <trkpt lat="48.67989" lon="6.14339">
        <ele>249</ele>
        <time>2013-04-14T10:04:24Z</time>
      </trkpt>
      <trkpt lat="48.67986" lon="6.14332">
        <ele>252</ele>
        <time>2013-04-14T10:04:26Z</time>
      </trkpt>
      <trkpt lat="48.67982" lon="6.14327">
        <ele>252</ele>
        <time>2013-04-14T10:04:28Z</time>
      </trkpt>
      <trkpt lat="48.67977" lon="6.14321">
        <ele>247</ele>
        <time>2013-04-14T10:04:30Z</time>
      </trkpt>
      <trkpt lat="48.67973" lon="6.14317">
        <ele>245</ele>
        <time>2013-04-14T10:04:32Z</time>
      </trkpt>
      <trkpt lat="48.67969" lon="6.1431">
        <ele>246</ele>
        <time>2013-04-14T10:04:34Z</time>
      </trkpt>
      <trkpt lat="48.67966" lon="6.14304">
        <ele>244</ele>
        <time>2013-04-14T10:04:36Z</time>
      </trkpt>
      <trkpt lat="48.67962" lon="6.14299">
        <ele>243</ele>
        <time>2013-04-14T10:04:38Z</time>
      </trkpt>
      <trkpt lat="48.67957" lon="6.14292">
        <ele>243</ele>
        <time>2013-04-14T10:04:40Z</time>
      </trkpt>
      <trkpt lat="48.67954" lon="6.14286">
        <ele>241</ele>
        <time>2013-04-14T10:04:42Z</time>
      </trkpt>
      <trkpt lat="48.67952" lon="6.1428">
        <ele>245</ele>
        <time>2013-04-14T10:04:44Z</time>
      </trkpt>
      <trkpt lat="48.67949" lon="6.14274">
        <ele>246</ele>
        <time>2013-04-14T10:04:46Z</time>
      </trkpt>
      <trkpt lat="48.67947" lon="6.14268">
        <ele>243</ele>
        <time>2013-04-14T10:04:48Z</time>
      </trkpt>
      <trkpt lat="48.67944" lon="6.14263">
        <ele>245</ele>
        <time>2013-04-14T10:04:50Z</time>
      </trkpt>
      <trkpt lat="48.67941" lon="6.14256">
        <ele>246</ele>
        <time>2013-04-14T10:04:52Z</time>
      </trkpt>
      <trkpt lat="48.67937" lon="6.14248">
        <ele>247</ele>
        <time>2013-04-14T10:04:54Z</time>
      </trkpt>
      <trkpt lat="48.67932" lon="6.14241">
        <ele>250</ele>
        <time>2013-04-14T10:04:56Z</time>
      </trkpt>
      <trkpt lat="48.67928" lon="6.14235">
        <ele>247</ele>
        <time>2013-04-14T10:04:58Z</time>
      </trkpt>
      <trkpt lat="48.67923" lon="6.14228">
        <ele>245</ele>
        <time>2013-04-14T10:05:00Z</time>
      </trkpt>
      <trkpt lat="48.67919" lon="6.14221">
        <ele>243</ele>
        <time>2013-04-14T10:05:02Z</time>
      </trkpt>
      <trkpt lat="48.67915" lon="6.14214">
        <ele>241</ele>
        <time>2013-04-14T10:05:04Z</time>
      </trkpt>
      <trkpt lat="48.67911" lon="6.14208">
        <ele>242</ele>
        <time>2013-04-14T10:05:06Z</time>
      </trkpt>
      <trkpt lat="48.67909" lon="6.14203">
        <ele>245</ele>
        <time>2013-04-14T10:05:08Z</time>
      </trkpt>
      <trkpt lat="48.67907" lon="6.14198">
        <ele>247</ele>
        <time>2013-04-14T10:05:10Z</time>
      </trkpt>
      <trkpt lat="48.67904" lon="6.14194">
        <ele>245</ele>
        <time>2013-04-14T10:05:12Z</time>
      </trkpt>
      <trkpt lat="48.67902" lon="6.14188">
        <ele>246</ele>
        <time>2013-04-14T10:05:14Z</time>
      </trkpt>
      <trkpt lat="48.67902" lon="6.1418">
        <ele>249</ele>
        <time>2013-04-14T10:05:16Z</time>
      </trkpt>
      <trkpt lat="48.67904" lon="6.14173">
        <ele>247</ele>
        <time>2013-04-14T10:05:18Z</time>
      </trkpt>
      <trkpt lat="48.67907" lon="6.14166">
        <ele>250</ele>
        <time>2013-04-14T10:05:20Z</time>
      </trkpt>
      <trkpt lat="48.67909" lon="6.1416">
        <ele>251</ele>
        <time>2013-04-14T10:05:22Z</time>
      </trkpt>
      <trkpt lat="48.67912" lon="6.14154">
        <ele>250</ele>
        <time>2013-04-14T10:05:24Z</time>
      </trkpt>
      <trkpt lat="48.67914" lon="6.14148">
        <ele>249</ele>
        <time>2013-04-14T10:05:26Z</time>
      </trkpt>
      <trkpt lat="48.67917" lon="6.14143">
        <ele>249</ele>
        <time>2013-04-14T10:05:28Z</time>
      </trkpt>
      <trkpt lat="48.6792" lon="6.14139">
        <ele>250</ele>
        <time>2013-04-14T10:05:30Z</time>
      </trkpt>
      <trkpt lat="48.67925" lon="6.1414">
        <ele>248</ele>
        <time>2013-04-14T10:05:32Z</time>
      </trkpt>
      <trkpt lat="48.67931" lon="6.14143">
        <ele>243</ele>
        <time>2013-04-14T10:05:34Z</time>
      </trkpt>
      <trkpt lat="48.67938" lon="6.14149">
        <ele>240</ele>
        <time>2013-04-14T10:05:36Z</time>
      </trkpt>
      <trkpt lat="48.67944" lon="6.14152">
        <ele>241</ele>
        <time>2013-04-14T10:05:38Z</time>
      </trkpt>
      <trkpt lat="48.67952" lon="6.14157">
        <ele>242</ele>
        <time>2013-04-14T10:05:40Z</time>
      </trkpt>
      <trkpt lat="48.67959" lon="6.14163">
        <ele>241</ele>
        <time>2013-04-14T10:05:42Z</time>
      </trkpt>
      <trkpt lat="48.67967" lon="6.14164">
        <ele>243</ele>
        <time>2013-04-14T10:05:44Z</time>
      </trkpt>
      <trkpt lat="48.67975" lon="6.14163">
        <ele>242</ele>
        <time>2013-04-14T10:05:46Z</time>
      </trkpt>
      <trkpt lat="48.67982" lon="6.14163">
        <ele>243</ele>
        <time>2013-04-14T10:05:48Z</time>
      </trkpt>
      <trkpt lat="48.67989" lon="6.14161">
        <ele>245</ele>
        <time>2013-04-14T10:05:50Z</time>
      </trkpt>
      <trkpt lat="48.67994" lon="6.1416">
        <ele>246</ele>
        <time>2013-04-14T10:05:52Z</time>
      </trkpt>
      <trkpt lat="48.68" lon="6.14159">
        <ele>246</ele>
        <time>2013-04-14T10:05:54Z</time>
      </trkpt>
      <trkpt lat="48.68005" lon="6.14157">
        <ele>246</ele>
        <time>2013-04-14T10:05:56Z</time>
      </trkpt>
      <trkpt lat="48.68008" lon="6.14154">
        <ele>245</ele>
        <time>2013-04-14T10:05:58Z</time>
      </trkpt>
      <trkpt lat="48.68012" lon="6.14153">
        <ele>246</ele>
        <time>2013-04-14T10:06:00Z</time>
      </trkpt>
      <trkpt lat="48.68016" lon="6.14151">
        <ele>247</ele>
        <time>2013-04-14T10:06:02Z</time>
      </trkpt>
      <trkpt lat="48.6802" lon="6.14149">
        <ele>247</ele>
        <time>2013-04-14T10:06:04Z</time>
      </trkpt>
      <trkpt lat="48.68024" lon="6.14146">
        <ele>245</ele>
        <time>2013-04-14T10:06:06Z</time>
      </trkpt>
      <trkpt lat="48.68029" lon="6.14143">
        <ele>245</ele>
        <time>2013-04-14T10:06:08Z</time>
      </trkpt>
      <trkpt lat="48.68033" lon="6.14141">
        <ele>246</ele>
        <time>2013-04-14T10:06:10Z</time>
      </trkpt>
      <trkpt lat="48.68038" lon="6.1414">
        <ele>249</ele>
        <time>2013-04-14T10:06:12Z</time>
      </trkpt>
      <trkpt lat="48.68041" lon="6.14139">
        <ele>253</ele>
        <time>2013-04-14T10:06:14Z</time>
      </trkpt>
      <trkpt lat="48.68044" lon="6.14138">
        <ele>253</ele>
        <time>2013-04-14T10:06:16Z</time>
      </trkpt>
      <trkpt lat="48.68049" lon="6.14136">
        <ele>252</ele>
        <time>2013-04-14T10:06:18Z</time>
      </trkpt>
      <trkpt lat="48.68052" lon="6.14135">
        <ele>254</ele>
        <time>2013-04-14T10:06:20Z</time>
      </trkpt>
      <trkpt lat="48.68056" lon="6.14134">
        <ele>254</ele>
        <time>2013-04-14T10:06:22Z</time>
      </trkpt>
      <trkpt lat="48.6806" lon="6.14133">
        <ele>254</ele>
        <time>2013-04-14T10:06:24Z</time>
      </trkpt>
      <trkpt lat="48.68063" lon="6.14132">
        <ele>254</ele>
        <time>2013-04-14T10:06:26Z</time>
      </trkpt>
      <trkpt lat="48.68065" lon="6.14131">
        <ele>252</ele>
        <time>2013-04-14T10:06:28Z</time>
      </trkpt>
      <trkpt lat="48.6807" lon="6.14128">
        <ele>251</ele>
        <time>2013-04-14T10:06:30Z</time>
      </trkpt>
      <trkpt lat="48.68074" lon="6.14126">
        <ele>250</ele>
        <time>2013-04-14T10:06:32Z</time>
      </trkpt>
      <trkpt lat="48.68077" lon="6.14125">
        <ele>254</ele>
        <time>2013-04-14T10:06:34Z</time>
      </trkpt>
      <trkpt lat="48.68081" lon="6.14123">
        <ele>251</ele>
        <time>2013-04-14T10:06:36Z</time>
      </trkpt>
      <trkpt lat="48.68084" lon="6.14121">
        <ele>251</ele>
        <time>2013-04-14T10:06:38Z</time>
      </trkpt>
      <trkpt lat="48.68087" lon="6.1412">
        <ele>253</ele>
        <time>2013-04-14T10:06:40Z</time>
      </trkpt>
      <trkpt lat="48.68091" lon="6.14118">
        <ele>253</ele>
        <time>2013-04-14T10:06:42Z</time>
      </trkpt>
      <trkpt lat="48.68095" lon="6.14116">
        <ele>255</ele>
        <time>2013-04-14T10:06:44Z</time>
      </trkpt>
      <trkpt lat="48.68098" lon="6.14114">
        <ele>255</ele>
        <time>2013-04-14T10:06:46Z</time>
      </trkpt>
      <trkpt lat="48.68102" lon="6.14112">
        <ele>258</ele>
        <time>2013-04-14T10:06:48Z</time>
      </trkpt>
      <trkpt lat="48.68104" lon="6.1411">
        <ele>257</ele>
        <time>2013-04-14T10:06:50Z</time>
      </trkpt>
      <trkpt lat="48.68107" lon="6.14107">
        <ele>256</ele>
        <time>2013-04-14T10:06:52Z</time>
      </trkpt>
      <trkpt lat="48.6811" lon="6.14104">
        <ele>256</ele>
        <time>2013-04-14T10:06:54Z</time>
      </trkpt>
      <trkpt lat="48.68115" lon="6.14101">
        <ele>260</ele>
        <time>2013-04-14T10:06:56Z</time>
      </trkpt>
      <trkpt lat="48.68119" lon="6.14098">
        <ele>261</ele>
        <time>2013-04-14T10:06:58Z</time>
      </trkpt>
      <trkpt lat="48.68124" lon="6.14094">
        <ele>261</ele>
        <time>2013-04-14T10:07:00Z</time>
      </trkpt>
      <trkpt lat="48.68131" lon="6.14091">
        <ele>259</ele>
        <time>2013-04-14T10:07:02Z</time>
      </trkpt>
      <trkpt lat="48.68135" lon="6.14088">
        <ele>259</ele>
        <time>2013-04-14T10:07:04Z</time>
      </trkpt>
      <trkpt lat="48.68139" lon="6.14084">
        <ele>258</ele>
        <time>2013-04-14T10:07:06Z</time>
      </trkpt>
      <trkpt lat="48.68143" lon="6.1408">
        <ele>257</ele>
        <time>2013-04-14T10:07:08Z</time>
      </trkpt>
      <trkpt lat="48.68147" lon="6.14076">
        <ele>258</ele>
        <time>2013-04-14T10:07:10Z</time>
      </trkpt>
      <trkpt lat="48.68152" lon="6.14075">
        <ele>262</ele>
        <time>2013-04-14T10:07:12Z</time>
      </trkpt>
      <trkpt lat="48.68156" lon="6.14072">
        <ele>262</ele>
        <time>2013-04-14T10:07:14Z</time>
      </trkpt>
      <trkpt lat="48.6816" lon="6.14068">
        <ele>259</ele>
        <time>2013-04-14T10:07:16Z</time>
      </trkpt>
      <trkpt lat="48.68164" lon="6.14064">
        <ele>258</ele>
        <time>2013-04-14T10:07:18Z</time>
      </trkpt>
      <trkpt lat="48.68168" lon="6.14061">
        <ele>262</ele>
        <time>2013-04-14T10:07:20Z</time>
      </trkpt>
      <trkpt lat="48.68173" lon="6.14056">
        <ele>263</ele>
        <time>2013-04-14T10:07:22Z</time>
      </trkpt>
      <trkpt lat="48.68178" lon="6.14052">
        <ele>262</ele>
        <time>2013-04-14T10:07:24Z</time>
      </trkpt>
      <trkpt lat="48.68182" lon="6.14047">
        <ele>262</ele>
        <time>2013-04-14T10:07:26Z</time>
      </trkpt>
      <trkpt lat="48.68188" lon="6.14042">
        <ele>262</ele>
        <time>2013-04-14T10:07:28Z</time>
      </trkpt>
      <trkpt lat="48.68193" lon="6.14037">
        <ele>264</ele>
        <time>2013-04-14T10:07:30Z</time>
      </trkpt>
      <trkpt lat="48.68198" lon="6.14032">
        <ele>265</ele>
        <time>2013-04-14T10:07:32Z</time>
      </trkpt>
      <trkpt lat="48.68202" lon="6.14028">
        <ele>264</ele>
        <time>2013-04-14T10:07:34Z</time>
      </trkpt>
      <trkpt lat="48.68207" lon="6.14025">
        <ele>266</ele>
        <time>2013-04-14T10:07:36Z</time>
      </trkpt>
      <trkpt lat="48.68212" lon="6.14021">
        <ele>266</ele>
        <time>2013-04-14T10:07:38Z</time>
      </trkpt>
      <trkpt lat="48.68217" lon="6.14018">
        <ele>266</ele>
        <time>2013-04-14T10:07:40Z</time>
      </trkpt>
      <trkpt lat="48.68221" lon="6.14014">
        <ele>266</ele>
        <time>2013-04-14T10:07:42Z</time>
      </trkpt>
      <trkpt lat="48.68224" lon="6.1401">
        <ele>265</ele>
        <time>2013-04-14T10:07:44Z</time>
      </trkpt>
      <trkpt lat="48.68229" lon="6.14006">
        <ele>264</ele>
        <time>2013-04-14T10:07:46Z</time>
      </trkpt>
      <trkpt lat="48.68232" lon="6.14003">
        <ele>264</ele>
        <time>2013-04-14T10:07:48Z</time>
      </trkpt>
      <trkpt lat="48.68234" lon="6.14">
        <ele>263</ele>
        <time>2013-04-14T10:07:50Z</time>
      </trkpt>
      <trkpt lat="48.68237" lon="6.13998">
        <ele>266</ele>
        <time>2013-04-14T10:07:52Z</time>
      </trkpt>
      <trkpt lat="48.68241" lon="6.13994">
        <ele>267</ele>
        <time>2013-04-14T10:07:54Z</time>
      </trkpt>
      <trkpt lat="48.68244" lon="6.13991">
        <ele>268</ele>
        <time>2013-04-14T10:07:56Z</time>
      </trkpt>
      <trkpt lat="48.68246" lon="6.13989">
        <ele>268</ele>
        <time>2013-04-14T10:07:58Z</time>
      </trkpt>
      <trkpt lat="48.68249" lon="6.13986">
        <ele>270</ele>
        <time>2013-04-14T10:08:00Z</time>
      </trkpt>
      <trkpt lat="48.68252" lon="6.13984">
        <ele>271</ele>
        <time>2013-04-14T10:08:02Z</time>
      </trkpt>
      <trkpt lat="48.68256" lon="6.13981">
        <ele>272</ele>
        <time>2013-04-14T10:08:04Z</time>
      </trkpt>
      <trkpt lat="48.68258" lon="6.1398">
        <ele>271</ele>
        <time>2013-04-14T10:08:06Z</time>
      </trkpt>
      <trkpt lat="48.68261" lon="6.13978">
        <ele>269</ele>
        <time>2013-04-14T10:08:08Z</time>
      </trkpt>
      <trkpt lat="48.68263" lon="6.13976">
        <ele>269</ele>
        <time>2013-04-14T10:08:10Z</time>
      </trkpt>
      <trkpt lat="48.68264" lon="6.13973">
        <ele>268</ele>
        <time>2013-04-14T10:08:12Z</time>
      </trkpt>
      <trkpt lat="48.68267" lon="6.1397">
        <ele>267</ele>
        <time>2013-04-14T10:08:14Z</time>
      </trkpt>
      <trkpt lat="48.6827" lon="6.13968">
        <ele>267</ele>
        <time>2013-04-14T10:08:16Z</time>
      </trkpt>
      <trkpt lat="48.68271" lon="6.13966">
        <ele>269</ele>
        <time>2013-04-14T10:08:18Z</time>
      </trkpt>
      <trkpt lat="48.68273" lon="6.13964">
        <ele>269</ele>
        <time>2013-04-14T10:08:20Z</time>
      </trkpt>
      <trkpt lat="48.68276" lon="6.13962">
        <ele>271</ele>
        <time>2013-04-14T10:08:22Z</time>
      </trkpt>
      <trkpt lat="48.68279" lon="6.1396">
        <ele>272</ele>
        <time>2013-04-14T10:08:24Z</time>
      </trkpt>
      <trkpt lat="48.68282" lon="6.13958">
        <ele>272</ele>
        <time>2013-04-14T10:08:26Z</time>
      </trkpt>
      <trkpt lat="48.68285" lon="6.13955">
        <ele>270</ele>
        <time>2013-04-14T10:08:28Z</time>
      </trkpt>
      <trkpt lat="48.6829" lon="6.13951">
        <ele>268</ele>
        <time>2013-04-14T10:08:30Z</time>
      </trkpt>
      <trkpt lat="48.68293" lon="6.13948">
        <ele>268</ele>
        <time>2013-04-14T10:08:32Z</time>
      </trkpt>
      <trkpt lat="48.68296" lon="6.13944">
        <ele>269</ele>
        <time>2013-04-14T10:08:34Z</time>
      </trkpt>
      <trkpt lat="48.68298" lon="6.13942">
        <ele>271</ele>
        <time>2013-04-14T10:08:36Z</time>
      </trkpt>
      <trkpt lat="48.683" lon="6.1394">
        <ele>271</ele>
        <time>2013-04-14T10:08:38Z</time>
      </trkpt>
      <trkpt lat="48.68302" lon="6.13938">
        <ele>272</ele>
        <time>2013-04-14T10:08:40Z</time>
      </trkpt>
      <trkpt lat="48.68305" lon="6.13935">
        <ele>270</ele>
        <time>2013-04-14T10:08:42Z</time>
      </trkpt>
      <trkpt lat="48.68309" lon="6.13931">
        <ele>272</ele>
        <time>2013-04-14T10:08:44Z</time>
      </trkpt>
      <trkpt lat="48.68311" lon="6.13929">
        <ele>272</ele>
        <time>2013-04-14T10:08:46Z</time>
      </trkpt>
      <trkpt lat="48.68314" lon="6.13926">
        <ele>275</ele>
        <time>2013-04-14T10:08:48Z</time>
      </trkpt>
      <trkpt lat="48.68317" lon="6.13923">
        <ele>275</ele>
        <time>2013-04-14T10:08:50Z</time>
      </trkpt>
      <trkpt lat="48.68319" lon="6.13921">
        <ele>274</ele>
        <time>2013-04-14T10:08:52Z</time>
      </trkpt>
      <trkpt lat="48.68322" lon="6.13919">
        <ele>272</ele>
        <time>2013-04-14T10:08:54Z</time>
      </trkpt>
      <trkpt lat="48.68324" lon="6.13916">
        <ele>272</ele>
        <time>2013-04-14T10:08:56Z</time>
      </trkpt>
      <trkpt lat="48.68326" lon="6.13913">
        <ele>270</ele>
        <time>2013-04-14T10:08:58Z</time>
      </trkpt>
      <trkpt lat="48.68327" lon="6.13912">
        <ele>272</ele>
        <time>2013-04-14T10:09:00Z</time>
      </trkpt>
      <trkpt lat="48.6833" lon="6.13913">
        <ele>276</ele>
        <time>2013-04-14T10:09:02Z</time>
      </trkpt>
      <trkpt lat="48.68333" lon="6.13915">
        <ele>273</ele>
        <time>2013-04-14T10:09:04Z</time>
      </trkpt>
      <trkpt lat="48.68341" lon="6.13916">
        <ele>272</ele>
        <time>2013-04-14T10:09:06Z</time>
      </trkpt>
      <trkpt lat="48.68348" lon="6.13918">
        <ele>272</ele>
        <time>2013-04-14T10:09:08Z</time>
      </trkpt>
      <trkpt lat="48.68358" lon="6.13915">
        <ele>276</ele>
        <time>2013-04-14T10:09:10Z</time>
      </trkpt>
      <trkpt lat="48.68364" lon="6.1391">
        <ele>277</ele>
        <time>2013-04-14T10:09:12Z</time>
      </trkpt>
      <trkpt lat="48.68369" lon="6.13907">
        <ele>276</ele>
        <time>2013-04-14T10:09:14Z</time>
      </trkpt>
      <trkpt lat="48.68373" lon="6.13905">
        <ele>276</ele>
        <time>2013-04-14T10:09:16Z</time>
      </trkpt>
      <trkpt lat="48.68377" lon="6.13901">
        <ele>274</ele>
        <time>2013-04-14T10:09:18Z</time>
      </trkpt>
      <trkpt lat="48.68381" lon="6.13897">
        <ele>274</ele>
        <time>2013-04-14T10:09:20Z</time>
      </trkpt>
      <trkpt lat="48.68385" lon="6.13894">
        <ele>274</ele>
        <time>2013-04-14T10:09:22Z</time>
      </trkpt>
      <trkpt lat="48.68388" lon="6.1389">
        <ele>275</ele>
        <time>2013-04-14T10:09:24Z</time>
      </trkpt>
      <trkpt lat="48.68392" lon="6.13887">
        <ele>276</ele>
        <time>2013-04-14T10:09:26Z</time>
      </trkpt>
      <trkpt lat="48.68396" lon="6.13884">
        <ele>276</ele>
        <time>2013-04-14T10:09:28Z</time>
      </trkpt>
      <trkpt lat="48.684" lon="6.1388">
        <ele>276</ele>
        <time>2013-04-14T10:09:30Z</time>
      </trkpt>
      <trkpt lat="48.68403" lon="6.13876">
        <ele>276</ele>
        <time>2013-04-14T10:09:32Z</time>
      </trkpt>
      <trkpt lat="48.68405" lon="6.13873">
        <ele>276</ele>
        <time>2013-04-14T10:09:34Z</time>
      </trkpt>
      <trkpt lat="48.68409" lon="6.13869">
        <ele>277</ele>
        <time>2013-04-14T10:09:36Z</time>
      </trkpt>
      <trkpt lat="48.68412" lon="6.13865">
        <ele>276</ele>
        <time>2013-04-14T10:09:38Z</time>
      </trkpt>
      <trkpt lat="48.68417" lon="6.13859">
        <ele>276</ele>
        <time>2013-04-14T10:09:40Z</time>
      </trkpt>
      <trkpt lat="48.68421" lon="6.13854">
        <ele>277</ele>
        <time>2013-04-14T10:09:42Z</time>
      </trkpt>
      <trkpt lat="48.68424" lon="6.13849">
        <ele>276</ele>
        <time>2013-04-14T10:09:44Z</time>
      </trkpt>
      <trkpt lat="48.68427" lon="6.13844">
        <ele>276</ele>
        <time>2013-04-14T10:09:46Z</time>
      </trkpt>
      <trkpt lat="48.6843" lon="6.13839">
        <ele>276</ele>
        <time>2013-04-14T10:09:48Z</time>
      </trkpt>
      <trkpt lat="48.68433" lon="6.13834">
        <ele>277</ele>
        <time>2013-04-14T10:09:50Z</time>
      </trkpt>
      <trkpt lat="48.68435" lon="6.1383">
        <ele>278</ele>
        <time>2013-04-14T10:09:52Z</time>
      </trkpt>
      <trkpt lat="48.68439" lon="6.13825">
        <ele>277</ele>
        <time>2013-04-14T10:09:54Z</time>
      </trkpt>
      <trkpt lat="48.68443" lon="6.1382">
        <ele>278</ele>
        <time>2013-04-14T10:09:56Z</time>
      </trkpt>
      <trkpt lat="48.68445" lon="6.13815">
        <ele>277</ele>
        <time>2013-04-14T10:09:58Z</time>
      </trkpt>
      <trkpt lat="48.68447" lon="6.1381">
        <ele>277</ele>
        <time>2013-04-14T10:10:00Z</time>
      </trkpt>
      <trkpt lat="48.68448" lon="6.13805">
        <ele>277</ele>
        <time>2013-04-14T10:10:02Z</time>
      </trkpt>
      <trkpt lat="48.6845" lon="6.13801">
        <ele>278</ele>
        <time>2013-04-14T10:10:04Z</time>
      </trkpt>
      <trkpt lat="48.68452" lon="6.13795">
        <ele>277</ele>
        <time>2013-04-14T10:10:06Z</time>
      </trkpt>
      <trkpt lat="48.68454" lon="6.13789">
        <ele>277</ele>
        <time>2013-04-14T10:10:08Z</time>
      </trkpt>
      <trkpt lat="48.68456" lon="6.13783">
        <ele>278</ele>
        <time>2013-04-14T10:10:10Z</time>
      </trkpt>
      <trkpt lat="48.68457" lon="6.13777">
        <ele>279</ele>
        <time>2013-04-14T10:10:12Z</time>
      </trkpt>
      <trkpt lat="48.68459" lon="6.13772">
        <ele>280</ele>
        <time>2013-04-14T10:10:14Z</time>
      </trkpt>
      <trkpt lat="48.68461" lon="6.13766">
        <ele>281</ele>
        <time>2013-04-14T10:10:16Z</time>
      </trkpt>
      <trkpt lat="48.68462" lon="6.1376">
        <ele>281</ele>
        <time>2013-04-14T10:10:18Z</time>
      </trkpt>
      <trkpt lat="48.68465" lon="6.13754">
        <ele>282</ele>
        <time>2013-04-14T10:10:20Z</time>
      </trkpt>
      <trkpt lat="48.68467" lon="6.13748">
        <ele>282</ele>
        <time>2013-04-14T10:10:22Z</time>
      </trkpt>
      <trkpt lat="48.68469" lon="6.13742">
        <ele>284</ele>
        <time>2013-04-14T10:10:24Z</time>
      </trkpt>
      <trkpt lat="48.68472" lon="6.13735">
        <ele>287</ele>
        <time>2013-04-14T10:10:26Z</time>
      </trkpt>
      <trkpt lat="48.68473" lon="6.13728">
        <ele>289</ele>
        <time>2013-04-14T10:10:28Z</time>
      </trkpt>
      <trkpt lat="48.68474" lon="6.13722">
        <ele>288</ele>
        <time>2013-04-14T10:10:30Z</time>
      </trkpt>
      <trkpt lat="48.68475" lon="6.13716">
        <ele>287</ele>
        <time>2013-04-14T10:10:32Z</time>
      </trkpt>
      <trkpt lat="48.68476" lon="6.13709">
        <ele>289</ele>
        <time>2013-04-14T10:10:34Z</time>
      </trkpt>
      <trkpt lat="48.68476" lon="6.13703">
        <ele>289</ele>
        <time>2013-04-14T10:10:36Z</time>
      </trkpt>
      <trkpt lat="48.68476" lon="6.13697">
        <ele>289</ele>
        <time>2013-04-14T10:10:38Z</time>
      </trkpt>
      <trkpt lat="48.68478" lon="6.1369">
        <ele>290</ele>
        <time>2013-04-14T10:10:40Z</time>
      </trkpt>
      <trkpt lat="48.68479" lon="6.13683">
        <ele>287</ele>
        <time>2013-04-14T10:10:42Z</time>
      </trkpt>
      <trkpt lat="48.68479" lon="6.13675">
        <ele>287</ele>
        <time>2013-04-14T10:10:44Z</time>
      </trkpt>
      <trkpt lat="48.68479" lon="6.13668">
        <ele>286</ele>
        <time>2013-04-14T10:10:46Z</time>
      </trkpt>
      <trkpt lat="48.6848" lon="6.13662">
        <ele>286</ele>
        <time>2013-04-14T10:10:48Z</time>
      </trkpt>
      <trkpt lat="48.68481" lon="6.13656">
        <ele>289</ele>
        <time>2013-04-14T10:10:50Z</time>
      </trkpt>
      <trkpt lat="48.68482" lon="6.13649">
        <ele>289</ele>
        <time>2013-04-14T10:10:52Z</time>
      </trkpt>
      <trkpt lat="48.68482" lon="6.13641">
        <ele>290</ele>
        <time>2013-04-14T10:10:54Z</time>
      </trkpt>
      <trkpt lat="48.68483" lon="6.13635">
        <ele>289</ele>
        <time>2013-04-14T10:10:56Z</time>
      </trkpt>
      <trkpt lat="48.68482" lon="6.13628">
        <ele>285</ele>
        <time>2013-04-14T10:10:58Z</time>
      </trkpt>
      <trkpt lat="48.68482" lon="6.13621">
        <ele>288</ele>
        <time>2013-04-14T10:11:00Z</time>
      </trkpt>
      <trkpt lat="48.68482" lon="6.13615">
        <ele>290</ele>
        <time>2013-04-14T10:11:02Z</time>
      </trkpt>
      <trkpt lat="48.68482" lon="6.13609">
        <ele>290</ele>
        <time>2013-04-14T10:11:04Z</time>
      </trkpt>
      <trkpt lat="48.68481" lon="6.13603">
        <ele>290</ele>
        <time>2013-04-14T10:11:06Z</time>
      </trkpt>
      <trkpt lat="48.68478" lon="6.13597">
        <ele>291</ele>
        <time>2013-04-14T10:11:08Z</time>
      </trkpt>
      <trkpt lat="48.68478" lon="6.13592">
        <ele>295</ele>
        <time>2013-04-14T10:11:10Z</time>
      </trkpt>
      <trkpt lat="48.68476" lon="6.13587">
        <ele>299</ele>
        <time>2013-04-14T10:11:12Z</time>
      </trkpt>
      <trkpt lat="48.68475" lon="6.13581">
        <ele>299</ele>
        <time>2013-04-14T10:11:14Z</time>
      </trkpt>
      <trkpt lat="48.68475" lon="6.13575">
        <ele>297</ele>
        <time>2013-04-14T10:11:16Z</time>
      </trkpt>
      <trkpt lat="48.68475" lon="6.1357">
        <ele>296</ele>
        <time>2013-04-14T10:11:18Z</time>
      </trkpt>
      <trkpt lat="48.68475" lon="6.13563">
        <ele>298</ele>
        <time>2013-04-14T10:11:20Z</time>
      </trkpt>
      <trkpt lat="48.68473" lon="6.13558">
        <ele>300</ele>
        <time>2013-04-14T10:11:22Z</time>
      </trkpt>
      <trkpt lat="48.68472" lon="6.13551">
        <ele>302</ele>
        <time>2013-04-14T10:11:24Z</time>
      </trkpt>
      <trkpt lat="48.68473" lon="6.13542">
        <ele>300</ele>
        <time>2013-04-14T10:11:26Z</time>
      </trkpt>
      <trkpt lat="48.68473" lon="6.13533">
        <ele>300</ele>
        <time>2013-04-14T10:11:28Z</time>
      </trkpt>
      <trkpt lat="48.68474" lon="6.13525">
        <ele>301</ele>
        <time>2013-04-14T10:11:30Z</time>
      </trkpt>
      <trkpt lat="48.68474" lon="6.13518">
        <ele>306</ele>
        <time>2013-04-14T10:11:32Z</time>
      </trkpt>
      <trkpt lat="48.68475" lon="6.13511">
        <ele>308</ele>
        <time>2013-04-14T10:11:34Z</time>
      </trkpt>
      <trkpt lat="48.68475" lon="6.13505">
        <ele>308</ele>
        <time>2013-04-14T10:11:36Z</time>
      </trkpt>
      <trkpt lat="48.68476" lon="6.13499">
        <ele>310</ele>
        <time>2013-04-14T10:11:38Z</time>
      </trkpt>
      <trkpt lat="48.68476" lon="6.13493">
        <ele>308</ele>
        <time>2013-04-14T10:11:40Z</time>
      </trkpt>
      <trkpt lat="48.68475" lon="6.1349">
        <ele>310</ele>
        <time>2013-04-14T10:11:42Z</time>
      </trkpt>
      <trkpt lat="48.68475" lon="6.13487">
        <ele>308</ele>
        <time>2013-04-14T10:11:43Z</time>
      </trkpt>
      <trkpt lat="48.68475" lon="6.13485">
        <ele>307</ele>
        <time>2013-04-14T10:11:44Z</time>
      </trkpt>
      <trkpt lat="48.68476" lon="6.13479">
        <ele>311</ele>
        <time>2013-04-14T10:11:46Z</time>
      </trkpt>
      <trkpt lat="48.68477" lon="6.13474">
        <ele>310</ele>
        <time>2013-04-14T10:11:48Z</time>
      </trkpt>
      <trkpt lat="48.68478" lon="6.13468">
        <ele>309</ele>
        <time>2013-04-14T10:11:50Z</time>
      </trkpt>
      <trkpt lat="48.68478" lon="6.13461">
        <ele>311</ele>
        <time>2013-04-14T10:11:52Z</time>
      </trkpt>
      <trkpt lat="48.68478" lon="6.13455">
        <ele>309</ele>
        <time>2013-04-14T10:11:54Z</time>
      </trkpt>
      <trkpt lat="48.68478" lon="6.13449">
        <ele>310</ele>
        <time>2013-04-14T10:11:56Z</time>
      </trkpt>
      <trkpt lat="48.68475" lon="6.13444">
        <ele>310</ele>
        <time>2013-04-14T10:11:58Z</time>
      </trkpt>
      <trkpt lat="48.68475" lon="6.13436">
        <ele>315</ele>
        <time>2013-04-14T10:12:00Z</time>
      </trkpt>
      <trkpt lat="48.68475" lon="6.13431">
        <ele>315</ele>
        <time>2013-04-14T10:12:02Z</time>
      </trkpt>
      <trkpt lat="48.68474" lon="6.13425">
        <ele>315</ele>
        <time>2013-04-14T10:12:04Z</time>
      </trkpt>
      <trkpt lat="48.68473" lon="6.1342">
        <ele>314</ele>
        <time>2013-04-14T10:12:06Z</time>
      </trkpt>
      <trkpt lat="48.68474" lon="6.13416">
        <ele>310</ele>
        <time>2013-04-14T10:12:08Z</time>
      </trkpt>
      <trkpt lat="48.68475" lon="6.13412">
        <ele>311</ele>
        <time>2013-04-14T10:12:10Z</time>
      </trkpt>
      <trkpt lat="48.68476" lon="6.13407">
        <ele>312</ele>
        <time>2013-04-14T10:12:12Z</time>
      </trkpt>
      <trkpt lat="48.68478" lon="6.134">
        <ele>313</ele>
        <time>2013-04-14T10:12:14Z</time>
      </trkpt>
      <trkpt lat="48.6848" lon="6.13395">
        <ele>312</ele>
        <time>2013-04-14T10:12:16Z</time>
      </trkpt>
      <trkpt lat="48.6848" lon="6.1339">
        <ele>314</ele>
        <time>2013-04-14T10:12:18Z</time>
      </trkpt>
      <trkpt lat="48.68481" lon="6.13386">
        <ele>315</ele>
        <time>2013-04-14T10:12:20Z</time>
      </trkpt>
      <trkpt lat="48.68482" lon="6.13381">
        <ele>315</ele>
        <time>2013-04-14T10:12:22Z</time>
      </trkpt>
      <trkpt lat="48.68483" lon="6.13375">
        <ele>315</ele>
        <time>2013-04-14T10:12:24Z</time>
      </trkpt>
      <trkpt lat="48.68484" lon="6.13371">
        <ele>316</ele>
        <time>2013-04-14T10:12:26Z</time>
      </trkpt>
      <trkpt lat="48.68484" lon="6.13366">
        <ele>316</ele>
        <time>2013-04-14T10:12:28Z</time>
      </trkpt>
      <trkpt lat="48.68485" lon="6.13361">
        <ele>314</ele>
        <time>2013-04-14T10:12:30Z</time>
      </trkpt>
      <trkpt lat="48.68487" lon="6.13355">
        <ele>315</ele>
        <time>2013-04-14T10:12:32Z</time>
      </trkpt>
      <trkpt lat="48.68488" lon="6.1335">
        <ele>315</ele>
        <time>2013-04-14T10:12:34Z</time>
      </trkpt>
      <trkpt lat="48.6849" lon="6.13344">
        <ele>312</ele>
        <time>2013-04-14T10:12:36Z</time>
      </trkpt>
      <trkpt lat="48.68491" lon="6.13339">
        <ele>313</ele>
        <time>2013-04-14T10:12:38Z</time>
      </trkpt>
      <trkpt lat="48.68492" lon="6.13335">
        <ele>313</ele>
        <time>2013-04-14T10:12:40Z</time>
      </trkpt>
      <trkpt lat="48.68493" lon="6.1333">
        <ele>317</ele>
        <time>2013-04-14T10:12:42Z</time>
      </trkpt>
      <trkpt lat="48.68494" lon="6.13325">
        <ele>316</ele>
        <time>2013-04-14T10:12:44Z</time>
      </trkpt>
      <trkpt lat="48.68494" lon="6.13321">
        <ele>313</ele>
        <time>2013-04-14T10:12:46Z</time>
      </trkpt>
      <trkpt lat="48.68494" lon="6.13317">
        <ele>313</ele>
        <time>2013-04-14T10:12:48Z</time>
      </trkpt>
      <trkpt lat="48.68495" lon="6.13312">
        <ele>312</ele>
        <time>2013-04-14T10:12:50Z</time>
      </trkpt>
      <trkpt lat="48.68497" lon="6.13306">
        <ele>312</ele>
        <time>2013-04-14T10:12:52Z</time>
      </trkpt>
      <trkpt lat="48.68499" lon="6.13301">
        <ele>314</ele>
        <time>2013-04-14T10:12:54Z</time>
      </trkpt>
      <trkpt lat="48.685" lon="6.13297">
        <ele>310</ele>
        <time>2013-04-14T10:12:56Z</time>
      </trkpt>
      <trkpt lat="48.68501" lon="6.13293">
        <ele>311</ele>
        <time>2013-04-14T10:12:58Z</time>
      </trkpt>
      <trkpt lat="48.68505" lon="6.13287">
        <ele>311</ele>
        <time>2013-04-14T10:13:00Z</time>
      </trkpt>
      <trkpt lat="48.68509" lon="6.13281">
        <ele>311</ele>
        <time>2013-04-14T10:13:02Z</time>
      </trkpt>
      <trkpt lat="48.6851" lon="6.13279">
        <ele>313</ele>
        <time>2013-04-14T10:13:04Z</time>
      </trkpt>
      <trkpt lat="48.68512" lon="6.13275">
        <ele>316</ele>
        <time>2013-04-14T10:13:06Z</time>
      </trkpt>
      <trkpt lat="48.68514" lon="6.13271">
        <ele>317</ele>
        <time>2013-04-14T10:13:08Z</time>
      </trkpt>
      <trkpt lat="48.68516" lon="6.13269">
        <ele>320</ele>
        <time>2013-04-14T10:13:10Z</time>
      </trkpt>
      <trkpt lat="48.68519" lon="6.13264">
        <ele>320</ele>
        <time>2013-04-14T10:13:12Z</time>
      </trkpt>
      <trkpt lat="48.68522" lon="6.1326">
        <ele>319</ele>
        <time>2013-04-14T10:13:14Z</time>
      </trkpt>
      <trkpt lat="48.68525" lon="6.13256">
        <ele>321</ele>
        <time>2013-04-14T10:13:16Z</time>
      </trkpt>
      <trkpt lat="48.68528" lon="6.13252">
        <ele>317</ele>
        <time>2013-04-14T10:13:18Z</time>
      </trkpt>
      <trkpt lat="48.6853" lon="6.13249">
        <ele>315</ele>
        <time>2013-04-14T10:13:20Z</time>
      </trkpt>
      <trkpt lat="48.68532" lon="6.13245">
        <ele>316</ele>
        <time>2013-04-14T10:13:22Z</time>
      </trkpt>
      <trkpt lat="48.68535" lon="6.13241">
        <ele>318</ele>
        <time>2013-04-14T10:13:24Z</time>
      </trkpt>
      <trkpt lat="48.68539" lon="6.13235">
        <ele>317</ele>
        <time>2013-04-14T10:13:26Z</time>
      </trkpt>
      <trkpt lat="48.68542" lon="6.13231">
        <ele>315</ele>
        <time>2013-04-14T10:13:28Z</time>
      </trkpt>
      <trkpt lat="48.68546" lon="6.13225">
        <ele>314</ele>
        <time>2013-04-14T10:13:30Z</time>
      </trkpt>
      <trkpt lat="48.68548" lon="6.13222">
        <ele>314</ele>
        <time>2013-04-14T10:13:32Z</time>
      </trkpt>
      <trkpt lat="48.68551" lon="6.13219">
        <ele>314</ele>
        <time>2013-04-14T10:13:34Z</time>
      </trkpt>
      <trkpt lat="48.68554" lon="6.13216">
        <ele>315</ele>
        <time>2013-04-14T10:13:36Z</time>
      </trkpt>
      <trkpt lat="48.68557" lon="6.13212">
        <ele>314</ele>
        <time>2013-04-14T10:13:38Z</time>
      </trkpt>
      <trkpt lat="48.6856" lon="6.13209">
        <ele>314</ele>
        <time>2013-04-14T10:13:40Z</time>
      </trkpt>
      <trkpt lat="48.68564" lon="6.13207">
        <ele>314</ele>
        <time>2013-04-14T10:13:42Z</time>
      </trkpt>
      <trkpt lat="48.68568" lon="6.13203">
        <ele>314</ele>
        <time>2013-04-14T10:13:44Z</time>
      </trkpt>
      <trkpt lat="48.6857" lon="6.13202">
        <ele>315</ele>
        <time>2013-04-14T10:13:46Z</time>
      </trkpt>
      <trkpt lat="48.68573" lon="6.13199">
        <ele>315</ele>
        <time>2013-04-14T10:13:48Z</time>
      </trkpt>
      <trkpt lat="48.68576" lon="6.13197">
        <ele>316</ele>
        <time>2013-04-14T10:13:50Z</time>
      </trkpt>
      <trkpt lat="48.6858" lon="6.13195">
        <ele>317</ele>
        <time>2013-04-14T10:13:52Z</time>
      </trkpt>
      <trkpt lat="48.68585" lon="6.13191">
        <ele>317</ele>
        <time>2013-04-14T10:13:54Z</time>
      </trkpt>
      <trkpt lat="48.68589" lon="6.13188">
        <ele>318</ele>
        <time>2013-04-14T10:13:56Z</time>
      </trkpt>
      <trkpt lat="48.68592" lon="6.13186">
        <ele>318</ele>
        <time>2013-04-14T10:13:58Z</time>
      </trkpt>
      <trkpt lat="48.68596" lon="6.13181">
        <ele>320</ele>
        <time>2013-04-14T10:14:00Z</time>
      </trkpt>
      <trkpt lat="48.68601" lon="6.13177">
        <ele>319</ele>
        <time>2013-04-14T10:14:02Z</time>
      </trkpt>
      <trkpt lat="48.68605" lon="6.13174">
        <ele>317</ele>
        <time>2013-04-14T10:14:04Z</time>
      </trkpt>
      <trkpt lat="48.6861" lon="6.13171">
        <ele>317</ele>
        <time>2013-04-14T10:14:06Z</time>
      </trkpt>
      <trkpt lat="48.68615" lon="6.13168">
        <ele>319</ele>
        <time>2013-04-14T10:14:08Z</time>
      </trkpt>
      <trkpt lat="48.6862" lon="6.13165">
        <ele>321</ele>
        <time>2013-04-14T10:14:10Z</time>
      </trkpt>
      <trkpt lat="48.68625" lon="6.13162">
        <ele>322</ele>
        <time>2013-04-14T10:14:12Z</time>
      </trkpt>
      <trkpt lat="48.68629" lon="6.1316">
        <ele>321</ele>
        <time>2013-04-14T10:14:14Z</time>
      </trkpt>
      <trkpt lat="48.68634" lon="6.13158">
        <ele>320</ele>
        <time>2013-04-14T10:14:16Z</time>
      </trkpt>
      <trkpt lat="48.68638" lon="6.13157">
        <ele>320</ele>
        <time>2013-04-14T10:14:18Z</time>
      </trkpt>
      <trkpt lat="48.68642" lon="6.13155">
        <ele>323</ele>
        <time>2013-04-14T10:14:20Z</time>
      </trkpt>
      <trkpt lat="48.68646" lon="6.13154">
        <ele>324</ele>
        <time>2013-04-14T10:14:22Z</time>
      </trkpt>
      <trkpt lat="48.68651" lon="6.13152">
        <ele>324</ele>
        <time>2013-04-14T10:14:24Z</time>
      </trkpt>
      <trkpt lat="48.68656" lon="6.13149">
        <ele>322</ele>
        <time>2013-04-14T10:14:26Z</time>
      </trkpt>
      <trkpt lat="48.6866" lon="6.13148">
        <ele>322</ele>
        <time>2013-04-14T10:14:28Z</time>
      </trkpt>
      <trkpt lat="48.68665" lon="6.13148">
        <ele>321</ele>
        <time>2013-04-14T10:14:30Z</time>
      </trkpt>
      <trkpt lat="48.6867" lon="6.13148">
        <ele>326</ele>
        <time>2013-04-14T10:14:32Z</time>
      </trkpt>
      <trkpt lat="48.68675" lon="6.13148">
        <ele>325</ele>
        <time>2013-04-14T10:14:34Z</time>
      </trkpt>
      <trkpt lat="48.68681" lon="6.13148">
        <ele>324</ele>
        <time>2013-04-14T10:14:36Z</time>
      </trkpt>
      <trkpt lat="48.68685" lon="6.13147">
        <ele>322</ele>
        <time>2013-04-14T10:14:38Z</time>
      </trkpt>
      <trkpt lat="48.6869" lon="6.13147">
        <ele>321</ele>
        <time>2013-04-14T10:14:40Z</time>
      </trkpt>
      <trkpt lat="48.68694" lon="6.13146">
        <ele>324</ele>
        <time>2013-04-14T10:14:42Z</time>
      </trkpt>
      <trkpt lat="48.68699" lon="6.13147">
        <ele>325</ele>
        <time>2013-04-14T10:14:44Z</time>
      </trkpt>
      <trkpt lat="48.68704" lon="6.13148">
        <ele>323</ele>
        <time>2013-04-14T10:14:46Z</time>
      </trkpt>
      <trkpt lat="48.68708" lon="6.13148">
        <ele>322</ele>
        <time>2013-04-14T10:14:48Z</time>
      </trkpt>
      <trkpt lat="48.68713" lon="6.13148">
        <ele>320</ele>
        <time>2013-04-14T10:14:50Z</time>
      </trkpt>
      <trkpt lat="48.68718" lon="6.13149">
        <ele>322</ele>
        <time>2013-04-14T10:14:52Z</time>
      </trkpt>
      <trkpt lat="48.68723" lon="6.1315">
        <ele>322</ele>
        <time>2013-04-14T10:14:54Z</time>
      </trkpt>
      <trkpt lat="48.68727" lon="6.13151">
        <ele>323</ele>
        <time>2013-04-14T10:14:56Z</time>
      </trkpt>
      <trkpt lat="48.68731" lon="6.13153">
        <ele>323</ele>
        <time>2013-04-14T10:14:58Z</time>
      </trkpt>
      <trkpt lat="48.68735" lon="6.13154">
        <ele>321</ele>
        <time>2013-04-14T10:15:00Z</time>
      </trkpt>
      <trkpt lat="48.6874" lon="6.13154">
        <ele>324</ele>
        <time>2013-04-14T10:15:02Z</time>
      </trkpt>
      <trkpt lat="48.68742" lon="6.13155">
        <ele>323</ele>
        <time>2013-04-14T10:15:04Z</time>
      </trkpt>
      <trkpt lat="48.68747" lon="6.13156">
        <ele>324</ele>
        <time>2013-04-14T10:15:06Z</time>
      </trkpt>
      <trkpt lat="48.68754" lon="6.13155">
        <ele>322</ele>
        <time>2013-04-14T10:15:08Z</time>
      </trkpt>
      <trkpt lat="48.68758" lon="6.13158">
        <ele>325</ele>
        <time>2013-04-14T10:15:10Z</time>
      </trkpt>
      <trkpt lat="48.68763" lon="6.13158">
        <ele>326</ele>
        <time>2013-04-14T10:15:12Z</time>
      </trkpt>
      <trkpt lat="48.68767" lon="6.13158">
        <ele>327</ele>
        <time>2013-04-14T10:15:14Z</time>
      </trkpt>
      <trkpt lat="48.6877" lon="6.1316">
        <ele>327</ele>
        <time>2013-04-14T10:15:16Z</time>
      </trkpt>
      <trkpt lat="48.68775" lon="6.13163">
        <ele>328</ele>
        <time>2013-04-14T10:15:18Z</time>
      </trkpt>
      <trkpt lat="48.68779" lon="6.13165">
        <ele>329</ele>
        <time>2013-04-14T10:15:20Z</time>
      </trkpt>
      <trkpt lat="48.68783" lon="6.13167">
        <ele>330</ele>
        <time>2013-04-14T10:15:22Z</time>
      </trkpt>
      <trkpt lat="48.68787" lon="6.13169">
        <ele>331</ele>
        <time>2013-04-14T10:15:24Z</time>
      </trkpt>
      <trkpt lat="48.68791" lon="6.13172">
        <ele>334</ele>
        <time>2013-04-14T10:15:26Z</time>
      </trkpt>
      <trkpt lat="48.68796" lon="6.13175">
        <ele>334</ele>
        <time>2013-04-14T10:15:28Z</time>
      </trkpt>
      <trkpt lat="48.688" lon="6.13179">
        <ele>334</ele>
        <time>2013-04-14T10:15:30Z</time>
      </trkpt>
      <trkpt lat="48.68804" lon="6.13183">
        <ele>334</ele>
        <time>2013-04-14T10:15:32Z</time>
      </trkpt>
      <trkpt lat="48.68809" lon="6.13187">
        <ele>335</ele>
        <time>2013-04-14T10:15:34Z</time>
      </trkpt>
      <trkpt lat="48.68813" lon="6.13187">
        <ele>336</ele>
        <time>2013-04-14T10:15:36Z</time>
      </trkpt>
      <trkpt lat="48.68816" lon="6.13188">
        <ele>336</ele>
        <time>2013-04-14T10:15:38Z</time>
      </trkpt>
      <trkpt lat="48.6882" lon="6.13186">
        <ele>339</ele>
        <time>2013-04-14T10:15:40Z</time>
      </trkpt>
      <trkpt lat="48.68823" lon="6.13183">
        <ele>339</ele>
        <time>2013-04-14T10:15:42Z</time>
      </trkpt>
      <trkpt lat="48.68826" lon="6.13179">
        <ele>339</ele>
        <time>2013-04-14T10:15:44Z</time>
      </trkpt>
      <trkpt lat="48.68827" lon="6.13175">
        <ele>342</ele>
        <time>2013-04-14T10:15:46Z</time>
      </trkpt>
      <trkpt lat="48.68827" lon="6.13169">
        <ele>342</ele>
        <time>2013-04-14T10:15:48Z</time>
      </trkpt>
      <trkpt lat="48.68827" lon="6.13164">
        <ele>340</ele>
        <time>2013-04-14T10:15:50Z</time>
      </trkpt>
      <trkpt lat="48.68827" lon="6.13159">
        <ele>340</ele>
        <time>2013-04-14T10:15:52Z</time>
      </trkpt>
      <trkpt lat="48.68827" lon="6.13153">
        <ele>339</ele>
        <time>2013-04-14T10:15:54Z</time>
      </trkpt>
      <trkpt lat="48.68826" lon="6.13147">
        <ele>342</ele>
        <time>2013-04-14T10:15:56Z</time>
      </trkpt>
      <trkpt lat="48.68826" lon="6.13141">
        <ele>340</ele>
        <time>2013-04-14T10:15:58Z</time>
      </trkpt>
      <trkpt lat="48.68826" lon="6.13135">
        <ele>341</ele>
        <time>2013-04-14T10:16:00Z</time>
      </trkpt>
      <trkpt lat="48.68826" lon="6.1313">
        <ele>345</ele>
        <time>2013-04-14T10:16:02Z</time>
      </trkpt>
      <trkpt lat="48.68826" lon="6.13124">
        <ele>346</ele>
        <time>2013-04-14T10:16:04Z</time>
      </trkpt>
      <trkpt lat="48.68826" lon="6.13116">
        <ele>351</ele>
        <time>2013-04-14T10:16:06Z</time>
      </trkpt>
      <trkpt lat="48.68824" lon="6.13111">
        <ele>345</ele>
        <time>2013-04-14T10:16:08Z</time>
      </trkpt>
      <trkpt lat="48.68824" lon="6.13106">
        <ele>344</ele>
        <time>2013-04-14T10:16:10Z</time>
      </trkpt>
      <trkpt lat="48.68824" lon="6.131">
        <ele>345</ele>
        <time>2013-04-14T10:16:12Z</time>
      </trkpt>
      <trkpt lat="48.68824" lon="6.13094">
        <ele>345</ele>
        <time>2013-04-14T10:16:14Z</time>
      </trkpt>
      <trkpt lat="48.68823" lon="6.13089">
        <ele>339</ele>
        <time>2013-04-14T10:16:16Z</time>
      </trkpt>
      <trkpt lat="48.68823" lon="6.13084">
        <ele>345</ele>
        <time>2013-04-14T10:16:18Z</time>
      </trkpt>
      <trkpt lat="48.68823" lon="6.13079">
        <ele>344</ele>
        <time>2013-04-14T10:16:20Z</time>
      </trkpt>
      <trkpt lat="48.68821" lon="6.13074">
        <ele>344</ele>
        <time>2013-04-14T10:16:22Z</time>
      </trkpt>
      <trkpt lat="48.6882" lon="6.13068">
        <ele>341</ele>
        <time>2013-04-14T10:16:24Z</time>
      </trkpt>
      <trkpt lat="48.68819" lon="6.13063">
        <ele>342</ele>
        <time>2013-04-14T10:16:26Z</time>
      </trkpt>
      <trkpt lat="48.68818" lon="6.13057">
        <ele>344</ele>
        <time>2013-04-14T10:16:28Z</time>
      </trkpt>
      <trkpt lat="48.68817" lon="6.13052">
        <ele>341</ele>
        <time>2013-04-14T10:16:30Z</time>
      </trkpt>
      <trkpt lat="48.68816" lon="6.13046">
        <ele>342</ele>
        <time>2013-04-14T10:16:32Z</time>
      </trkpt>
      <trkpt lat="48.68816" lon="6.13041">
        <ele>341</ele>
        <time>2013-04-14T10:16:34Z</time>
      </trkpt>
      <trkpt lat="48.68816" lon="6.13034">
        <ele>346</ele>
        <time>2013-04-14T10:16:36Z</time>
      </trkpt>
      <trkpt lat="48.68816" lon="6.13027">
        <ele>345</ele>
        <time>2013-04-14T10:16:38Z</time>
      </trkpt>
      <trkpt lat="48.68817" lon="6.1302">
        <ele>344</ele>
        <time>2013-04-14T10:16:40Z</time>
      </trkpt>
      <trkpt lat="48.68817" lon="6.13014">
        <ele>346</ele>
        <time>2013-04-14T10:16:42Z</time>
      </trkpt>
      <trkpt lat="48.68816" lon="6.13007">
        <ele>346</ele>
        <time>2013-04-14T10:16:44Z</time>
      </trkpt>
      <trkpt lat="48.68816" lon="6.13">
        <ele>346</ele>
        <time>2013-04-14T10:16:46Z</time>
      </trkpt>
      <trkpt lat="48.68815" lon="6.12995">
        <ele>346</ele>
        <time>2013-04-14T10:16:48Z</time>
      </trkpt>
      <trkpt lat="48.68815" lon="6.12989">
        <ele>342</ele>
        <time>2013-04-14T10:16:50Z</time>
      </trkpt>
      <trkpt lat="48.68815" lon="6.12982">
        <ele>344</ele>
        <time>2013-04-14T10:16:52Z</time>
      </trkpt>
      <trkpt lat="48.68815" lon="6.12975">
        <ele>350</ele>
        <time>2013-04-14T10:16:54Z</time>
      </trkpt>
      <trkpt lat="48.68815" lon="6.12969">
        <ele>348</ele>
        <time>2013-04-14T10:16:56Z</time>
      </trkpt>
      <trkpt lat="48.68813" lon="6.12963">
        <ele>349</ele>
        <time>2013-04-14T10:16:58Z</time>
      </trkpt>
      <trkpt lat="48.68812" lon="6.12957">
        <ele>346</ele>
        <time>2013-04-14T10:17:00Z</time>
      </trkpt>
      <trkpt lat="48.68811" lon="6.12951">
        <ele>352</ele>
        <time>2013-04-14T10:17:02Z</time>
      </trkpt>
      <trkpt lat="48.68809" lon="6.12943">
        <ele>350</ele>
        <time>2013-04-14T10:17:04Z</time>
      </trkpt>
      <trkpt lat="48.68809" lon="6.12936">
        <ele>349</ele>
        <time>2013-04-14T10:17:06Z</time>
      </trkpt>
      <trkpt lat="48.68809" lon="6.12928">
        <ele>344</ele>
        <time>2013-04-14T10:17:08Z</time>
      </trkpt>
      <trkpt lat="48.68809" lon="6.12921">
        <ele>347</ele>
        <time>2013-04-14T10:17:10Z</time>
      </trkpt>
      <trkpt lat="48.68809" lon="6.12914">
        <ele>347</ele>
        <time>2013-04-14T10:17:12Z</time>
      </trkpt>
      <trkpt lat="48.68809" lon="6.12906">
        <ele>349</ele>
        <time>2013-04-14T10:17:14Z</time>
      </trkpt>
      <trkpt lat="48.68808" lon="6.12899">
        <ele>347</ele>
        <time>2013-04-14T10:17:16Z</time>
      </trkpt>
      <trkpt lat="48.68807" lon="6.12893">
        <ele>347</ele>
        <time>2013-04-14T10:17:18Z</time>
      </trkpt>
      <trkpt lat="48.68806" lon="6.12885">
        <ele>349</ele>
        <time>2013-04-14T10:17:20Z</time>
      </trkpt>
      <trkpt lat="48.68805" lon="6.12878">
        <ele>348</ele>
        <time>2013-04-14T10:17:22Z</time>
      </trkpt>
      <trkpt lat="48.68805" lon="6.1287">
        <ele>347</ele>
        <time>2013-04-14T10:17:24Z</time>
      </trkpt>
      <trkpt lat="48.68804" lon="6.12863">
        <ele>346</ele>
        <time>2013-04-14T10:17:26Z</time>
      </trkpt>
      <trkpt lat="48.68804" lon="6.12855">
        <ele>345</ele>
        <time>2013-04-14T10:17:28Z</time>
      </trkpt>
      <trkpt lat="48.68803" lon="6.12849">
        <ele>345</ele>
        <time>2013-04-14T10:17:30Z</time>
      </trkpt>
      <trkpt lat="48.68803" lon="6.12841">
        <ele>347</ele>
        <time>2013-04-14T10:17:32Z</time>
      </trkpt>
      <trkpt lat="48.68803" lon="6.12833">
        <ele>348</ele>
        <time>2013-04-14T10:17:34Z</time>
      </trkpt>
      <trkpt lat="48.68803" lon="6.12826">
        <ele>349</ele>
        <time>2013-04-14T10:17:36Z</time>
      </trkpt>
      <trkpt lat="48.68803" lon="6.1282">
        <ele>350</ele>
        <time>2013-04-14T10:17:38Z</time>
      </trkpt>
      <trkpt lat="48.68802" lon="6.12812">
        <ele>351</ele>
        <time>2013-04-14T10:17:40Z</time>
      </trkpt>
      <trkpt lat="48.68802" lon="6.12805">
        <ele>351</ele>
        <time>2013-04-14T10:17:42Z</time>
      </trkpt>
      <trkpt lat="48.68802" lon="6.12797">
        <ele>351</ele>
        <time>2013-04-14T10:17:44Z</time>
      </trkpt>
      <trkpt lat="48.68802" lon="6.1279">
        <ele>351</ele>
        <time>2013-04-14T10:17:46Z</time>
      </trkpt>
      <trkpt lat="48.68802" lon="6.12782">
        <ele>351</ele>
        <time>2013-04-14T10:17:48Z</time>
      </trkpt>
      <trkpt lat="48.68801" lon="6.12774">
        <ele>350</ele>
        <time>2013-04-14T10:17:50Z</time>
      </trkpt>
      <trkpt lat="48.68802" lon="6.12766">
        <ele>351</ele>
        <time>2013-04-14T10:17:52Z</time>
      </trkpt>
      <trkpt lat="48.68801" lon="6.12757">
        <ele>351</ele>
        <time>2013-04-14T10:17:54Z</time>
      </trkpt>
      <trkpt lat="48.68799" lon="6.12748">
        <ele>351</ele>
        <time>2013-04-14T10:17:56Z</time>
      </trkpt>
      <trkpt lat="48.68797" lon="6.1274">
        <ele>350</ele>
        <time>2013-04-14T10:17:58Z</time>
      </trkpt>
      <trkpt lat="48.68793" lon="6.12734">
        <ele>352</ele>
        <time>2013-04-14T10:18:00Z</time>
      </trkpt>
      <trkpt lat="48.68789" lon="6.1273">
        <ele>354</ele>
        <time>2013-04-14T10:18:02Z</time>
      </trkpt>
      <trkpt lat="48.68785" lon="6.12729">
        <ele>353</ele>
        <time>2013-04-14T10:18:04Z</time>
      </trkpt>
      <trkpt lat="48.68781" lon="6.12729">
        <ele>350</ele>
        <time>2013-04-14T10:18:06Z</time>
      </trkpt>
      <trkpt lat="48.68776" lon="6.12729">
        <ele>351</ele>
        <time>2013-04-14T10:18:08Z</time>
      </trkpt>
      <trkpt lat="48.6877" lon="6.1273">
        <ele>352</ele>
        <time>2013-04-14T10:18:10Z</time>
      </trkpt>
      <trkpt lat="48.68764" lon="6.12731">
        <ele>355</ele>
        <time>2013-04-14T10:18:12Z</time>
      </trkpt>
      <trkpt lat="48.68758" lon="6.12735">
        <ele>358</ele>
        <time>2013-04-14T10:18:14Z</time>
      </trkpt>
      <trkpt lat="48.68752" lon="6.12738">
        <ele>357</ele>
        <time>2013-04-14T10:18:16Z</time>
      </trkpt>
      <trkpt lat="48.68745" lon="6.12742">
        <ele>359</ele>
        <time>2013-04-14T10:18:18Z</time>
      </trkpt>
      <trkpt lat="48.68739" lon="6.12745">
        <ele>357</ele>
        <time>2013-04-14T10:18:20Z</time>
      </trkpt>
      <trkpt lat="48.68732" lon="6.12746">
        <ele>360</ele>
        <time>2013-04-14T10:18:22Z</time>
      </trkpt>
      <trkpt lat="48.68726" lon="6.12749">
        <ele>361</ele>
        <time>2013-04-14T10:18:24Z</time>
      </trkpt>
      <trkpt lat="48.6872" lon="6.12754">
        <ele>359</ele>
        <time>2013-04-14T10:18:26Z</time>
      </trkpt>
      <trkpt lat="48.68714" lon="6.12758">
        <ele>359</ele>
        <time>2013-04-14T10:18:28Z</time>
      </trkpt>
      <trkpt lat="48.68707" lon="6.12761">
        <ele>360</ele>
        <time>2013-04-14T10:18:30Z</time>
      </trkpt>
      <trkpt lat="48.687" lon="6.12763">
        <ele>358</ele>
        <time>2013-04-14T10:18:32Z</time>
      </trkpt>
      <trkpt lat="48.68693" lon="6.12765">
        <ele>358</ele>
        <time>2013-04-14T10:18:34Z</time>
      </trkpt>
      <trkpt lat="48.68685" lon="6.12769">
        <ele>363</ele>
        <time>2013-04-14T10:18:36Z</time>
      </trkpt>
      <trkpt lat="48.68676" lon="6.12772">
        <ele>363</ele>
        <time>2013-04-14T10:18:38Z</time>
      </trkpt>
      <trkpt lat="48.68668" lon="6.12774">
        <ele>362</ele>
        <time>2013-04-14T10:18:40Z</time>
      </trkpt>
      <trkpt lat="48.6866" lon="6.12778">
        <ele>365</ele>
        <time>2013-04-14T10:18:42Z</time>
      </trkpt>
      <trkpt lat="48.68652" lon="6.12781">
        <ele>363</ele>
        <time>2013-04-14T10:18:44Z</time>
      </trkpt>
      <trkpt lat="48.68644" lon="6.12785">
        <ele>365</ele>
        <time>2013-04-14T10:18:46Z</time>
      </trkpt>
      <trkpt lat="48.68634" lon="6.12788">
        <ele>365</ele>
        <time>2013-04-14T10:18:48Z</time>
      </trkpt>
      <trkpt lat="48.68625" lon="6.12791">
        <ele>365</ele>
        <time>2013-04-14T10:18:50Z</time>
      </trkpt>
      <trkpt lat="48.68617" lon="6.12794">
        <ele>364</ele>
        <time>2013-04-14T10:18:52Z</time>
      </trkpt>
      <trkpt lat="48.68607" lon="6.12798">
        <ele>364</ele>
        <time>2013-04-14T10:18:54Z</time>
      </trkpt>
      <trkpt lat="48.68596" lon="6.12801">
        <ele>367</ele>
        <time>2013-04-14T10:18:56Z</time>
      </trkpt>
      <trkpt lat="48.68587" lon="6.12803">
        <ele>365</ele>
        <time>2013-04-14T10:18:58Z</time>
      </trkpt>
      <trkpt lat="48.68578" lon="6.12805">
        <ele>364</ele>
        <time>2013-04-14T10:19:00Z</time>
      </trkpt>
      <trkpt lat="48.68568" lon="6.12808">
        <ele>365</ele>
        <time>2013-04-14T10:19:02Z</time>
      </trkpt>
      <trkpt lat="48.68558" lon="6.12812">
        <ele>369</ele>
        <time>2013-04-14T10:19:04Z</time>
      </trkpt>
      <trkpt lat="48.68551" lon="6.12816">
        <ele>365</ele>
        <time>2013-04-14T10:19:06Z</time>
      </trkpt>
      <trkpt lat="48.68542" lon="6.12822">
        <ele>363</ele>
        <time>2013-04-14T10:19:08Z</time>
      </trkpt>
      <trkpt lat="48.68533" lon="6.12827">
        <ele>363</ele>
        <time>2013-04-14T10:19:10Z</time>
      </trkpt>
      <trkpt lat="48.68524" lon="6.12831">
        <ele>366</ele>
        <time>2013-04-14T10:19:12Z</time>
      </trkpt>
      <trkpt lat="48.68516" lon="6.12835">
        <ele>362</ele>
        <time>2013-04-14T10:19:14Z</time>
      </trkpt>
      <trkpt lat="48.68508" lon="6.12841">
        <ele>358</ele>
        <time>2013-04-14T10:19:16Z</time>
      </trkpt>
      <trkpt lat="48.685" lon="6.12848">
        <ele>364</ele>
        <time>2013-04-14T10:19:18Z</time>
      </trkpt>
      <trkpt lat="48.68493" lon="6.12854">
        <ele>363</ele>
        <time>2013-04-14T10:19:20Z</time>
      </trkpt>
      <trkpt lat="48.68486" lon="6.12861">
        <ele>365</ele>
        <time>2013-04-14T10:19:22Z</time>
      </trkpt>
      <trkpt lat="48.68477" lon="6.12873">
        <ele>370</ele>
        <time>2013-04-14T10:19:24Z</time>
      </trkpt>
      <trkpt lat="48.68468" lon="6.12884">
        <ele>367</ele>
        <time>2013-04-14T10:19:26Z</time>
      </trkpt>
      <trkpt lat="48.6846" lon="6.12885">
        <ele>361</ele>
        <time>2013-04-14T10:19:28Z</time>
      </trkpt>
      <trkpt lat="48.68455" lon="6.12886">
        <ele>360</ele>
        <time>2013-04-14T10:19:30Z</time>
      </trkpt>
      <trkpt lat="48.68451" lon="6.12882">
        <ele>362</ele>
        <time>2013-04-14T10:19:32Z</time>
      </trkpt>
      <trkpt lat="48.68448" lon="6.12876">
        <ele>361</ele>
        <time>2013-04-14T10:19:34Z</time>
      </trkpt>
      <trkpt lat="48.68445" lon="6.12871">
        <ele>361</ele>
        <time>2013-04-14T10:19:36Z</time>
      </trkpt>
      <trkpt lat="48.68443" lon="6.12865">
        <ele>359</ele>
        <time>2013-04-14T10:19:38Z</time>
      </trkpt>
      <trkpt lat="48.6844" lon="6.12861">
        <ele>359</ele>
        <time>2013-04-14T10:19:40Z</time>
      </trkpt>
      <trkpt lat="48.68437" lon="6.12856">
        <ele>360</ele>
        <time>2013-04-14T10:19:42Z</time>
      </trkpt>
      <trkpt lat="48.68434" lon="6.12851">
        <ele>358</ele>
        <time>2013-04-14T10:19:44Z</time>
      </trkpt>
      <trkpt lat="48.6843" lon="6.12847">
        <ele>360</ele>
        <time>2013-04-14T10:19:46Z</time>
      </trkpt>
      <trkpt lat="48.68426" lon="6.12842">
        <ele>362</ele>
        <time>2013-04-14T10:19:48Z</time>
      </trkpt>
      <trkpt lat="48.6842" lon="6.12839">
        <ele>362</ele>
        <time>2013-04-14T10:19:50Z</time>
      </trkpt>
      <trkpt lat="48.68416" lon="6.12835">
        <ele>362</ele>
        <time>2013-04-14T10:19:52Z</time>
      </trkpt>
      <trkpt lat="48.68412" lon="6.1283">
        <ele>369</ele>
        <time>2013-04-14T10:19:54Z</time>
      </trkpt>
      <trkpt lat="48.68408" lon="6.12825">
        <ele>367</ele>
        <time>2013-04-14T10:19:56Z</time>
      </trkpt>
      <trkpt lat="48.68404" lon="6.1282">
        <ele>364</ele>
        <time>2013-04-14T10:19:58Z</time>
      </trkpt>
      <trkpt lat="48.68399" lon="6.12816">
        <ele>365</ele>
        <time>2013-04-14T10:20:00Z</time>
      </trkpt>
      <trkpt lat="48.68395" lon="6.12813">
        <ele>370</ele>
        <time>2013-04-14T10:20:02Z</time>
      </trkpt>
      <trkpt lat="48.68392" lon="6.12809">
        <ele>365</ele>
        <time>2013-04-14T10:20:04Z</time>
      </trkpt>
      <trkpt lat="48.68387" lon="6.12805">
        <ele>367</ele>
        <time>2013-04-14T10:20:06Z</time>
      </trkpt>
      <trkpt lat="48.68383" lon="6.12799">
        <ele>369</ele>
        <time>2013-04-14T10:20:08Z</time>
      </trkpt>
      <trkpt lat="48.68379" lon="6.12794">
        <ele>371</ele>
        <time>2013-04-14T10:20:10Z</time>
      </trkpt>
      <trkpt lat="48.68374" lon="6.12788">
        <ele>371</ele>
        <time>2013-04-14T10:20:12Z</time>
      </trkpt>
      <trkpt lat="48.68366" lon="6.1278">
        <ele>370</ele>
        <time>2013-04-14T10:20:16Z</time>
      </trkpt>
      <trkpt lat="48.6836" lon="6.12775">
        <ele>369</ele>
        <time>2013-04-14T10:20:18Z</time>
      </trkpt>
      <trkpt lat="48.68355" lon="6.12771">
        <ele>371</ele>
        <time>2013-04-14T10:20:20Z</time>
      </trkpt>
      <trkpt lat="48.68351" lon="6.12768">
        <ele>371</ele>
        <time>2013-04-14T10:20:22Z</time>
      </trkpt>
      <trkpt lat="48.68346" lon="6.12763">
        <ele>371</ele>
        <time>2013-04-14T10:20:24Z</time>
      </trkpt>
      <trkpt lat="48.68342" lon="6.12758">
        <ele>369</ele>
        <time>2013-04-14T10:20:26Z</time>
      </trkpt>
      <trkpt lat="48.68338" lon="6.12753">
        <ele>373</ele>
        <time>2013-04-14T10:20:28Z</time>
      </trkpt>
      <trkpt lat="48.68332" lon="6.12749">
        <ele>369</ele>
        <time>2013-04-14T10:20:30Z</time>
      </trkpt>
      <trkpt lat="48.68326" lon="6.12745">
        <ele>370</ele>
        <time>2013-04-14T10:20:32Z</time>
      </trkpt>
      <trkpt lat="48.6832" lon="6.12741">
        <ele>369</ele>
        <time>2013-04-14T10:20:34Z</time>
      </trkpt>
      <trkpt lat="48.68314" lon="6.12737">
        <ele>373</ele>
        <time>2013-04-14T10:20:36Z</time>
      </trkpt>
      <trkpt lat="48.68308" lon="6.12733">
        <ele>370</ele>
        <time>2013-04-14T10:20:38Z</time>
      </trkpt>
      <trkpt lat="48.68301" lon="6.12729">
        <ele>365</ele>
        <time>2013-04-14T10:20:40Z</time>
      </trkpt>
      <trkpt lat="48.68297" lon="6.12724">
        <ele>365</ele>
        <time>2013-04-14T10:20:42Z</time>
      </trkpt>
      <trkpt lat="48.68293" lon="6.12718">
        <ele>369</ele>
        <time>2013-04-14T10:20:44Z</time>
      </trkpt>
      <trkpt lat="48.68284" lon="6.12705">
        <ele>372</ele>
        <time>2013-04-14T10:20:46Z</time>
      </trkpt>
      <trkpt lat="48.6828" lon="6.12699">
        <ele>375</ele>
        <time>2013-04-14T10:20:47Z</time>
      </trkpt>
      <trkpt lat="48.68277" lon="6.12694">
        <ele>376</ele>
        <time>2013-04-14T10:20:48Z</time>
      </trkpt>
      <trkpt lat="48.68271" lon="6.12686">
        <ele>379</ele>
        <time>2013-04-14T10:20:50Z</time>
      </trkpt>
      <trkpt lat="48.68265" lon="6.12678">
        <ele>382</ele>
        <time>2013-04-14T10:20:52Z</time>
      </trkpt>
      <trkpt lat="48.68259" lon="6.12669">
        <ele>381</ele>
        <time>2013-04-14T10:20:54Z</time>
      </trkpt>
      <trkpt lat="48.68253" lon="6.12661">
        <ele>379</ele>
        <time>2013-04-14T10:20:56Z</time>
      </trkpt>
      <trkpt lat="48.68247" lon="6.12653">
        <ele>377</ele>
        <time>2013-04-14T10:20:58Z</time>
      </trkpt>
      <trkpt lat="48.68241" lon="6.12645">
        <ele>375</ele>
        <time>2013-04-14T10:21:00Z</time>
      </trkpt>
      <trkpt lat="48.68235" lon="6.12638">
        <ele>374</ele>
        <time>2013-04-14T10:21:02Z</time>
      </trkpt>
      <trkpt lat="48.68228" lon="6.12633">
        <ele>375</ele>
        <time>2013-04-14T10:21:04Z</time>
      </trkpt>
      <trkpt lat="48.68222" lon="6.12627">
        <ele>373</ele>
        <time>2013-04-14T10:21:06Z</time>
      </trkpt>
      <trkpt lat="48.68214" lon="6.12622">
        <ele>379</ele>
        <time>2013-04-14T10:21:08Z</time>
      </trkpt>
      <trkpt lat="48.68207" lon="6.12617">
        <ele>378</ele>
        <time>2013-04-14T10:21:10Z</time>
      </trkpt>
      <trkpt lat="48.68201" lon="6.12612">
        <ele>376</ele>
        <time>2013-04-14T10:21:12Z</time>
      </trkpt>
      <trkpt lat="48.68194" lon="6.12606">
        <ele>381</ele>
        <time>2013-04-14T10:21:14Z</time>
      </trkpt>
      <trkpt lat="48.68188" lon="6.12601">
        <ele>378</ele>
        <time>2013-04-14T10:21:16Z</time>
      </trkpt>
      <trkpt lat="48.68184" lon="6.12595">
        <ele>377</ele>
        <time>2013-04-14T10:21:18Z</time>
      </trkpt>
      <trkpt lat="48.68179" lon="6.12588">
        <ele>377</ele>
        <time>2013-04-14T10:21:20Z</time>
      </trkpt>
      <trkpt lat="48.68176" lon="6.12579">
        <ele>378</ele>
        <time>2013-04-14T10:21:22Z</time>
      </trkpt>
      <trkpt lat="48.68171" lon="6.12567">
        <ele>379</ele>
        <time>2013-04-14T10:21:24Z</time>
      </trkpt>
      <trkpt lat="48.68168" lon="6.12554">
        <ele>375</ele>
        <time>2013-04-14T10:21:26Z</time>
      </trkpt>
      <trkpt lat="48.68164" lon="6.12545">
        <ele>374</ele>
        <time>2013-04-14T10:21:28Z</time>
      </trkpt>
      <trkpt lat="48.6816" lon="6.12533">
        <ele>378</ele>
        <time>2013-04-14T10:21:30Z</time>
      </trkpt>
      <trkpt lat="48.68157" lon="6.12524">
        <ele>380</ele>
        <time>2013-04-14T10:21:32Z</time>
      </trkpt>
      <trkpt lat="48.68152" lon="6.12512">
        <ele>379</ele>
        <time>2013-04-14T10:21:34Z</time>
      </trkpt>
      <trkpt lat="48.68147" lon="6.125">
        <ele>378</ele>
        <time>2013-04-14T10:21:36Z</time>
      </trkpt>
      <trkpt lat="48.68145" lon="6.12485">
        <ele>379</ele>
        <time>2013-04-14T10:21:38Z</time>
      </trkpt>
      <trkpt lat="48.68142" lon="6.12471">
        <ele>381</ele>
        <time>2013-04-14T10:21:40Z</time>
      </trkpt>
      <trkpt lat="48.68139" lon="6.12459">
        <ele>380</ele>
        <time>2013-04-14T10:21:42Z</time>
      </trkpt>
      <trkpt lat="48.68136" lon="6.12447">
        <ele>377</ele>
        <time>2013-04-14T10:21:44Z</time>
      </trkpt>
      <trkpt lat="48.68134" lon="6.12437">
        <ele>380</ele>
        <time>2013-04-14T10:21:46Z</time>
      </trkpt>
      <trkpt lat="48.68131" lon="6.12427">
        <ele>380</ele>
        <time>2013-04-14T10:21:48Z</time>
      </trkpt>
      <trkpt lat="48.68127" lon="6.12417">
        <ele>375</ele>
        <time>2013-04-14T10:21:50Z</time>
      </trkpt>
      <trkpt lat="48.68123" lon="6.12403">
        <ele>374</ele>
        <time>2013-04-14T10:21:52Z</time>
      </trkpt>
      <trkpt lat="48.68119" lon="6.12391">
        <ele>376</ele>
        <time>2013-04-14T10:21:54Z</time>
      </trkpt>
      <trkpt lat="48.68114" lon="6.12377">
        <ele>384</ele>
        <time>2013-04-14T10:21:56Z</time>
      </trkpt>
      <trkpt lat="48.6811" lon="6.12363">
        <ele>382</ele>
        <time>2013-04-14T10:21:58Z</time>
      </trkpt>
      <trkpt lat="48.68103" lon="6.12344">
        <ele>381</ele>
        <time>2013-04-14T10:22:00Z</time>
      </trkpt>
      <trkpt lat="48.68097" lon="6.1233">
        <ele>377</ele>
        <time>2013-04-14T10:22:02Z</time>
      </trkpt>
      <trkpt lat="48.68089" lon="6.12315">
        <ele>377</ele>
        <time>2013-04-14T10:22:04Z</time>
      </trkpt>
      <trkpt lat="48.68084" lon="6.123">
        <ele>376</ele>
        <time>2013-04-14T10:22:06Z</time>
      </trkpt>
      <trkpt lat="48.6808" lon="6.12286">
        <ele>375</ele>
        <time>2013-04-14T10:22:08Z</time>
      </trkpt>
      <trkpt lat="48.68075" lon="6.12271">
        <ele>376</ele>
        <time>2013-04-14T10:22:10Z</time>
      </trkpt>
      <trkpt lat="48.68071" lon="6.12258">
        <ele>376</ele>
        <time>2013-04-14T10:22:12Z</time>
      </trkpt>
      <trkpt lat="48.68068" lon="6.12242">
        <ele>372</ele>
        <time>2013-04-14T10:22:14Z</time>
      </trkpt>
      <trkpt lat="48.68065" lon="6.12231">
        <ele>370</ele>
        <time>2013-04-14T10:22:16Z</time>
      </trkpt>
      <trkpt lat="48.6806" lon="6.12221">
        <ele>369</ele>
        <time>2013-04-14T10:22:18Z</time>
      </trkpt>
      <trkpt lat="48.68054" lon="6.1221">
        <ele>369</ele>
        <time>2013-04-14T10:22:20Z</time>
      </trkpt>
      <trkpt lat="48.6805" lon="6.12196">
        <ele>369</ele>
        <time>2013-04-14T10:22:22Z</time>
      </trkpt>
      <trkpt lat="48.68046" lon="6.12182">
        <ele>368</ele>
        <time>2013-04-14T10:22:24Z</time>
      </trkpt>
      <trkpt lat="48.68042" lon="6.12171">
        <ele>366</ele>
        <time>2013-04-14T10:22:26Z</time>
      </trkpt>
      <trkpt lat="48.68037" lon="6.12158">
        <ele>364</ele>
        <time>2013-04-14T10:22:28Z</time>
      </trkpt>
      <trkpt lat="48.68034" lon="6.12144">
        <ele>359</ele>
        <time>2013-04-14T10:22:30Z</time>
      </trkpt>
      <trkpt lat="48.6803" lon="6.12132">
        <ele>356</ele>
        <time>2013-04-14T10:22:32Z</time>
      </trkpt>
      <trkpt lat="48.68028" lon="6.1212">
        <ele>355</ele>
        <time>2013-04-14T10:22:34Z</time>
      </trkpt>
      <trkpt lat="48.68026" lon="6.12113">
        <ele>352</ele>
        <time>2013-04-14T10:22:36Z</time>
      </trkpt>
      <trkpt lat="48.68023" lon="6.12107">
        <ele>353</ele>
        <time>2013-04-14T10:22:38Z</time>
      </trkpt>
      <trkpt lat="48.68018" lon="6.12103">
        <ele>352</ele>
        <time>2013-04-14T10:22:40Z</time>
      </trkpt>
      <trkpt lat="48.68011" lon="6.12101">
        <ele>351</ele>
        <time>2013-04-14T10:22:42Z</time>
      </trkpt>
      <trkpt lat="48.68007" lon="6.12102">
        <ele>352</ele>
        <time>2013-04-14T10:22:44Z</time>
      </trkpt>
      <trkpt lat="48.68001" lon="6.12104">
        <ele>360</ele>
        <time>2013-04-14T10:22:46Z</time>
      </trkpt>
      <trkpt lat="48.67996" lon="6.12109">
        <ele>357</ele>
        <time>2013-04-14T10:22:48Z</time>
      </trkpt>
      <trkpt lat="48.67992" lon="6.12112">
        <ele>359</ele>
        <time>2013-04-14T10:22:50Z</time>
      </trkpt>
      <trkpt lat="48.67986" lon="6.12115">
        <ele>359</ele>
        <time>2013-04-14T10:22:52Z</time>
      </trkpt>
      <trkpt lat="48.6798" lon="6.12118">
        <ele>358</ele>
        <time>2013-04-14T10:22:54Z</time>
      </trkpt>
      <trkpt lat="48.67976" lon="6.1212">
        <ele>359</ele>
        <time>2013-04-14T10:22:56Z</time>
      </trkpt>
      <trkpt lat="48.67973" lon="6.12121">
        <ele>360</ele>
        <time>2013-04-14T10:22:58Z</time>
      </trkpt>
      <trkpt lat="48.67968" lon="6.12123">
        <ele>368</ele>
        <time>2013-04-14T10:23:00Z</time>
      </trkpt>
      <trkpt lat="48.67963" lon="6.12124">
        <ele>372</ele>
        <time>2013-04-14T10:23:02Z</time>
      </trkpt>
      <trkpt lat="48.6796" lon="6.12124">
        <ele>369</ele>
        <time>2013-04-14T10:23:04Z</time>
      </trkpt>
      <trkpt lat="48.67952" lon="6.12128">
        <ele>367</ele>
        <time>2013-04-14T10:23:08Z</time>
      </trkpt>
      <trkpt lat="48.67946" lon="6.1213">
        <ele>366</ele>
        <time>2013-04-14T10:23:10Z</time>
      </trkpt>
      <trkpt lat="48.67942" lon="6.12133">
        <ele>371</ele>
        <time>2013-04-14T10:23:12Z</time>
      </trkpt>
      <trkpt lat="48.67937" lon="6.12135">
        <ele>367</ele>
        <time>2013-04-14T10:23:14Z</time>
      </trkpt>
      <trkpt lat="48.67933" lon="6.12137">
        <ele>371</ele>
        <time>2013-04-14T10:23:16Z</time>
      </trkpt>
      <trkpt lat="48.67928" lon="6.12141">
        <ele>358</ele>
        <time>2013-04-14T10:23:18Z</time>
      </trkpt>
      <trkpt lat="48.67922" lon="6.12142">
        <ele>363</ele>
        <time>2013-04-14T10:23:20Z</time>
      </trkpt>
      <trkpt lat="48.67917" lon="6.12141">
        <ele>364</ele>
        <time>2013-04-14T10:23:22Z</time>
      </trkpt>
      <trkpt lat="48.67911" lon="6.12142">
        <ele>369</ele>
        <time>2013-04-14T10:23:24Z</time>
      </trkpt>
      <trkpt lat="48.67905" lon="6.12147">
        <ele>378</ele>
        <time>2013-04-14T10:23:26Z</time>
      </trkpt>
      <trkpt lat="48.67901" lon="6.12148">
        <ele>380</ele>
        <time>2013-04-14T10:23:28Z</time>
      </trkpt>
      <trkpt lat="48.67896" lon="6.12149">
        <ele>378</ele>
        <time>2013-04-14T10:23:30Z</time>
      </trkpt>
      <trkpt lat="48.67891" lon="6.12152">
        <ele>379</ele>
        <time>2013-04-14T10:23:32Z</time>
      </trkpt>
      <trkpt lat="48.67886" lon="6.12152">
        <ele>372</ele>
        <time>2013-04-14T10:23:34Z</time>
      </trkpt>
      <trkpt lat="48.6788" lon="6.12151">
        <ele>375</ele>
        <time>2013-04-14T10:23:36Z</time>
      </trkpt>
      <trkpt lat="48.67875" lon="6.12151">
        <ele>376</ele>
        <time>2013-04-14T10:23:38Z</time>
      </trkpt>
      <trkpt lat="48.67871" lon="6.12153">
        <ele>377</ele>
        <time>2013-04-14T10:23:40Z</time>
      </trkpt>
      <trkpt lat="48.67867" lon="6.12155">
        <ele>375</ele>
        <time>2013-04-14T10:23:42Z</time>
      </trkpt>
      <trkpt lat="48.67863" lon="6.12154">
        <ele>378</ele>
        <time>2013-04-14T10:23:44Z</time>
      </trkpt>
      <trkpt lat="48.67857" lon="6.12153">
        <ele>380</ele>
        <time>2013-04-14T10:23:46Z</time>
      </trkpt>
      <trkpt lat="48.67852" lon="6.12153">
        <ele>374</ele>
        <time>2013-04-14T10:23:48Z</time>
      </trkpt>
      <trkpt lat="48.67846" lon="6.12156">
        <ele>378</ele>
        <time>2013-04-14T10:23:50Z</time>
      </trkpt>
      <trkpt lat="48.67843" lon="6.1216">
        <ele>381</ele>
        <time>2013-04-14T10:23:52Z</time>
      </trkpt>
      <trkpt lat="48.67837" lon="6.12162">
        <ele>381</ele>
        <time>2013-04-14T10:23:54Z</time>
      </trkpt>
      <trkpt lat="48.67833" lon="6.12164">
        <ele>376</ele>
        <time>2013-04-14T10:23:56Z</time>
      </trkpt>
      <trkpt lat="48.67827" lon="6.12165">
        <ele>385</ele>
        <time>2013-04-14T10:23:58Z</time>
      </trkpt>
      <trkpt lat="48.67822" lon="6.12166">
        <ele>388</ele>
        <time>2013-04-14T10:24:00Z</time>
      </trkpt>
      <trkpt lat="48.67817" lon="6.12166">
        <ele>387</ele>
        <time>2013-04-14T10:24:02Z</time>
      </trkpt>
      <trkpt lat="48.67811" lon="6.12164">
        <ele>381</ele>
        <time>2013-04-14T10:24:04Z</time>
      </trkpt>
      <trkpt lat="48.67807" lon="6.12163">
        <ele>376</ele>
        <time>2013-04-14T10:24:06Z</time>
      </trkpt>
      <trkpt lat="48.67801" lon="6.12161">
        <ele>365</ele>
        <time>2013-04-14T10:24:08Z</time>
      </trkpt>
      <trkpt lat="48.67793" lon="6.1216">
        <ele>366</ele>
        <time>2013-04-14T10:24:10Z</time>
      </trkpt>
      <trkpt lat="48.67785" lon="6.12159">
        <ele>374</ele>
        <time>2013-04-14T10:24:12Z</time>
      </trkpt>
      <trkpt lat="48.67775" lon="6.12159">
        <ele>367</ele>
        <time>2013-04-14T10:24:14Z</time>
      </trkpt>
      <trkpt lat="48.67766" lon="6.1216">
        <ele>368</ele>
        <time>2013-04-14T10:24:16Z</time>
      </trkpt>
      <trkpt lat="48.67754" lon="6.12163">
        <ele>368</ele>
        <time>2013-04-14T10:24:18Z</time>
      </trkpt>
      <trkpt lat="48.67744" lon="6.12166">
        <ele>364</ele>
        <time>2013-04-14T10:24:20Z</time>
      </trkpt>
      <trkpt lat="48.67736" lon="6.12169">
        <ele>365</ele>
        <time>2013-04-14T10:24:22Z</time>
      </trkpt>
      <trkpt lat="48.67727" lon="6.12171">
        <ele>369</ele>
        <time>2013-04-14T10:24:24Z</time>
      </trkpt>
      <trkpt lat="48.67722" lon="6.12172">
        <ele>365</ele>
        <time>2013-04-14T10:24:26Z</time>
      </trkpt>
      <trkpt lat="48.67717" lon="6.12167">
        <ele>366</ele>
        <time>2013-04-14T10:24:28Z</time>
      </trkpt>
      <trkpt lat="48.67712" lon="6.1216">
        <ele>373</ele>
        <time>2013-04-14T10:24:30Z</time>
      </trkpt>
      <trkpt lat="48.67708" lon="6.12153">
        <ele>371</ele>
        <time>2013-04-14T10:24:32Z</time>
      </trkpt>
      <trkpt lat="48.67702" lon="6.12146">
        <ele>374</ele>
        <time>2013-04-14T10:24:34Z</time>
      </trkpt>
      <trkpt lat="48.67697" lon="6.12143">
        <ele>365</ele>
        <time>2013-04-14T10:24:36Z</time>
      </trkpt>
      <trkpt lat="48.6769" lon="6.12142">
        <ele>352</ele>
        <time>2013-04-14T10:24:38Z</time>
      </trkpt>
      <trkpt lat="48.67683" lon="6.12142">
        <ele>346</ele>
        <time>2013-04-14T10:24:40Z</time>
      </trkpt>
      <trkpt lat="48.67678" lon="6.12143">
        <ele>351</ele>
        <time>2013-04-14T10:24:42Z</time>
      </trkpt>
      <trkpt lat="48.67674" lon="6.12146">
        <ele>353</ele>
        <time>2013-04-14T10:24:44Z</time>
      </trkpt>
      <trkpt lat="48.67669" lon="6.12147">
        <ele>353</ele>
        <time>2013-04-14T10:24:46Z</time>
      </trkpt>
      <trkpt lat="48.67663" lon="6.12149">
        <ele>349</ele>
        <time>2013-04-14T10:24:48Z</time>
      </trkpt>
      <trkpt lat="48.67656" lon="6.12151">
        <ele>350</ele>
        <time>2013-04-14T10:24:50Z</time>
      </trkpt>
      <trkpt lat="48.67648" lon="6.12153">
        <ele>344</ele>
        <time>2013-04-14T10:24:52Z</time>
      </trkpt>
      <trkpt lat="48.67643" lon="6.12151">
        <ele>347</ele>
        <time>2013-04-14T10:24:54Z</time>
      </trkpt>
      <trkpt lat="48.67637" lon="6.12146">
        <ele>348</ele>
        <time>2013-04-14T10:24:56Z</time>
      </trkpt>
      <trkpt lat="48.67632" lon="6.12145">
        <ele>350</ele>
        <time>2013-04-14T10:24:58Z</time>
      </trkpt>
      <trkpt lat="48.67625" lon="6.12146">
        <ele>357</ele>
        <time>2013-04-14T10:25:00Z</time>
      </trkpt>
      <trkpt lat="48.67619" lon="6.12148">
        <ele>353</ele>
        <time>2013-04-14T10:25:02Z</time>
      </trkpt>
      <trkpt lat="48.67613" lon="6.12149">
        <ele>356</ele>
        <time>2013-04-14T10:25:04Z</time>
      </trkpt>
      <trkpt lat="48.67607" lon="6.12149">
        <ele>356</ele>
        <time>2013-04-14T10:25:06Z</time>
      </trkpt>
      <trkpt lat="48.67601" lon="6.12149">
        <ele>352</ele>
        <time>2013-04-14T10:25:08Z</time>
      </trkpt>
      <trkpt lat="48.67584" lon="6.12148">
        <ele>341</ele>
        <time>2013-04-14T10:25:16Z</time>
      </trkpt>
      <trkpt lat="48.67578" lon="6.12152">
        <ele>343</ele>
        <time>2013-04-14T10:25:18Z</time>
      </trkpt>
      <trkpt lat="48.67573" lon="6.12155">
        <ele>341</ele>
        <time>2013-04-14T10:25:20Z</time>
      </trkpt>
      <trkpt lat="48.67569" lon="6.12159">
        <ele>342</ele>
        <time>2013-04-14T10:25:22Z</time>
      </trkpt>
      <trkpt lat="48.67561" lon="6.12164">
        <ele>349</ele>
        <time>2013-04-14T10:25:26Z</time>
      </trkpt>
      <trkpt lat="48.67556" lon="6.12165">
        <ele>350</ele>
        <time>2013-04-14T10:25:28Z</time>
      </trkpt>
      <trkpt lat="48.67548" lon="6.12162">
        <ele>363</ele>
        <time>2013-04-14T10:25:34Z</time>
      </trkpt>
      <trkpt lat="48.67543" lon="6.12146">
        <ele>370</ele>
        <time>2013-04-14T10:25:38Z</time>
      </trkpt>
      <trkpt lat="48.67537" lon="6.1214">
        <ele>374</ele>
        <time>2013-04-14T10:25:40Z</time>
      </trkpt>
      <trkpt lat="48.67529" lon="6.12139">
        <ele>362</ele>
        <time>2013-04-14T10:25:42Z</time>
      </trkpt>
      <trkpt lat="48.67522" lon="6.12139">
        <ele>357</ele>
        <time>2013-04-14T10:25:44Z</time>
      </trkpt>
      <trkpt lat="48.67515" lon="6.12139">
        <ele>352</ele>
        <time>2013-04-14T10:25:46Z</time>
      </trkpt>
      <trkpt lat="48.67508" lon="6.12139">
        <ele>349</ele>
        <time>2013-04-14T10:25:48Z</time>
      </trkpt>
      <trkpt lat="48.67502" lon="6.1214">
        <ele>349</ele>
        <time>2013-04-14T10:25:50Z</time>
      </trkpt>
      <trkpt lat="48.67497" lon="6.12141">
        <ele>348</ele>
        <time>2013-04-14T10:25:52Z</time>
      </trkpt>
      <trkpt lat="48.67491" lon="6.12142">
        <ele>348</ele>
        <time>2013-04-14T10:25:54Z</time>
      </trkpt>
      <trkpt lat="48.67485" lon="6.12144">
        <ele>354</ele>
        <time>2013-04-14T10:25:56Z</time>
      </trkpt>
      <trkpt lat="48.6748" lon="6.12146">
        <ele>354</ele>
        <time>2013-04-14T10:25:58Z</time>
      </trkpt>
      <trkpt lat="48.67474" lon="6.12147">
        <ele>354</ele>
        <time>2013-04-14T10:26:00Z</time>
      </trkpt>
      <trkpt lat="48.67468" lon="6.1215">
        <ele>351</ele>
        <time>2013-04-14T10:26:02Z</time>
      </trkpt>
      <trkpt lat="48.67463" lon="6.12152">
        <ele>351</ele>
        <time>2013-04-14T10:26:04Z</time>
      </trkpt>
      <trkpt lat="48.67457" lon="6.12154">
        <ele>350</ele>
        <time>2013-04-14T10:26:06Z</time>
      </trkpt>
      <trkpt lat="48.67453" lon="6.12157">
        <ele>350</ele>
        <time>2013-04-14T10:26:08Z</time>
      </trkpt>
      <trkpt lat="48.67447" lon="6.1216">
        <ele>351</ele>
        <time>2013-04-14T10:26:10Z</time>
      </trkpt>
      <trkpt lat="48.67441" lon="6.12161">
        <ele>351</ele>
        <time>2013-04-14T10:26:12Z</time>
      </trkpt>
      <trkpt lat="48.67435" lon="6.12163">
        <ele>350</ele>
        <time>2013-04-14T10:26:14Z</time>
      </trkpt>
      <trkpt lat="48.67429" lon="6.12166">
        <ele>351</ele>
        <time>2013-04-14T10:26:16Z</time>
      </trkpt>
      <trkpt lat="48.67423" lon="6.12168">
        <ele>350</ele>
        <time>2013-04-14T10:26:18Z</time>
      </trkpt>
      <trkpt lat="48.67418" lon="6.12171">
        <ele>348</ele>
        <time>2013-04-14T10:26:20Z</time>
      </trkpt>
      <trkpt lat="48.67412" lon="6.12171">
        <ele>350</ele>
        <time>2013-04-14T10:26:22Z</time>
      </trkpt>
      <trkpt lat="48.67407" lon="6.12168">
        <ele>354</ele>
        <time>2013-04-14T10:26:24Z</time>
      </trkpt>
      <trkpt lat="48.67405" lon="6.12163">
        <ele>353</ele>
        <time>2013-04-14T10:26:26Z</time>
      </trkpt>
      <trkpt lat="48.67403" lon="6.12156">
        <ele>353</ele>
        <time>2013-04-14T10:26:28Z</time>
      </trkpt>
      <trkpt lat="48.67402" lon="6.1215">
        <ele>352</ele>
        <time>2013-04-14T10:26:30Z</time>
      </trkpt>
      <trkpt lat="48.674" lon="6.12145">
        <ele>351</ele>
        <time>2013-04-14T10:26:32Z</time>
      </trkpt>
      <trkpt lat="48.67398" lon="6.1214">
        <ele>352</ele>
        <time>2013-04-14T10:26:34Z</time>
      </trkpt>
      <trkpt lat="48.67396" lon="6.12135">
        <ele>355</ele>
        <time>2013-04-14T10:26:36Z</time>
      </trkpt>
      <trkpt lat="48.67395" lon="6.12131">
        <ele>357</ele>
        <time>2013-04-14T10:26:38Z</time>
      </trkpt>
      <trkpt lat="48.67394" lon="6.12127">
        <ele>359</ele>
        <time>2013-04-14T10:26:40Z</time>
      </trkpt>
      <trkpt lat="48.6739" lon="6.12106">
        <ele>359</ele>
        <time>2013-04-14T10:26:46Z</time>
      </trkpt>
      <trkpt lat="48.67389" lon="6.12094">
        <ele>355</ele>
        <time>2013-04-14T10:26:48Z</time>
      </trkpt>
      <trkpt lat="48.67389" lon="6.12081">
        <ele>355</ele>
        <time>2013-04-14T10:26:50Z</time>
      </trkpt>
      <trkpt lat="48.67386" lon="6.12069">
        <ele>355</ele>
        <time>2013-04-14T10:26:52Z</time>
      </trkpt>
      <trkpt lat="48.67387" lon="6.12059">
        <ele>356</ele>
        <time>2013-04-14T10:26:54Z</time>
      </trkpt>
      <trkpt lat="48.67388" lon="6.12048">
        <ele>358</ele>
        <time>2013-04-14T10:26:56Z</time>
      </trkpt>
      <trkpt lat="48.6739" lon="6.12033">
        <ele>357</ele>
        <time>2013-04-14T10:26:58Z</time>
      </trkpt>
      <trkpt lat="48.6739" lon="6.12018">
        <ele>362</ele>
        <time>2013-04-14T10:27:00Z</time>
      </trkpt>
      <trkpt lat="48.6739" lon="6.12001">
        <ele>359</ele>
        <time>2013-04-14T10:27:02Z</time>
      </trkpt>
      <trkpt lat="48.67392" lon="6.11988">
        <ele>358</ele>
        <time>2013-04-14T10:27:04Z</time>
      </trkpt>
      <trkpt lat="48.67395" lon="6.11974">
        <ele>355</ele>
        <time>2013-04-14T10:27:06Z</time>
      </trkpt>
      <trkpt lat="48.67396" lon="6.11969">
        <ele>355</ele>
        <time>2013-04-14T10:27:08Z</time>
      </trkpt>
      <trkpt lat="48.67397" lon="6.11963">
        <ele>358</ele>
        <time>2013-04-14T10:27:10Z</time>
      </trkpt>
      <trkpt lat="48.67396" lon="6.11956">
        <ele>357</ele>
        <time>2013-04-14T10:27:12Z</time>
      </trkpt>
      <trkpt lat="48.67395" lon="6.11946">
        <ele>358</ele>
        <time>2013-04-14T10:27:14Z</time>
      </trkpt>
      <trkpt lat="48.67395" lon="6.11939">
        <ele>356</ele>
        <time>2013-04-14T10:27:16Z</time>
      </trkpt>
      <trkpt lat="48.67397" lon="6.11929">
        <ele>361</ele>
        <time>2013-04-14T10:27:18Z</time>
      </trkpt>
      <trkpt lat="48.674" lon="6.11919">
        <ele>360</ele>
        <time>2013-04-14T10:27:20Z</time>
      </trkpt>
      <trkpt lat="48.67403" lon="6.11909">
        <ele>364</ele>
        <time>2013-04-14T10:27:22Z</time>
      </trkpt>
      <trkpt lat="48.67407" lon="6.11898">
        <ele>367</ele>
        <time>2013-04-14T10:27:24Z</time>
      </trkpt>
      <trkpt lat="48.67409" lon="6.11889">
        <ele>364</ele>
        <time>2013-04-14T10:27:26Z</time>
      </trkpt>
      <trkpt lat="48.6741" lon="6.1188">
        <ele>362</ele>
        <time>2013-04-14T10:27:28Z</time>
      </trkpt>
      <trkpt lat="48.6741" lon="6.11872">
        <ele>365</ele>
        <time>2013-04-14T10:27:30Z</time>
      </trkpt>
      <trkpt lat="48.67413" lon="6.11862">
        <ele>363</ele>
        <time>2013-04-14T10:27:32Z</time>
      </trkpt>
      <trkpt lat="48.67415" lon="6.11853">
        <ele>366</ele>
        <time>2013-04-14T10:27:34Z</time>
      </trkpt>
      <trkpt lat="48.67415" lon="6.11844">
        <ele>370</ele>
        <time>2013-04-14T10:27:36Z</time>
      </trkpt>
      <trkpt lat="48.67414" lon="6.11833">
        <ele>367</ele>
        <time>2013-04-14T10:27:38Z</time>
      </trkpt>
      <trkpt lat="48.67415" lon="6.11823">
        <ele>367</ele>
        <time>2013-04-14T10:27:40Z</time>
      </trkpt>
      <trkpt lat="48.67415" lon="6.11814">
        <ele>372</ele>
        <time>2013-04-14T10:27:42Z</time>
      </trkpt>
      <trkpt lat="48.67415" lon="6.11806">
        <ele>363</ele>
        <time>2013-04-14T10:27:44Z</time>
      </trkpt>
      <trkpt lat="48.67416" lon="6.11794">
        <ele>363</ele>
        <time>2013-04-14T10:27:46Z</time>
      </trkpt>
      <trkpt lat="48.6742" lon="6.11779">
        <ele>362</ele>
        <time>2013-04-14T10:27:48Z</time>
      </trkpt>
      <trkpt lat="48.67423" lon="6.11763">
        <ele>363</ele>
        <time>2013-04-14T10:27:50Z</time>
      </trkpt>
      <trkpt lat="48.67423" lon="6.11752">
        <ele>363</ele>
        <time>2013-04-14T10:27:52Z</time>
      </trkpt>
      <trkpt lat="48.67423" lon="6.11741">
        <ele>366</ele>
        <time>2013-04-14T10:27:54Z</time>
      </trkpt>
      <trkpt lat="48.67423" lon="6.11729">
        <ele>370</ele>
        <time>2013-04-14T10:27:56Z</time>
      </trkpt>
      <trkpt lat="48.67422" lon="6.11718">
        <ele>367</ele>
        <time>2013-04-14T10:27:58Z</time>
      </trkpt>
      <trkpt lat="48.67422" lon="6.11706">
        <ele>362</ele>
        <time>2013-04-14T10:28:00Z</time>
      </trkpt>
      <trkpt lat="48.67422" lon="6.11696">
        <ele>364</ele>
        <time>2013-04-14T10:28:02Z</time>
      </trkpt>
      <trkpt lat="48.67423" lon="6.11687">
        <ele>364</ele>
        <time>2013-04-14T10:28:04Z</time>
      </trkpt>
      <trkpt lat="48.67424" lon="6.11676">
        <ele>365</ele>
        <time>2013-04-14T10:28:06Z</time>
      </trkpt>
      <trkpt lat="48.67426" lon="6.11667">
        <ele>363</ele>
        <time>2013-04-14T10:28:08Z</time>
      </trkpt>
      <trkpt lat="48.67426" lon="6.11656">
        <ele>366</ele>
        <time>2013-04-14T10:28:10Z</time>
      </trkpt>
      <trkpt lat="48.67427" lon="6.11644">
        <ele>366</ele>
        <time>2013-04-14T10:28:12Z</time>
      </trkpt>
      <trkpt lat="48.67428" lon="6.11632">
        <ele>363</ele>
        <time>2013-04-14T10:28:14Z</time>
      </trkpt>
      <trkpt lat="48.67429" lon="6.11619">
        <ele>368</ele>
        <time>2013-04-14T10:28:16Z</time>
      </trkpt>
      <trkpt lat="48.67429" lon="6.11608">
        <ele>370</ele>
        <time>2013-04-14T10:28:18Z</time>
      </trkpt>
      <trkpt lat="48.6743" lon="6.11597">
        <ele>370</ele>
        <time>2013-04-14T10:28:20Z</time>
      </trkpt>
      <trkpt lat="48.6743" lon="6.11589">
        <ele>371</ele>
        <time>2013-04-14T10:28:22Z</time>
      </trkpt>
      <trkpt lat="48.67431" lon="6.11577">
        <ele>367</ele>
        <time>2013-04-14T10:28:24Z</time>
      </trkpt>
      <trkpt lat="48.67432" lon="6.11567">
        <ele>368</ele>
        <time>2013-04-14T10:28:26Z</time>
      </trkpt>
      <trkpt lat="48.67432" lon="6.11556">
        <ele>372</ele>
        <time>2013-04-14T10:28:28Z</time>
      </trkpt>
      <trkpt lat="48.67435" lon="6.11547">
        <ele>364</ele>
        <time>2013-04-14T10:28:30Z</time>
      </trkpt>
      <trkpt lat="48.67439" lon="6.11536">
        <ele>361</ele>
        <time>2013-04-14T10:28:34Z</time>
      </trkpt>
      <trkpt lat="48.67436" lon="6.11525">
        <ele>353</ele>
        <time>2013-04-14T10:28:44Z</time>
      </trkpt>
      <trkpt lat="48.67437" lon="6.11524">
        <ele>346</ele>
        <time>2013-04-14T10:28:48Z</time>
      </trkpt>
      <trkpt lat="48.67437" lon="6.1152">
        <ele>346</ele>
        <time>2013-04-14T10:28:52Z</time>
      </trkpt>
      <trkpt lat="48.67437" lon="6.11516">
        <ele>346</ele>
        <time>2013-04-14T10:28:56Z</time>
      </trkpt>
      <trkpt lat="48.67436" lon="6.11514">
        <ele>344</ele>
        <time>2013-04-14T10:29:00Z</time>
      </trkpt>
      <trkpt lat="48.67436" lon="6.11511">
        <ele>342</ele>
        <time>2013-04-14T10:29:02Z</time>
      </trkpt>
      <trkpt lat="48.67437" lon="6.1151">
        <ele>342</ele>
        <time>2013-04-14T10:29:04Z</time>
      </trkpt>
      <trkpt lat="48.67438" lon="6.11508">
        <ele>340</ele>
        <time>2013-04-14T10:29:10Z</time>
      </trkpt>
      <trkpt lat="48.67438" lon="6.11504">
        <ele>342</ele>
        <time>2013-04-14T10:29:12Z</time>
      </trkpt>
      <trkpt lat="48.67437" lon="6.11501">
        <ele>343</ele>
        <time>2013-04-14T10:29:14Z</time>
      </trkpt>
      <trkpt lat="48.67437" lon="6.11499">
        <ele>343</ele>
        <time>2013-04-14T10:29:18Z</time>
      </trkpt>
      <trkpt lat="48.67437" lon="6.11498">
        <ele>342</ele>
        <time>2013-04-14T10:29:22Z</time>
      </trkpt>
      <trkpt lat="48.67436" lon="6.11495">
        <ele>342</ele>
        <time>2013-04-14T10:29:26Z</time>
      </trkpt>
      <trkpt lat="48.67435" lon="6.11492">
        <ele>340</ele>
        <time>2013-04-14T10:29:28Z</time>
      </trkpt>
      <trkpt lat="48.67434" lon="6.11484">
        <ele>340</ele>
        <time>2013-04-14T10:29:32Z</time>
      </trkpt>
      <trkpt lat="48.67434" lon="6.11482">
        <ele>339</ele>
        <time>2013-04-14T10:29:36Z</time>
      </trkpt>
      <trkpt lat="48.67436" lon="6.11477">
        <ele>336</ele>
        <time>2013-04-14T10:29:40Z</time>
      </trkpt>
      <trkpt lat="48.6744" lon="6.11464">
        <ele>328</ele>
        <time>2013-04-14T10:29:58Z</time>
      </trkpt>
      <trkpt lat="48.67442" lon="6.11461">
        <ele>327</ele>
        <time>2013-04-14T10:30:02Z</time>
      </trkpt>
      <trkpt lat="48.67443" lon="6.11457">
        <ele>326</ele>
        <time>2013-04-14T10:30:04Z</time>
      </trkpt>
      <trkpt lat="48.67442" lon="6.11455">
        <ele>323</ele>
        <time>2013-04-14T10:30:06Z</time>
      </trkpt>
      <trkpt lat="48.67441" lon="6.11453">
        <ele>314</ele>
        <time>2013-04-14T10:30:10Z</time>
      </trkpt>
      <trkpt lat="48.67448" lon="6.11441">
        <ele>322</ele>
        <time>2013-04-14T10:30:54Z</time>
      </trkpt>
      <trkpt lat="48.67448" lon="6.11438">
        <ele>320</ele>
        <time>2013-04-14T10:30:56Z</time>
      </trkpt>
      <trkpt lat="48.67448" lon="6.11433">
        <ele>323</ele>
        <time>2013-04-14T10:30:58Z</time>
      </trkpt>
      <trkpt lat="48.6745" lon="6.11433">
        <ele>330</ele>
        <time>2013-04-14T10:31:02Z</time>
      </trkpt>
      <trkpt lat="48.67455" lon="6.11434">
        <ele>330</ele>
        <time>2013-04-14T10:31:04Z</time>
      </trkpt>
      <trkpt lat="48.6746" lon="6.11433">
        <ele>330</ele>
        <time>2013-04-14T10:31:06Z</time>
      </trkpt>
      <trkpt lat="48.67465" lon="6.11433">
        <ele>333</ele>
        <time>2013-04-14T10:31:08Z</time>
      </trkpt>
      <trkpt lat="48.6747" lon="6.11433">
        <ele>330</ele>
        <time>2013-04-14T10:31:10Z</time>
      </trkpt>
      <trkpt lat="48.67476" lon="6.11431">
        <ele>330</ele>
        <time>2013-04-14T10:31:12Z</time>
      </trkpt>
      <trkpt lat="48.67481" lon="6.1143">
        <ele>328</ele>
        <time>2013-04-14T10:31:14Z</time>
      </trkpt>
      <trkpt lat="48.67487" lon="6.11431">
        <ele>327</ele>
        <time>2013-04-14T10:31:16Z</time>
      </trkpt>
      <trkpt lat="48.6749" lon="6.11431">
        <ele>325</ele>
        <time>2013-04-14T10:31:18Z</time>
      </trkpt>
      <trkpt lat="48.67497" lon="6.11428">
        <ele>325</ele>
        <time>2013-04-14T10:31:20Z</time>
      </trkpt>
      <trkpt lat="48.67505" lon="6.11426">
        <ele>322</ele>
        <time>2013-04-14T10:31:22Z</time>
      </trkpt>
      <trkpt lat="48.67512" lon="6.11427">
        <ele>319</ele>
        <time>2013-04-14T10:31:24Z</time>
      </trkpt>
      <trkpt lat="48.67518" lon="6.11428">
        <ele>318</ele>
        <time>2013-04-14T10:31:26Z</time>
      </trkpt>
      <trkpt lat="48.67524" lon="6.11427">
        <ele>318</ele>
        <time>2013-04-14T10:31:28Z</time>
      </trkpt>
      <trkpt lat="48.67531" lon="6.11426">
        <ele>318</ele>
        <time>2013-04-14T10:31:30Z</time>
      </trkpt>
      <trkpt lat="48.67538" lon="6.11425">
        <ele>319</ele>
        <time>2013-04-14T10:31:32Z</time>
      </trkpt>
      <trkpt lat="48.67545" lon="6.11424">
        <ele>318</ele>
        <time>2013-04-14T10:31:34Z</time>
      </trkpt>
      <trkpt lat="48.67552" lon="6.11423">
        <ele>321</ele>
        <time>2013-04-14T10:31:36Z</time>
      </trkpt>
      <trkpt lat="48.6756" lon="6.11425">
        <ele>323</ele>
        <time>2013-04-14T10:31:38Z</time>
      </trkpt>
      <trkpt lat="48.67566" lon="6.11424">
        <ele>323</ele>
        <time>2013-04-14T10:31:40Z</time>
      </trkpt>
      <trkpt lat="48.67576" lon="6.11422">
        <ele>321</ele>
        <time>2013-04-14T10:31:44Z</time>
      </trkpt>
      <trkpt lat="48.67582" lon="6.11421">
        <ele>321</ele>
        <time>2013-04-14T10:31:46Z</time>
      </trkpt>
      <trkpt lat="48.67589" lon="6.11421">
        <ele>323</ele>
        <time>2013-04-14T10:31:48Z</time>
      </trkpt>
      <trkpt lat="48.67597" lon="6.1142">
        <ele>319</ele>
        <time>2013-04-14T10:31:50Z</time>
      </trkpt>
      <trkpt lat="48.67605" lon="6.11419">
        <ele>320</ele>
        <time>2013-04-14T10:31:52Z</time>
      </trkpt>
      <trkpt lat="48.67614" lon="6.11419">
        <ele>322</ele>
        <time>2013-04-14T10:31:54Z</time>
      </trkpt>
      <trkpt lat="48.67626" lon="6.11418">
        <ele>323</ele>
        <time>2013-04-14T10:31:56Z</time>
      </trkpt>
      <trkpt lat="48.67637" lon="6.11415">
        <ele>326</ele>
        <time>2013-04-14T10:31:58Z</time>
      </trkpt>
      <trkpt lat="48.67645" lon="6.11412">
        <ele>331</ele>
        <time>2013-04-14T10:32:00Z</time>
      </trkpt>
      <trkpt lat="48.67653" lon="6.11411">
        <ele>333</ele>
        <time>2013-04-14T10:32:02Z</time>
      </trkpt>
      <trkpt lat="48.67659" lon="6.11417">
        <ele>327</ele>
        <time>2013-04-14T10:32:04Z</time>
      </trkpt>
      <trkpt lat="48.67665" lon="6.11418">
        <ele>326</ele>
        <time>2013-04-14T10:32:06Z</time>
      </trkpt>
      <trkpt lat="48.67669" lon="6.11422">
        <ele>327</ele>
        <time>2013-04-14T10:32:08Z</time>
      </trkpt>
      <trkpt lat="48.67674" lon="6.11425">
        <ele>326</ele>
        <time>2013-04-14T10:32:10Z</time>
      </trkpt>
      <trkpt lat="48.67679" lon="6.1143">
        <ele>326</ele>
        <time>2013-04-14T10:32:12Z</time>
      </trkpt>
      <trkpt lat="48.67682" lon="6.11436">
        <ele>329</ele>
        <time>2013-04-14T10:32:14Z</time>
      </trkpt>
      <trkpt lat="48.67686" lon="6.11441">
        <ele>334</ele>
        <time>2013-04-14T10:32:16Z</time>
      </trkpt>
      <trkpt lat="48.67692" lon="6.11444">
        <ele>331</ele>
        <time>2013-04-14T10:32:18Z</time>
      </trkpt>
      <trkpt lat="48.67696" lon="6.11448">
        <ele>329</ele>
        <time>2013-04-14T10:32:20Z</time>
      </trkpt>
      <trkpt lat="48.67701" lon="6.11451">
        <ele>325</ele>
        <time>2013-04-14T10:32:22Z</time>
      </trkpt>
      <trkpt lat="48.67709" lon="6.11454">
        <ele>337</ele>
        <time>2013-04-14T10:32:24Z</time>
      </trkpt>
      <trkpt lat="48.67716" lon="6.11459">
        <ele>335</ele>
        <time>2013-04-14T10:32:26Z</time>
      </trkpt>
      <trkpt lat="48.67723" lon="6.11463">
        <ele>327</ele>
        <time>2013-04-14T10:32:28Z</time>
      </trkpt>
      <trkpt lat="48.67731" lon="6.11466">
        <ele>322</ele>
        <time>2013-04-14T10:32:30Z</time>
      </trkpt>
      <trkpt lat="48.6774" lon="6.11468">
        <ele>318</ele>
        <time>2013-04-14T10:32:32Z</time>
      </trkpt>
      <trkpt lat="48.67745" lon="6.11471">
        <ele>318</ele>
        <time>2013-04-14T10:32:34Z</time>
      </trkpt>
      <trkpt lat="48.67749" lon="6.11473">
        <ele>319</ele>
        <time>2013-04-14T10:32:36Z</time>
      </trkpt>
      <trkpt lat="48.67752" lon="6.11475">
        <ele>319</ele>
        <time>2013-04-14T10:32:38Z</time>
      </trkpt>
      <trkpt lat="48.67756" lon="6.11475">
        <ele>316</ele>
        <time>2013-04-14T10:32:40Z</time>
      </trkpt>
      <trkpt lat="48.67759" lon="6.11475">
        <ele>320</ele>
        <time>2013-04-14T10:32:42Z</time>
      </trkpt>
      <trkpt lat="48.67762" lon="6.11475">
        <ele>318</ele>
        <time>2013-04-14T10:32:44Z</time>
      </trkpt>
      <trkpt lat="48.67765" lon="6.11476">
        <ele>318</ele>
        <time>2013-04-14T10:32:46Z</time>
      </trkpt>
      <trkpt lat="48.67771" lon="6.11474">
        <ele>315</ele>
        <time>2013-04-14T10:32:48Z</time>
      </trkpt>
      <trkpt lat="48.67778" lon="6.1147">
        <ele>319</ele>
        <time>2013-04-14T10:32:50Z</time>
      </trkpt>
      <trkpt lat="48.67789" lon="6.11465">
        <ele>323</ele>
        <time>2013-04-14T10:32:54Z</time>
      </trkpt>
      <trkpt lat="48.67796" lon="6.11461">
        <ele>321</ele>
        <time>2013-04-14T10:32:56Z</time>
      </trkpt>
      <trkpt lat="48.67802" lon="6.11459">
        <ele>322</ele>
        <time>2013-04-14T10:32:58Z</time>
      </trkpt>
      <trkpt lat="48.67809" lon="6.11455">
        <ele>318</ele>
        <time>2013-04-14T10:33:00Z</time>
      </trkpt>
      <trkpt lat="48.67816" lon="6.11452">
        <ele>317</ele>
        <time>2013-04-14T10:33:02Z</time>
      </trkpt>
      <trkpt lat="48.67823" lon="6.11449">
        <ele>316</ele>
        <time>2013-04-14T10:33:04Z</time>
      </trkpt>
      <trkpt lat="48.6783" lon="6.11448">
        <ele>313</ele>
        <time>2013-04-14T10:33:06Z</time>
      </trkpt>
      <trkpt lat="48.67835" lon="6.11448">
        <ele>313</ele>
        <time>2013-04-14T10:33:08Z</time>
      </trkpt>
      <trkpt lat="48.67839" lon="6.11448">
        <ele>314</ele>
        <time>2013-04-14T10:33:10Z</time>
      </trkpt>
      <trkpt lat="48.67842" lon="6.1145">
        <ele>311</ele>
        <time>2013-04-14T10:33:12Z</time>
      </trkpt>
      <trkpt lat="48.67846" lon="6.11449">
        <ele>318</ele>
        <time>2013-04-14T10:33:14Z</time>
      </trkpt>
      <trkpt lat="48.67851" lon="6.11448">
        <ele>321</ele>
        <time>2013-04-14T10:33:16Z</time>
      </trkpt>
      <trkpt lat="48.67852" lon="6.11448">
        <ele>320</ele>
        <time>2013-04-14T10:33:18Z</time>
      </trkpt>
      <trkpt lat="48.67857" lon="6.11445">
        <ele>320</ele>
        <time>2013-04-14T10:33:22Z</time>
      </trkpt>
      <trkpt lat="48.67863" lon="6.11434">
        <ele>327</ele>
        <time>2013-04-14T10:33:26Z</time>
      </trkpt>
      <trkpt lat="48.67866" lon="6.1143">
        <ele>325</ele>
        <time>2013-04-14T10:33:28Z</time>
      </trkpt>
      <trkpt lat="48.6787" lon="6.11424">
        <ele>331</ele>
        <time>2013-04-14T10:33:32Z</time>
      </trkpt>
      <trkpt lat="48.67872" lon="6.1142">
        <ele>332</ele>
        <time>2013-04-14T10:33:34Z</time>
      </trkpt>
      <trkpt lat="48.67872" lon="6.11415">
        <ele>329</ele>
        <time>2013-04-14T10:33:36Z</time>
      </trkpt>
      <trkpt lat="48.67872" lon="6.11409">
        <ele>328</ele>
        <time>2013-04-14T10:33:38Z</time>
      </trkpt>
      <trkpt lat="48.67875" lon="6.11397">
        <ele>327</ele>
        <time>2013-04-14T10:33:40Z</time>
      </trkpt>
      <trkpt lat="48.67877" lon="6.11387">
        <ele>327</ele>
        <time>2013-04-14T10:33:42Z</time>
      </trkpt>
      <trkpt lat="48.67878" lon="6.11378">
        <ele>324</ele>
        <time>2013-04-14T10:33:44Z</time>
      </trkpt>
      <trkpt lat="48.67878" lon="6.11369">
        <ele>323</ele>
        <time>2013-04-14T10:33:46Z</time>
      </trkpt>
      <trkpt lat="48.6788" lon="6.1136">
        <ele>324</ele>
        <time>2013-04-14T10:33:48Z</time>
      </trkpt>
      <trkpt lat="48.6788" lon="6.11351">
        <ele>324</ele>
        <time>2013-04-14T10:33:50Z</time>
      </trkpt>
      <trkpt lat="48.6788" lon="6.11344">
        <ele>326</ele>
        <time>2013-04-14T10:33:52Z</time>
      </trkpt>
      <trkpt lat="48.67882" lon="6.11335">
        <ele>326</ele>
        <time>2013-04-14T10:33:54Z</time>
      </trkpt>
      <trkpt lat="48.67882" lon="6.11327">
        <ele>324</ele>
        <time>2013-04-14T10:33:56Z</time>
      </trkpt>
      <trkpt lat="48.67882" lon="6.11318">
        <ele>324</ele>
        <time>2013-04-14T10:33:58Z</time>
      </trkpt>
      <trkpt lat="48.67883" lon="6.11309">
        <ele>323</ele>
        <time>2013-04-14T10:34:00Z</time>
      </trkpt>
      <trkpt lat="48.67883" lon="6.11302">
        <ele>326</ele>
        <time>2013-04-14T10:34:02Z</time>
      </trkpt>
      <trkpt lat="48.67884" lon="6.11295">
        <ele>327</ele>
        <time>2013-04-14T10:34:04Z</time>
      </trkpt>
      <trkpt lat="48.67884" lon="6.11288">
        <ele>326</ele>
        <time>2013-04-14T10:34:06Z</time>
      </trkpt>
      <trkpt lat="48.67884" lon="6.11283">
        <ele>326</ele>
        <time>2013-04-14T10:34:08Z</time>
      </trkpt>
      <trkpt lat="48.67883" lon="6.11278">
        <ele>327</ele>
        <time>2013-04-14T10:34:10Z</time>
      </trkpt>
      <trkpt lat="48.67883" lon="6.11274">
        <ele>330</ele>
        <time>2013-04-14T10:34:12Z</time>
      </trkpt>
      <trkpt lat="48.67883" lon="6.11269">
        <ele>332</ele>
        <time>2013-04-14T10:34:14Z</time>
      </trkpt>
      <trkpt lat="48.67881" lon="6.11264">
        <ele>329</ele>
        <time>2013-04-14T10:34:16Z</time>
      </trkpt>
      <trkpt lat="48.67882" lon="6.11255">
        <ele>334</ele>
        <time>2013-04-14T10:34:18Z</time>
      </trkpt>
      <trkpt lat="48.67881" lon="6.11249">
        <ele>339</ele>
        <time>2013-04-14T10:34:20Z</time>
      </trkpt>
      <trkpt lat="48.67882" lon="6.11244">
        <ele>342</ele>
        <time>2013-04-14T10:34:22Z</time>
      </trkpt>
      <trkpt lat="48.67881" lon="6.11236">
        <ele>340</ele>
        <time>2013-04-14T10:34:24Z</time>
      </trkpt>
      <trkpt lat="48.6788" lon="6.11229">
        <ele>333</ele>
        <time>2013-04-14T10:34:26Z</time>
      </trkpt>
      <trkpt lat="48.6788" lon="6.11221">
        <ele>330</ele>
        <time>2013-04-14T10:34:28Z</time>
      </trkpt>
      <trkpt lat="48.6788" lon="6.11215">
        <ele>329</ele>
        <time>2013-04-14T10:34:30Z</time>
      </trkpt>
      <trkpt lat="48.67878" lon="6.11211">
        <ele>328</ele>
        <time>2013-04-14T10:34:32Z</time>
      </trkpt>
      <trkpt lat="48.67877" lon="6.11207">
        <ele>333</ele>
        <time>2013-04-14T10:34:34Z</time>
      </trkpt>
      <trkpt lat="48.67875" lon="6.112">
        <ele>335</ele>
        <time>2013-04-14T10:34:36Z</time>
      </trkpt>
      <trkpt lat="48.67874" lon="6.11195">
        <ele>335</ele>
        <time>2013-04-14T10:34:38Z</time>
      </trkpt>
      <trkpt lat="48.67872" lon="6.11191">
        <ele>337</ele>
        <time>2013-04-14T10:34:40Z</time>
      </trkpt>
      <trkpt lat="48.67871" lon="6.11185">
        <ele>337</ele>
        <time>2013-04-14T10:34:42Z</time>
      </trkpt>
      <trkpt lat="48.6787" lon="6.11179">
        <ele>336</ele>
        <time>2013-04-14T10:34:44Z</time>
      </trkpt>
      <trkpt lat="48.67869" lon="6.11172">
        <ele>337</ele>
        <time>2013-04-14T10:34:46Z</time>
      </trkpt>
      <trkpt lat="48.6787" lon="6.11163">
        <ele>338</ele>
        <time>2013-04-14T10:34:48Z</time>
      </trkpt>
      <trkpt lat="48.6787" lon="6.11156">
        <ele>337</ele>
        <time>2013-04-14T10:34:50Z</time>
      </trkpt>
      <trkpt lat="48.67869" lon="6.11152">
        <ele>335</ele>
        <time>2013-04-14T10:34:52Z</time>
      </trkpt>
      <trkpt lat="48.67868" lon="6.11147">
        <ele>339</ele>
        <time>2013-04-14T10:34:54Z</time>
      </trkpt>
      <trkpt lat="48.67867" lon="6.11141">
        <ele>339</ele>
        <time>2013-04-14T10:34:56Z</time>
      </trkpt>
      <trkpt lat="48.67866" lon="6.11135">
        <ele>339</ele>
        <time>2013-04-14T10:34:58Z</time>
      </trkpt>
      <trkpt lat="48.67865" lon="6.1113">
        <ele>336</ele>
        <time>2013-04-14T10:35:00Z</time>
      </trkpt>
      <trkpt lat="48.67864" lon="6.11125">
        <ele>333</ele>
        <time>2013-04-14T10:35:02Z</time>
      </trkpt>
      <trkpt lat="48.67862" lon="6.11122">
        <ele>334</ele>
        <time>2013-04-14T10:35:04Z</time>
      </trkpt>
      <trkpt lat="48.67861" lon="6.11116">
        <ele>329</ele>
        <time>2013-04-14T10:35:06Z</time>
      </trkpt>
      <trkpt lat="48.67861" lon="6.11112">
        <ele>335</ele>
        <time>2013-04-14T10:35:08Z</time>
      </trkpt>
      <trkpt lat="48.67861" lon="6.11108">
        <ele>335</ele>
        <time>2013-04-14T10:35:10Z</time>
      </trkpt>
      <trkpt lat="48.67861" lon="6.11104">
        <ele>339</ele>
        <time>2013-04-14T10:35:12Z</time>
      </trkpt>
      <trkpt lat="48.67859" lon="6.11099">
        <ele>340</ele>
        <time>2013-04-14T10:35:14Z</time>
      </trkpt>
      <trkpt lat="48.67859" lon="6.11092">
        <ele>340</ele>
        <time>2013-04-14T10:35:16Z</time>
      </trkpt>
      <trkpt lat="48.67858" lon="6.11088">
        <ele>342</ele>
        <time>2013-04-14T10:35:18Z</time>
      </trkpt>
      <trkpt lat="48.67858" lon="6.11083">
        <ele>338</ele>
        <time>2013-04-14T10:35:20Z</time>
      </trkpt>
      <trkpt lat="48.67858" lon="6.11074">
        <ele>339</ele>
        <time>2013-04-14T10:35:22Z</time>
      </trkpt>
      <trkpt lat="48.67858" lon="6.11067">
        <ele>337</ele>
        <time>2013-04-14T10:35:24Z</time>
      </trkpt>
      <trkpt lat="48.67857" lon="6.1106">
        <ele>336</ele>
        <time>2013-04-14T10:35:26Z</time>
      </trkpt>
      <trkpt lat="48.67857" lon="6.11053">
        <ele>336</ele>
        <time>2013-04-14T10:35:28Z</time>
      </trkpt>
      <trkpt lat="48.67855" lon="6.11047">
        <ele>338</ele>
        <time>2013-04-14T10:35:30Z</time>
      </trkpt>
      <trkpt lat="48.67854" lon="6.1104">
        <ele>338</ele>
        <time>2013-04-14T10:35:32Z</time>
      </trkpt>
      <trkpt lat="48.67851" lon="6.11035">
        <ele>343</ele>
        <time>2013-04-14T10:35:34Z</time>
      </trkpt>
      <trkpt lat="48.6785" lon="6.11029">
        <ele>342</ele>
        <time>2013-04-14T10:35:36Z</time>
      </trkpt>
      <trkpt lat="48.67849" lon="6.11026">
        <ele>340</ele>
        <time>2013-04-14T10:35:38Z</time>
      </trkpt>
      <trkpt lat="48.67847" lon="6.11022">
        <ele>345</ele>
        <time>2013-04-14T10:35:40Z</time>
      </trkpt>
      <trkpt lat="48.67846" lon="6.11015">
        <ele>348</ele>
        <time>2013-04-14T10:35:42Z</time>
      </trkpt>
      <trkpt lat="48.67845" lon="6.1101">
        <ele>348</ele>
        <time>2013-04-14T10:35:44Z</time>
      </trkpt>
      <trkpt lat="48.67845" lon="6.11">
        <ele>346</ele>
        <time>2013-04-14T10:35:46Z</time>
      </trkpt>
      <trkpt lat="48.67843" lon="6.10993">
        <ele>345</ele>
        <time>2013-04-14T10:35:48Z</time>
      </trkpt>
      <trkpt lat="48.67842" lon="6.10985">
        <ele>347</ele>
        <time>2013-04-14T10:35:50Z</time>
      </trkpt>
      <trkpt lat="48.67841" lon="6.10979">
        <ele>348</ele>
        <time>2013-04-14T10:35:52Z</time>
      </trkpt>
      <trkpt lat="48.67841" lon="6.10972">
        <ele>344</ele>
        <time>2013-04-14T10:35:54Z</time>
      </trkpt>
      <trkpt lat="48.6784" lon="6.10964">
        <ele>346</ele>
        <time>2013-04-14T10:35:56Z</time>
      </trkpt>
      <trkpt lat="48.67839" lon="6.10956">
        <ele>348</ele>
        <time>2013-04-14T10:35:58Z</time>
      </trkpt>
      <trkpt lat="48.67838" lon="6.10947">
        <ele>346</ele>
        <time>2013-04-14T10:36:00Z</time>
      </trkpt>
      <trkpt lat="48.67837" lon="6.10939">
        <ele>346</ele>
        <time>2013-04-14T10:36:02Z</time>
      </trkpt>
      <trkpt lat="48.67836" lon="6.1093">
        <ele>348</ele>
        <time>2013-04-14T10:36:04Z</time>
      </trkpt>
      <trkpt lat="48.67834" lon="6.10922">
        <ele>347</ele>
        <time>2013-04-14T10:36:06Z</time>
      </trkpt>
      <trkpt lat="48.67832" lon="6.10915">
        <ele>346</ele>
        <time>2013-04-14T10:36:08Z</time>
      </trkpt>
      <trkpt lat="48.67832" lon="6.10904">
        <ele>347</ele>
        <time>2013-04-14T10:36:10Z</time>
      </trkpt>
      <trkpt lat="48.67829" lon="6.10893">
        <ele>343</ele>
        <time>2013-04-14T10:36:12Z</time>
      </trkpt>
      <trkpt lat="48.67828" lon="6.10888">
        <ele>341</ele>
        <time>2013-04-14T10:36:14Z</time>
      </trkpt>
      <trkpt lat="48.67828" lon="6.10886">
        <ele>339</ele>
        <time>2013-04-14T10:36:16Z</time>
      </trkpt>
      <trkpt lat="48.67826" lon="6.10885">
        <ele>338</ele>
        <time>2013-04-14T10:36:18Z</time>
      </trkpt>
      <trkpt lat="48.67822" lon="6.10885">
        <ele>338</ele>
        <time>2013-04-14T10:36:20Z</time>
      </trkpt>
      <trkpt lat="48.67816" lon="6.10885">
        <ele>335</ele>
        <time>2013-04-14T10:36:22Z</time>
      </trkpt>
      <trkpt lat="48.67811" lon="6.10884">
        <ele>336</ele>
        <time>2013-04-14T10:36:24Z</time>
      </trkpt>
      <trkpt lat="48.67805" lon="6.10885">
        <ele>337</ele>
        <time>2013-04-14T10:36:26Z</time>
      </trkpt>
      <trkpt lat="48.67799" lon="6.10885">
        <ele>339</ele>
        <time>2013-04-14T10:36:28Z</time>
      </trkpt>
      <trkpt lat="48.67794" lon="6.10885">
        <ele>338</ele>
        <time>2013-04-14T10:36:30Z</time>
      </trkpt>
      <trkpt lat="48.67788" lon="6.10885">
        <ele>341</ele>
        <time>2013-04-14T10:36:32Z</time>
      </trkpt>
      <trkpt lat="48.67783" lon="6.10885">
        <ele>339</ele>
        <time>2013-04-14T10:36:34Z</time>
      </trkpt>
      <trkpt lat="48.67779" lon="6.10886">
        <ele>339</ele>
        <time>2013-04-14T10:36:36Z</time>
      </trkpt>
      <trkpt lat="48.67775" lon="6.10888">
        <ele>345</ele>
        <time>2013-04-14T10:36:38Z</time>
      </trkpt>
      <trkpt lat="48.6777" lon="6.1089">
        <ele>344</ele>
        <time>2013-04-14T10:36:40Z</time>
      </trkpt>
      <trkpt lat="48.67766" lon="6.10891">
        <ele>344</ele>
        <time>2013-04-14T10:36:42Z</time>
      </trkpt>
      <trkpt lat="48.67761" lon="6.10892">
        <ele>347</ele>
        <time>2013-04-14T10:36:44Z</time>
      </trkpt>
      <trkpt lat="48.67756" lon="6.10893">
        <ele>347</ele>
        <time>2013-04-14T10:36:46Z</time>
      </trkpt>
      <trkpt lat="48.67751" lon="6.10894">
        <ele>346</ele>
        <time>2013-04-14T10:36:48Z</time>
      </trkpt>
      <trkpt lat="48.67746" lon="6.10895">
        <ele>350</ele>
        <time>2013-04-14T10:36:50Z</time>
      </trkpt>
      <trkpt lat="48.67741" lon="6.10896">
        <ele>351</ele>
        <time>2013-04-14T10:36:52Z</time>
      </trkpt>
      <trkpt lat="48.67738" lon="6.10898">
        <ele>351</ele>
        <time>2013-04-14T10:36:54Z</time>
      </trkpt>
      <trkpt lat="48.67734" lon="6.10899">
        <ele>361</ele>
        <time>2013-04-14T10:36:56Z</time>
      </trkpt>
      <trkpt lat="48.67726" lon="6.10903">
        <ele>361</ele>
        <time>2013-04-14T10:37:00Z</time>
      </trkpt>
      <trkpt lat="48.6772" lon="6.10905">
        <ele>362</ele>
        <time>2013-04-14T10:37:02Z</time>
      </trkpt>
      <trkpt lat="48.67714" lon="6.10908">
        <ele>363</ele>
        <time>2013-04-14T10:37:04Z</time>
      </trkpt>
      <trkpt lat="48.67709" lon="6.10911">
        <ele>372</ele>
        <time>2013-04-14T10:37:06Z</time>
      </trkpt>
      <trkpt lat="48.67704" lon="6.10913">
        <ele>368</ele>
        <time>2013-04-14T10:37:08Z</time>
      </trkpt>
      <trkpt lat="48.677" lon="6.10914">
        <ele>368</ele>
        <time>2013-04-14T10:37:10Z</time>
      </trkpt>
      <trkpt lat="48.67695" lon="6.10916">
        <ele>369</ele>
        <time>2013-04-14T10:37:12Z</time>
      </trkpt>
      <trkpt lat="48.6769" lon="6.10918">
        <ele>375</ele>
        <time>2013-04-14T10:37:14Z</time>
      </trkpt>
      <trkpt lat="48.67683" lon="6.10919">
        <ele>373</ele>
        <time>2013-04-14T10:37:16Z</time>
      </trkpt>
      <trkpt lat="48.67674" lon="6.10919">
        <ele>368</ele>
        <time>2013-04-14T10:37:18Z</time>
      </trkpt>
      <trkpt lat="48.67668" lon="6.10921">
        <ele>363</ele>
        <time>2013-04-14T10:37:20Z</time>
      </trkpt>
      <trkpt lat="48.67659" lon="6.10923">
        <ele>361</ele>
        <time>2013-04-14T10:37:22Z</time>
      </trkpt>
      <trkpt lat="48.67651" lon="6.10925">
        <ele>365</ele>
        <time>2013-04-14T10:37:24Z</time>
      </trkpt>
      <trkpt lat="48.67645" lon="6.10927">
        <ele>363</ele>
        <time>2013-04-14T10:37:26Z</time>
      </trkpt>
      <trkpt lat="48.67635" lon="6.10928">
        <ele>363</ele>
        <time>2013-04-14T10:37:28Z</time>
      </trkpt>
      <trkpt lat="48.67629" lon="6.10928">
        <ele>364</ele>
        <time>2013-04-14T10:37:30Z</time>
      </trkpt>
      <trkpt lat="48.67621" lon="6.10928">
        <ele>365</ele>
        <time>2013-04-14T10:37:32Z</time>
      </trkpt>
      <trkpt lat="48.67616" lon="6.1093">
        <ele>372</ele>
        <time>2013-04-14T10:37:34Z</time>
      </trkpt>
      <trkpt lat="48.67609" lon="6.10931">
        <ele>374</ele>
        <time>2013-04-14T10:37:36Z</time>
      </trkpt>
      <trkpt lat="48.676" lon="6.10931">
        <ele>377</ele>
        <time>2013-04-14T10:37:38Z</time>
      </trkpt>
      <trkpt lat="48.67594" lon="6.10932">
        <ele>378</ele>
        <time>2013-04-14T10:37:40Z</time>
      </trkpt>
      <trkpt lat="48.67587" lon="6.10934">
        <ele>379</ele>
        <time>2013-04-14T10:37:42Z</time>
      </trkpt>
      <trkpt lat="48.67581" lon="6.10936">
        <ele>384</ele>
        <time>2013-04-14T10:37:44Z</time>
      </trkpt>
      <trkpt lat="48.67572" lon="6.10937">
        <ele>379</ele>
        <time>2013-04-14T10:37:46Z</time>
      </trkpt>
      <trkpt lat="48.67566" lon="6.10939">
        <ele>381</ele>
        <time>2013-04-14T10:37:48Z</time>
      </trkpt>
      <trkpt lat="48.67558" lon="6.10938">
        <ele>378</ele>
        <time>2013-04-14T10:37:50Z</time>
      </trkpt>
      <trkpt lat="48.67548" lon="6.1094">
        <ele>373</ele>
        <time>2013-04-14T10:37:52Z</time>
      </trkpt>
      <trkpt lat="48.6754" lon="6.10942">
        <ele>372</ele>
        <time>2013-04-14T10:37:54Z</time>
      </trkpt>
      <trkpt lat="48.6753" lon="6.10943">
        <ele>372</ele>
        <time>2013-04-14T10:37:56Z</time>
      </trkpt>
      <trkpt lat="48.67523" lon="6.10948">
        <ele>371</ele>
        <time>2013-04-14T10:37:58Z</time>
      </trkpt>
      <trkpt lat="48.67513" lon="6.10951">
        <ele>375</ele>
        <time>2013-04-14T10:38:00Z</time>
      </trkpt>
      <trkpt lat="48.67502" lon="6.10953">
        <ele>370</ele>
        <time>2013-04-14T10:38:02Z</time>
      </trkpt>
      <trkpt lat="48.67491" lon="6.10955">
        <ele>372</ele>
        <time>2013-04-14T10:38:04Z</time>
      </trkpt>
      <trkpt lat="48.67479" lon="6.10959">
        <ele>374</ele>
        <time>2013-04-14T10:38:06Z</time>
      </trkpt>
      <trkpt lat="48.67465" lon="6.10964">
        <ele>368</ele>
        <time>2013-04-14T10:38:08Z</time>
      </trkpt>
      <trkpt lat="48.67448" lon="6.10968">
        <ele>365</ele>
        <time>2013-04-14T10:38:10Z</time>
      </trkpt>
      <trkpt lat="48.67436" lon="6.10973">
        <ele>364</ele>
        <time>2013-04-14T10:38:12Z</time>
      </trkpt>
      <trkpt lat="48.67427" lon="6.10979">
        <ele>366</ele>
        <time>2013-04-14T10:38:14Z</time>
      </trkpt>
      <trkpt lat="48.67422" lon="6.10979">
        <ele>366</ele>
        <time>2013-04-14T10:38:16Z</time>
      </trkpt>
      <trkpt lat="48.67415" lon="6.10976">
        <ele>361</ele>
        <time>2013-04-14T10:38:18Z</time>
      </trkpt>
      <trkpt lat="48.67408" lon="6.10975">
        <ele>360</ele>
        <time>2013-04-14T10:38:20Z</time>
      </trkpt>
      <trkpt lat="48.674" lon="6.10974">
        <ele>358</ele>
        <time>2013-04-14T10:38:22Z</time>
      </trkpt>
      <trkpt lat="48.67393" lon="6.10974">
        <ele>353</ele>
        <time>2013-04-14T10:38:24Z</time>
      </trkpt>
      <trkpt lat="48.67387" lon="6.10975">
        <ele>355</ele>
        <time>2013-04-14T10:38:26Z</time>
      </trkpt>
      <trkpt lat="48.67382" lon="6.10976">
        <ele>348</ele>
        <time>2013-04-14T10:38:28Z</time>
      </trkpt>
      <trkpt lat="48.67378" lon="6.10978">
        <ele>348</ele>
        <time>2013-04-14T10:38:30Z</time>
      </trkpt>
      <trkpt lat="48.6737" lon="6.1098">
        <ele>352</ele>
        <time>2013-04-14T10:38:34Z</time>
      </trkpt>
      <trkpt lat="48.67367" lon="6.10982">
        <ele>352</ele>
        <time>2013-04-14T10:38:36Z</time>
      </trkpt>
      <trkpt lat="48.67364" lon="6.10985">
        <ele>355</ele>
        <time>2013-04-14T10:38:38Z</time>
      </trkpt>
      <trkpt lat="48.6736" lon="6.10987">
        <ele>356</ele>
        <time>2013-04-14T10:38:40Z</time>
      </trkpt>
      <trkpt lat="48.67357" lon="6.1099">
        <ele>356</ele>
        <time>2013-04-14T10:38:42Z</time>
      </trkpt>
      <trkpt lat="48.67352" lon="6.10991">
        <ele>361</ele>
        <time>2013-04-14T10:38:44Z</time>
      </trkpt>
      <trkpt lat="48.67347" lon="6.10993">
        <ele>358</ele>
        <time>2013-04-14T10:38:46Z</time>
      </trkpt>
      <trkpt lat="48.67341" lon="6.10995">
        <ele>359</ele>
        <time>2013-04-14T10:38:48Z</time>
      </trkpt>
      <trkpt lat="48.67336" lon="6.10998">
        <ele>357</ele>
        <time>2013-04-14T10:38:50Z</time>
      </trkpt>
      <trkpt lat="48.67332" lon="6.11">
        <ele>358</ele>
        <time>2013-04-14T10:38:52Z</time>
      </trkpt>
      <trkpt lat="48.67328" lon="6.11002">
        <ele>367</ele>
        <time>2013-04-14T10:38:54Z</time>
      </trkpt>
      <trkpt lat="48.67323" lon="6.11004">
        <ele>367</ele>
        <time>2013-04-14T10:38:56Z</time>
      </trkpt>
      <trkpt lat="48.67317" lon="6.11006">
        <ele>374</ele>
        <time>2013-04-14T10:38:58Z</time>
      </trkpt>
      <trkpt lat="48.67312" lon="6.11007">
        <ele>375</ele>
        <time>2013-04-14T10:39:00Z</time>
      </trkpt>
      <trkpt lat="48.67306" lon="6.11008">
        <ele>371</ele>
        <time>2013-04-14T10:39:02Z</time>
      </trkpt>
      <trkpt lat="48.67294" lon="6.11007">
        <ele>369</ele>
        <time>2013-04-14T10:39:06Z</time>
      </trkpt>
      <trkpt lat="48.67286" lon="6.11006">
        <ele>370</ele>
        <time>2013-04-14T10:39:08Z</time>
      </trkpt>
      <trkpt lat="48.6728" lon="6.11006">
        <ele>365</ele>
        <time>2013-04-14T10:39:10Z</time>
      </trkpt>
      <trkpt lat="48.67274" lon="6.11009">
        <ele>367</ele>
        <time>2013-04-14T10:39:12Z</time>
      </trkpt>
      <trkpt lat="48.67268" lon="6.11009">
        <ele>366</ele>
        <time>2013-04-14T10:39:14Z</time>
      </trkpt>
      <trkpt lat="48.6726" lon="6.1101">
        <ele>368</ele>
        <time>2013-04-14T10:39:16Z</time>
      </trkpt>
      <trkpt lat="48.67252" lon="6.11011">
        <ele>370</ele>
        <time>2013-04-14T10:39:18Z</time>
      </trkpt>
      <trkpt lat="48.67243" lon="6.11012">
        <ele>371</ele>
        <time>2013-04-14T10:39:20Z</time>
      </trkpt>
      <trkpt lat="48.67233" lon="6.11015">
        <ele>367</ele>
        <time>2013-04-14T10:39:22Z</time>
      </trkpt>
      <trkpt lat="48.67226" lon="6.11018">
        <ele>371</ele>
        <time>2013-04-14T10:39:24Z</time>
      </trkpt>
      <trkpt lat="48.67219" lon="6.1102">
        <ele>363</ele>
        <time>2013-04-14T10:39:26Z</time>
      </trkpt>
      <trkpt lat="48.6721" lon="6.11023">
        <ele>363</ele>
        <time>2013-04-14T10:39:28Z</time>
      </trkpt>
      <trkpt lat="48.67202" lon="6.11025">
        <ele>365</ele>
        <time>2013-04-14T10:39:30Z</time>
      </trkpt>
      <trkpt lat="48.67196" lon="6.1103">
        <ele>370</ele>
        <time>2013-04-14T10:39:32Z</time>
      </trkpt>
      <trkpt lat="48.67186" lon="6.1103">
        <ele>364</ele>
        <time>2013-04-14T10:39:34Z</time>
      </trkpt>
      <trkpt lat="48.6718" lon="6.11032">
        <ele>364</ele>
        <time>2013-04-14T10:39:36Z</time>
      </trkpt>
      <trkpt lat="48.67174" lon="6.11034">
        <ele>366</ele>
        <time>2013-04-14T10:39:38Z</time>
      </trkpt>
      <trkpt lat="48.67167" lon="6.11036">
        <ele>358</ele>
        <time>2013-04-14T10:39:40Z</time>
      </trkpt>
      <trkpt lat="48.67157" lon="6.11039">
        <ele>354</ele>
        <time>2013-04-14T10:39:42Z</time>
      </trkpt>
      <trkpt lat="48.67146" lon="6.11043">
        <ele>357</ele>
        <time>2013-04-14T10:39:44Z</time>
      </trkpt>
      <trkpt lat="48.67135" lon="6.11045">
        <ele>362</ele>
        <time>2013-04-14T10:39:46Z</time>
      </trkpt>
      <trkpt lat="48.67125" lon="6.11047">
        <ele>363</ele>
        <time>2013-04-14T10:39:48Z</time>
      </trkpt>
      <trkpt lat="48.67115" lon="6.11047">
        <ele>367</ele>
        <time>2013-04-14T10:39:50Z</time>
      </trkpt>
      <trkpt lat="48.67107" lon="6.11048">
        <ele>371</ele>
        <time>2013-04-14T10:39:52Z</time>
      </trkpt>
      <trkpt lat="48.67099" lon="6.1105">
        <ele>371</ele>
        <time>2013-04-14T10:39:54Z</time>
      </trkpt>
      <trkpt lat="48.67091" lon="6.11049">
        <ele>370</ele>
        <time>2013-04-14T10:39:56Z</time>
      </trkpt>
      <trkpt lat="48.67083" lon="6.11051">
        <ele>369</ele>
        <time>2013-04-14T10:39:58Z</time>
      </trkpt>
      <trkpt lat="48.67073" lon="6.11053">
        <ele>371</ele>
        <time>2013-04-14T10:40:00Z</time>
      </trkpt>
      <trkpt lat="48.67065" lon="6.11054">
        <ele>371</ele>
        <time>2013-04-14T10:40:02Z</time>
      </trkpt>
      <trkpt lat="48.67056" lon="6.11056">
        <ele>371</ele>
        <time>2013-04-14T10:40:04Z</time>
      </trkpt>
      <trkpt lat="48.67043" lon="6.11056">
        <ele>367</ele>
        <time>2013-04-14T10:40:06Z</time>
      </trkpt>
      <trkpt lat="48.67034" lon="6.11059">
        <ele>369</ele>
        <time>2013-04-14T10:40:08Z</time>
      </trkpt>
      <trkpt lat="48.67024" lon="6.11061">
        <ele>370</ele>
        <time>2013-04-14T10:40:10Z</time>
      </trkpt>
      <trkpt lat="48.67013" lon="6.11063">
        <ele>370</ele>
        <time>2013-04-14T10:40:12Z</time>
      </trkpt>
      <trkpt lat="48.67003" lon="6.11065">
        <ele>368</ele>
        <time>2013-04-14T10:40:14Z</time>
      </trkpt>
      <trkpt lat="48.66994" lon="6.11066">
        <ele>370</ele>
        <time>2013-04-14T10:40:16Z</time>
      </trkpt>
      <trkpt lat="48.66984" lon="6.11068">
        <ele>373</ele>
        <time>2013-04-14T10:40:18Z</time>
      </trkpt>
      <trkpt lat="48.66977" lon="6.11072">
        <ele>374</ele>
        <time>2013-04-14T10:40:20Z</time>
      </trkpt>
      <trkpt lat="48.66969" lon="6.11075">
        <ele>371</ele>
        <time>2013-04-14T10:40:22Z</time>
      </trkpt>
      <trkpt lat="48.66959" lon="6.11077">
        <ele>371</ele>
        <time>2013-04-14T10:40:24Z</time>
      </trkpt>
      <trkpt lat="48.6695" lon="6.11077">
        <ele>372</ele>
        <time>2013-04-14T10:40:26Z</time>
      </trkpt>
      <trkpt lat="48.6694" lon="6.11078">
        <ele>373</ele>
        <time>2013-04-14T10:40:28Z</time>
      </trkpt>
      <trkpt lat="48.66931" lon="6.1108">
        <ele>375</ele>
        <time>2013-04-14T10:40:30Z</time>
      </trkpt>
      <trkpt lat="48.66922" lon="6.11083">
        <ele>377</ele>
        <time>2013-04-14T10:40:32Z</time>
      </trkpt>
      <trkpt lat="48.66914" lon="6.11085">
        <ele>371</ele>
        <time>2013-04-14T10:40:34Z</time>
      </trkpt>
      <trkpt lat="48.66903" lon="6.11085">
        <ele>372</ele>
        <time>2013-04-14T10:40:36Z</time>
      </trkpt>
      <trkpt lat="48.66894" lon="6.11085">
        <ele>363</ele>
        <time>2013-04-14T10:40:38Z</time>
      </trkpt>
      <trkpt lat="48.66885" lon="6.11086">
        <ele>356</ele>
        <time>2013-04-14T10:40:40Z</time>
      </trkpt>
      <trkpt lat="48.66877" lon="6.11087">
        <ele>358</ele>
        <time>2013-04-14T10:40:42Z</time>
      </trkpt>
      <trkpt lat="48.66872" lon="6.11086">
        <ele>361</ele>
        <time>2013-04-14T10:40:44Z</time>
      </trkpt>
      <trkpt lat="48.66866" lon="6.11089">
        <ele>367</ele>
        <time>2013-04-14T10:40:46Z</time>
      </trkpt>
      <trkpt lat="48.66859" lon="6.11092">
        <ele>367</ele>
        <time>2013-04-14T10:40:48Z</time>
      </trkpt>
      <trkpt lat="48.66854" lon="6.11091">
        <ele>366</ele>
        <time>2013-04-14T10:40:50Z</time>
      </trkpt>
      <trkpt lat="48.6685" lon="6.11092">
        <ele>366</ele>
        <time>2013-04-14T10:40:52Z</time>
      </trkpt>
      <trkpt lat="48.66843" lon="6.11093">
        <ele>369</ele>
        <time>2013-04-14T10:40:54Z</time>
      </trkpt>
      <trkpt lat="48.66836" lon="6.11095">
        <ele>368</ele>
        <time>2013-04-14T10:40:56Z</time>
      </trkpt>
      <trkpt lat="48.66831" lon="6.11094">
        <ele>364</ele>
        <time>2013-04-14T10:40:58Z</time>
      </trkpt>
      <trkpt lat="48.66827" lon="6.11093">
        <ele>360</ele>
        <time>2013-04-14T10:41:00Z</time>
      </trkpt>
      <trkpt lat="48.66819" lon="6.11095">
        <ele>358</ele>
        <time>2013-04-14T10:41:04Z</time>
      </trkpt>
      <trkpt lat="48.66813" lon="6.11098">
        <ele>361</ele>
        <time>2013-04-14T10:41:06Z</time>
      </trkpt>
      <trkpt lat="48.66808" lon="6.11101">
        <ele>359</ele>
        <time>2013-04-14T10:41:08Z</time>
      </trkpt>
      <trkpt lat="48.66806" lon="6.11102">
        <ele>358</ele>
        <time>2013-04-14T10:41:10Z</time>
      </trkpt>
      <trkpt lat="48.66803" lon="6.11104">
        <ele>361</ele>
        <time>2013-04-14T10:41:12Z</time>
      </trkpt>
      <trkpt lat="48.66797" lon="6.11109">
        <ele>365</ele>
        <time>2013-04-14T10:41:14Z</time>
      </trkpt>
      <trkpt lat="48.66793" lon="6.11113">
        <ele>363</ele>
        <time>2013-04-14T10:41:16Z</time>
      </trkpt>
      <trkpt lat="48.66789" lon="6.11116">
        <ele>363</ele>
        <time>2013-04-14T10:41:18Z</time>
      </trkpt>
      <trkpt lat="48.66785" lon="6.11118">
        <ele>364</ele>
        <time>2013-04-14T10:41:20Z</time>
      </trkpt>
      <trkpt lat="48.66777" lon="6.11118">
        <ele>370</ele>
        <time>2013-04-14T10:41:22Z</time>
      </trkpt>
      <trkpt lat="48.66771" lon="6.11118">
        <ele>358</ele>
        <time>2013-04-14T10:41:24Z</time>
      </trkpt>
      <trkpt lat="48.66766" lon="6.1112">
        <ele>351</ele>
        <time>2013-04-14T10:41:26Z</time>
      </trkpt>
      <trkpt lat="48.6676" lon="6.11123">
        <ele>353</ele>
        <time>2013-04-14T10:41:28Z</time>
      </trkpt>
      <trkpt lat="48.66755" lon="6.11125">
        <ele>358</ele>
        <time>2013-04-14T10:41:30Z</time>
      </trkpt>
      <trkpt lat="48.66748" lon="6.11125">
        <ele>361</ele>
        <time>2013-04-14T10:41:32Z</time>
      </trkpt>
      <trkpt lat="48.66742" lon="6.11128">
        <ele>354</ele>
        <time>2013-04-14T10:41:34Z</time>
      </trkpt>
      <trkpt lat="48.66729" lon="6.11134">
        <ele>349</ele>
        <time>2013-04-14T10:41:38Z</time>
      </trkpt>
      <trkpt lat="48.66723" lon="6.11137">
        <ele>350</ele>
        <time>2013-04-14T10:41:40Z</time>
      </trkpt>
      <trkpt lat="48.66711" lon="6.11139">
        <ele>349</ele>
        <time>2013-04-14T10:41:43Z</time>
      </trkpt>
      <trkpt lat="48.66708" lon="6.11139">
        <ele>348</ele>
        <time>2013-04-14T10:41:44Z</time>
      </trkpt>
      <trkpt lat="48.66699" lon="6.1114">
        <ele>350</ele>
        <time>2013-04-14T10:41:46Z</time>
      </trkpt>
      <trkpt lat="48.6669" lon="6.11141">
        <ele>347</ele>
        <time>2013-04-14T10:41:48Z</time>
      </trkpt>
      <trkpt lat="48.66681" lon="6.11142">
        <ele>348</ele>
        <time>2013-04-14T10:41:50Z</time>
      </trkpt>
      <trkpt lat="48.6667" lon="6.11143">
        <ele>354</ele>
        <time>2013-04-14T10:41:52Z</time>
      </trkpt>
      <trkpt lat="48.66662" lon="6.11146">
        <ele>357</ele>
        <time>2013-04-14T10:41:54Z</time>
      </trkpt>
      <trkpt lat="48.66652" lon="6.1115">
        <ele>358</ele>
        <time>2013-04-14T10:41:56Z</time>
      </trkpt>
      <trkpt lat="48.66643" lon="6.11153">
        <ele>356</ele>
        <time>2013-04-14T10:41:58Z</time>
      </trkpt>
      <trkpt lat="48.66634" lon="6.11156">
        <ele>356</ele>
        <time>2013-04-14T10:42:00Z</time>
      </trkpt>
      <trkpt lat="48.66625" lon="6.11158">
        <ele>355</ele>
        <time>2013-04-14T10:42:02Z</time>
      </trkpt>
      <trkpt lat="48.66616" lon="6.1116">
        <ele>350</ele>
        <time>2013-04-14T10:42:04Z</time>
      </trkpt>
      <trkpt lat="48.66609" lon="6.11161">
        <ele>348</ele>
        <time>2013-04-14T10:42:06Z</time>
      </trkpt>
      <trkpt lat="48.66602" lon="6.11163">
        <ele>349</ele>
        <time>2013-04-14T10:42:08Z</time>
      </trkpt>
      <trkpt lat="48.66594" lon="6.11163">
        <ele>351</ele>
        <time>2013-04-14T10:42:10Z</time>
      </trkpt>
      <trkpt lat="48.66586" lon="6.11164">
        <ele>353</ele>
        <time>2013-04-14T10:42:12Z</time>
      </trkpt>
      <trkpt lat="48.66579" lon="6.11165">
        <ele>351</ele>
        <time>2013-04-14T10:42:14Z</time>
      </trkpt>
      <trkpt lat="48.66571" lon="6.11167">
        <ele>352</ele>
        <time>2013-04-14T10:42:16Z</time>
      </trkpt>
      <trkpt lat="48.66561" lon="6.11171">
        <ele>354</ele>
        <time>2013-04-14T10:42:18Z</time>
      </trkpt>
      <trkpt lat="48.66553" lon="6.11174">
        <ele>353</ele>
        <time>2013-04-14T10:42:20Z</time>
      </trkpt>
      <trkpt lat="48.66544" lon="6.11177">
        <ele>357</ele>
        <time>2013-04-14T10:42:22Z</time>
      </trkpt>
      <trkpt lat="48.66536" lon="6.11179">
        <ele>358</ele>
        <time>2013-04-14T10:42:24Z</time>
      </trkpt>
      <trkpt lat="48.66527" lon="6.11181">
        <ele>355</ele>
        <time>2013-04-14T10:42:26Z</time>
      </trkpt>
      <trkpt lat="48.66517" lon="6.11181">
        <ele>356</ele>
        <time>2013-04-14T10:42:28Z</time>
      </trkpt>
      <trkpt lat="48.66509" lon="6.11182">
        <ele>360</ele>
        <time>2013-04-14T10:42:30Z</time>
      </trkpt>
      <trkpt lat="48.66502" lon="6.11182">
        <ele>362</ele>
        <time>2013-04-14T10:42:32Z</time>
      </trkpt>
      <trkpt lat="48.66494" lon="6.11182">
        <ele>361</ele>
        <time>2013-04-14T10:42:34Z</time>
      </trkpt>
      <trkpt lat="48.66485" lon="6.11185">
        <ele>363</ele>
        <time>2013-04-14T10:42:36Z</time>
      </trkpt>
      <trkpt lat="48.66476" lon="6.11186">
        <ele>370</ele>
        <time>2013-04-14T10:42:38Z</time>
      </trkpt>
      <trkpt lat="48.66468" lon="6.11186">
        <ele>366</ele>
        <time>2013-04-14T10:42:40Z</time>
      </trkpt>
      <trkpt lat="48.66458" lon="6.11188">
        <ele>367</ele>
        <time>2013-04-14T10:42:42Z</time>
      </trkpt>
      <trkpt lat="48.66452" lon="6.1119">
        <ele>364</ele>
        <time>2013-04-14T10:42:44Z</time>
      </trkpt>
      <trkpt lat="48.66446" lon="6.11192">
        <ele>362</ele>
        <time>2013-04-14T10:42:46Z</time>
      </trkpt>
      <trkpt lat="48.6644" lon="6.11194">
        <ele>364</ele>
        <time>2013-04-14T10:42:48Z</time>
      </trkpt>
      <trkpt lat="48.66435" lon="6.11197">
        <ele>362</ele>
        <time>2013-04-14T10:42:50Z</time>
      </trkpt>
      <trkpt lat="48.66428" lon="6.11199">
        <ele>364</ele>
        <time>2013-04-14T10:42:52Z</time>
      </trkpt>
      <trkpt lat="48.66421" lon="6.11201">
        <ele>369</ele>
        <time>2013-04-14T10:42:54Z</time>
      </trkpt>
      <trkpt lat="48.66412" lon="6.11202">
        <ele>366</ele>
        <time>2013-04-14T10:42:56Z</time>
      </trkpt>
      <trkpt lat="48.66401" lon="6.11203">
        <ele>360</ele>
        <time>2013-04-14T10:42:58Z</time>
      </trkpt>
      <trkpt lat="48.66391" lon="6.11206">
        <ele>359</ele>
        <time>2013-04-14T10:43:00Z</time>
      </trkpt>
      <trkpt lat="48.66383" lon="6.11209">
        <ele>364</ele>
        <time>2013-04-14T10:43:02Z</time>
      </trkpt>
      <trkpt lat="48.66376" lon="6.11212">
        <ele>371</ele>
        <time>2013-04-14T10:43:04Z</time>
      </trkpt>
      <trkpt lat="48.6637" lon="6.11216">
        <ele>370</ele>
        <time>2013-04-14T10:43:06Z</time>
      </trkpt>
      <trkpt lat="48.66362" lon="6.11217">
        <ele>370</ele>
        <time>2013-04-14T10:43:08Z</time>
      </trkpt>
      <trkpt lat="48.66354" lon="6.1122">
        <ele>370</ele>
        <time>2013-04-14T10:43:10Z</time>
      </trkpt>
      <trkpt lat="48.66346" lon="6.11224">
        <ele>373</ele>
        <time>2013-04-14T10:43:12Z</time>
      </trkpt>
      <trkpt lat="48.66335" lon="6.11223">
        <ele>366</ele>
        <time>2013-04-14T10:43:14Z</time>
      </trkpt>
      <trkpt lat="48.66324" lon="6.11223">
        <ele>360</ele>
        <time>2013-04-14T10:43:16Z</time>
      </trkpt>
      <trkpt lat="48.66315" lon="6.11223">
        <ele>361</ele>
        <time>2013-04-14T10:43:18Z</time>
      </trkpt>
      <trkpt lat="48.66307" lon="6.11225">
        <ele>360</ele>
        <time>2013-04-14T10:43:20Z</time>
      </trkpt>
      <trkpt lat="48.663" lon="6.11229">
        <ele>365</ele>
        <time>2013-04-14T10:43:22Z</time>
      </trkpt>
      <trkpt lat="48.66291" lon="6.11233">
        <ele>367</ele>
        <time>2013-04-14T10:43:24Z</time>
      </trkpt>
      <trkpt lat="48.66285" lon="6.11237">
        <ele>366</ele>
        <time>2013-04-14T10:43:26Z</time>
      </trkpt>
      <trkpt lat="48.66279" lon="6.11239">
        <ele>365</ele>
        <time>2013-04-14T10:43:28Z</time>
      </trkpt>
      <trkpt lat="48.66272" lon="6.11238">
        <ele>367</ele>
        <time>2013-04-14T10:43:30Z</time>
      </trkpt>
      <trkpt lat="48.66266" lon="6.11233">
        <ele>359</ele>
        <time>2013-04-14T10:43:32Z</time>
      </trkpt>
      <trkpt lat="48.6626" lon="6.1123">
        <ele>358</ele>
        <time>2013-04-14T10:43:34Z</time>
      </trkpt>
      <trkpt lat="48.66254" lon="6.11229">
        <ele>360</ele>
        <time>2013-04-14T10:43:36Z</time>
      </trkpt>
      <trkpt lat="48.66249" lon="6.11227">
        <ele>364</ele>
        <time>2013-04-14T10:43:38Z</time>
      </trkpt>
      <trkpt lat="48.66244" lon="6.11223">
        <ele>363</ele>
        <time>2013-04-14T10:43:40Z</time>
      </trkpt>
      <trkpt lat="48.66238" lon="6.11219">
        <ele>362</ele>
        <time>2013-04-14T10:43:42Z</time>
      </trkpt>
      <trkpt lat="48.66233" lon="6.11215">
        <ele>359</ele>
        <time>2013-04-14T10:43:44Z</time>
      </trkpt>
      <trkpt lat="48.66225" lon="6.11209">
        <ele>360</ele>
        <time>2013-04-14T10:43:46Z</time>
      </trkpt>
      <trkpt lat="48.66219" lon="6.11203">
        <ele>358</ele>
        <time>2013-04-14T10:43:48Z</time>
      </trkpt>
      <trkpt lat="48.66215" lon="6.11198">
        <ele>361</ele>
        <time>2013-04-14T10:43:50Z</time>
      </trkpt>
      <trkpt lat="48.6621" lon="6.11195">
        <ele>364</ele>
        <time>2013-04-14T10:43:52Z</time>
      </trkpt>
      <trkpt lat="48.66202" lon="6.11194">
        <ele>357</ele>
        <time>2013-04-14T10:43:54Z</time>
      </trkpt>
      <trkpt lat="48.66194" lon="6.11193">
        <ele>354</ele>
        <time>2013-04-14T10:43:56Z</time>
      </trkpt>
      <trkpt lat="48.66185" lon="6.11197">
        <ele>345</ele>
        <time>2013-04-14T10:43:58Z</time>
      </trkpt>
      <trkpt lat="48.66177" lon="6.11203">
        <ele>345</ele>
        <time>2013-04-14T10:44:00Z</time>
      </trkpt>
      <trkpt lat="48.66172" lon="6.1121">
        <ele>342</ele>
        <time>2013-04-14T10:44:02Z</time>
      </trkpt>
      <trkpt lat="48.66168" lon="6.11221">
        <ele>345</ele>
        <time>2013-04-14T10:44:04Z</time>
      </trkpt>
      <trkpt lat="48.66163" lon="6.11232">
        <ele>346</ele>
        <time>2013-04-14T10:44:06Z</time>
      </trkpt>
      <trkpt lat="48.66158" lon="6.11241">
        <ele>347</ele>
        <time>2013-04-14T10:44:08Z</time>
      </trkpt>
      <trkpt lat="48.66154" lon="6.11248">
        <ele>348</ele>
        <time>2013-04-14T10:44:10Z</time>
      </trkpt>
      <trkpt lat="48.6615" lon="6.11255">
        <ele>351</ele>
        <time>2013-04-14T10:44:12Z</time>
      </trkpt>
      <trkpt lat="48.66148" lon="6.11261">
        <ele>349</ele>
        <time>2013-04-14T10:44:14Z</time>
      </trkpt>
      <trkpt lat="48.66145" lon="6.11268">
        <ele>348</ele>
        <time>2013-04-14T10:44:16Z</time>
      </trkpt>
      <trkpt lat="48.6614" lon="6.11274">
        <ele>351</ele>
        <time>2013-04-14T10:44:18Z</time>
      </trkpt>
      <trkpt lat="48.66137" lon="6.1128">
        <ele>351</ele>
        <time>2013-04-14T10:44:20Z</time>
      </trkpt>
      <trkpt lat="48.66132" lon="6.11287">
        <ele>350</ele>
        <time>2013-04-14T10:44:22Z</time>
      </trkpt>
      <trkpt lat="48.66127" lon="6.11294">
        <ele>353</ele>
        <time>2013-04-14T10:44:24Z</time>
      </trkpt>
      <trkpt lat="48.66122" lon="6.11301">
        <ele>358</ele>
        <time>2013-04-14T10:44:26Z</time>
      </trkpt>
      <trkpt lat="48.66118" lon="6.11307">
        <ele>361</ele>
        <time>2013-04-14T10:44:28Z</time>
      </trkpt>
      <trkpt lat="48.66112" lon="6.11311">
        <ele>360</ele>
        <time>2013-04-14T10:44:30Z</time>
      </trkpt>
      <trkpt lat="48.66106" lon="6.11314">
        <ele>359</ele>
        <time>2013-04-14T10:44:32Z</time>
      </trkpt>
      <trkpt lat="48.661" lon="6.11318">
        <ele>363</ele>
        <time>2013-04-14T10:44:34Z</time>
      </trkpt>
      <trkpt lat="48.66094" lon="6.11322">
        <ele>358</ele>
        <time>2013-04-14T10:44:36Z</time>
      </trkpt>
      <trkpt lat="48.66087" lon="6.11327">
        <ele>356</ele>
        <time>2013-04-14T10:44:38Z</time>
      </trkpt>
      <trkpt lat="48.66081" lon="6.11333">
        <ele>355</ele>
        <time>2013-04-14T10:44:40Z</time>
      </trkpt>
      <trkpt lat="48.66074" lon="6.11337">
        <ele>357</ele>
        <time>2013-04-14T10:44:42Z</time>
      </trkpt>
      <trkpt lat="48.66068" lon="6.1134">
        <ele>355</ele>
        <time>2013-04-14T10:44:44Z</time>
      </trkpt>
      <trkpt lat="48.66061" lon="6.11342">
        <ele>357</ele>
        <time>2013-04-14T10:44:46Z</time>
      </trkpt>
      <trkpt lat="48.66054" lon="6.11345">
        <ele>357</ele>
        <time>2013-04-14T10:44:48Z</time>
      </trkpt>
      <trkpt lat="48.66047" lon="6.11347">
        <ele>354</ele>
        <time>2013-04-14T10:44:50Z</time>
      </trkpt>
      <trkpt lat="48.6604" lon="6.11351">
        <ele>353</ele>
        <time>2013-04-14T10:44:52Z</time>
      </trkpt>
      <trkpt lat="48.66032" lon="6.11357">
        <ele>352</ele>
        <time>2013-04-14T10:44:54Z</time>
      </trkpt>
      <trkpt lat="48.66025" lon="6.11363">
        <ele>357</ele>
        <time>2013-04-14T10:44:56Z</time>
      </trkpt>
      <trkpt lat="48.66018" lon="6.1137">
        <ele>356</ele>
        <time>2013-04-14T10:44:58Z</time>
      </trkpt>
      <trkpt lat="48.66011" lon="6.11375">
        <ele>357</ele>
        <time>2013-04-14T10:45:00Z</time>
      </trkpt>
      <trkpt lat="48.66004" lon="6.1138">
        <ele>356</ele>
        <time>2013-04-14T10:45:02Z</time>
      </trkpt>
      <trkpt lat="48.65997" lon="6.11384">
        <ele>356</ele>
        <time>2013-04-14T10:45:04Z</time>
      </trkpt>
      <trkpt lat="48.6599" lon="6.11388">
        <ele>355</ele>
        <time>2013-04-14T10:45:06Z</time>
      </trkpt>
      <trkpt lat="48.65983" lon="6.11391">
        <ele>356</ele>
        <time>2013-04-14T10:45:08Z</time>
      </trkpt>
      <trkpt lat="48.65975" lon="6.11396">
        <ele>358</ele>
        <time>2013-04-14T10:45:10Z</time>
      </trkpt>
      <trkpt lat="48.65966" lon="6.11405">
        <ele>357</ele>
        <time>2013-04-14T10:45:12Z</time>
      </trkpt>
      <trkpt lat="48.65956" lon="6.11415">
        <ele>358</ele>
        <time>2013-04-14T10:45:14Z</time>
      </trkpt>
      <trkpt lat="48.65947" lon="6.11426">
        <ele>359</ele>
        <time>2013-04-14T10:45:16Z</time>
      </trkpt>
      <trkpt lat="48.65936" lon="6.11437">
        <ele>359</ele>
        <time>2013-04-14T10:45:18Z</time>
      </trkpt>
      <trkpt lat="48.65925" lon="6.11449">
        <ele>359</ele>
        <time>2013-04-14T10:45:20Z</time>
      </trkpt>
      <trkpt lat="48.65915" lon="6.1146">
        <ele>354</ele>
        <time>2013-04-14T10:45:22Z</time>
      </trkpt>
      <trkpt lat="48.65905" lon="6.11469">
        <ele>355</ele>
        <time>2013-04-14T10:45:24Z</time>
      </trkpt>
      <trkpt lat="48.65895" lon="6.11477">
        <ele>352</ele>
        <time>2013-04-14T10:45:26Z</time>
      </trkpt>
      <trkpt lat="48.65888" lon="6.11483">
        <ele>352</ele>
        <time>2013-04-14T10:45:28Z</time>
      </trkpt>
      <trkpt lat="48.65883" lon="6.1149">
        <ele>356</ele>
        <time>2013-04-14T10:45:30Z</time>
      </trkpt>
      <trkpt lat="48.65879" lon="6.11497">
        <ele>357</ele>
        <time>2013-04-14T10:45:32Z</time>
      </trkpt>
      <trkpt lat="48.65875" lon="6.11504">
        <ele>357</ele>
        <time>2013-04-14T10:45:34Z</time>
      </trkpt>
      <trkpt lat="48.65874" lon="6.11513">
        <ele>358</ele>
        <time>2013-04-14T10:45:36Z</time>
      </trkpt>
      <trkpt lat="48.65872" lon="6.11526">
        <ele>355</ele>
        <time>2013-04-14T10:45:38Z</time>
      </trkpt>
      <trkpt lat="48.65871" lon="6.11542">
        <ele>354</ele>
        <time>2013-04-14T10:45:40Z</time>
      </trkpt>
      <trkpt lat="48.65872" lon="6.11555">
        <ele>352</ele>
        <time>2013-04-14T10:45:42Z</time>
      </trkpt>
      <trkpt lat="48.65874" lon="6.11569">
        <ele>350</ele>
        <time>2013-04-14T10:45:44Z</time>
      </trkpt>
      <trkpt lat="48.65876" lon="6.11585">
        <ele>351</ele>
        <time>2013-04-14T10:45:46Z</time>
      </trkpt>
      <trkpt lat="48.65877" lon="6.11602">
        <ele>353</ele>
        <time>2013-04-14T10:45:48Z</time>
      </trkpt>
      <trkpt lat="48.65878" lon="6.1162">
        <ele>352</ele>
        <time>2013-04-14T10:45:50Z</time>
      </trkpt>
      <trkpt lat="48.65879" lon="6.11642">
        <ele>345</ele>
        <time>2013-04-14T10:45:52Z</time>
      </trkpt>
      <trkpt lat="48.6588" lon="6.11663">
        <ele>339</ele>
        <time>2013-04-14T10:45:54Z</time>
      </trkpt>
      <trkpt lat="48.65882" lon="6.11686">
        <ele>338</ele>
        <time>2013-04-14T10:45:56Z</time>
      </trkpt>
      <trkpt lat="48.65884" lon="6.11705">
        <ele>337</ele>
        <time>2013-04-14T10:45:58Z</time>
      </trkpt>
      <trkpt lat="48.65885" lon="6.11725">
        <ele>334</ele>
        <time>2013-04-14T10:46:00Z</time>
      </trkpt>
      <trkpt lat="48.65887" lon="6.11745">
        <ele>335</ele>
        <time>2013-04-14T10:46:02Z</time>
      </trkpt>
      <trkpt lat="48.65887" lon="6.11763">
        <ele>337</ele>
        <time>2013-04-14T10:46:04Z</time>
      </trkpt>
      <trkpt lat="48.65887" lon="6.11779">
        <ele>339</ele>
        <time>2013-04-14T10:46:06Z</time>
      </trkpt>
      <trkpt lat="48.65886" lon="6.11792">
        <ele>339</ele>
        <time>2013-04-14T10:46:08Z</time>
      </trkpt>
      <trkpt lat="48.65885" lon="6.11801">
        <ele>336</ele>
        <time>2013-04-14T10:46:10Z</time>
      </trkpt>
      <trkpt lat="48.65883" lon="6.11807">
        <ele>338</ele>
        <time>2013-04-14T10:46:12Z</time>
      </trkpt>
      <trkpt lat="48.65882" lon="6.11812">
        <ele>337</ele>
        <time>2013-04-14T10:46:14Z</time>
      </trkpt>
      <trkpt lat="48.65881" lon="6.11818">
        <ele>336</ele>
        <time>2013-04-14T10:46:16Z</time>
      </trkpt>
      <trkpt lat="48.65879" lon="6.11826">
        <ele>340</ele>
        <time>2013-04-14T10:46:18Z</time>
      </trkpt>
      <trkpt lat="48.65877" lon="6.11833">
        <ele>343</ele>
        <time>2013-04-14T10:46:20Z</time>
      </trkpt>
      <trkpt lat="48.65877" lon="6.11838">
        <ele>343</ele>
        <time>2013-04-14T10:46:21Z</time>
      </trkpt>
      <trkpt lat="48.65877" lon="6.11843">
        <ele>346</ele>
        <time>2013-04-14T10:46:23Z</time>
      </trkpt>
      <trkpt lat="48.65876" lon="6.11849">
        <ele>347</ele>
        <time>2013-04-14T10:46:25Z</time>
      </trkpt>
      <trkpt lat="48.65875" lon="6.11856">
        <ele>343</ele>
        <time>2013-04-14T10:46:27Z</time>
      </trkpt>
      <trkpt lat="48.65873" lon="6.11862">
        <ele>340</ele>
        <time>2013-04-14T10:46:29Z</time>
      </trkpt>
      <trkpt lat="48.65871" lon="6.11874">
        <ele>340</ele>
        <time>2013-04-14T10:46:33Z</time>
      </trkpt>
      <trkpt lat="48.65869" lon="6.11887">
        <ele>346</ele>
        <time>2013-04-14T10:46:37Z</time>
      </trkpt>
      <trkpt lat="48.65867" lon="6.11894">
        <ele>342</ele>
        <time>2013-04-14T10:46:39Z</time>
      </trkpt>
      <trkpt lat="48.65865" lon="6.11903">
        <ele>345</ele>
        <time>2013-04-14T10:46:41Z</time>
      </trkpt>
      <trkpt lat="48.65864" lon="6.1191">
        <ele>347</ele>
        <time>2013-04-14T10:46:43Z</time>
      </trkpt>
      <trkpt lat="48.65862" lon="6.11922">
        <ele>340</ele>
        <time>2013-04-14T10:46:47Z</time>
      </trkpt>
      <trkpt lat="48.6586" lon="6.1193">
        <ele>340</ele>
        <time>2013-04-14T10:46:49Z</time>
      </trkpt>
      <trkpt lat="48.65858" lon="6.11937">
        <ele>341</ele>
        <time>2013-04-14T10:46:51Z</time>
      </trkpt>
      <trkpt lat="48.65857" lon="6.11944">
        <ele>340</ele>
        <time>2013-04-14T10:46:53Z</time>
      </trkpt>
      <trkpt lat="48.65855" lon="6.11951">
        <ele>341</ele>
        <time>2013-04-14T10:46:55Z</time>
      </trkpt>
      <trkpt lat="48.65853" lon="6.11957">
        <ele>342</ele>
        <time>2013-04-14T10:46:57Z</time>
      </trkpt>
      <trkpt lat="48.65852" lon="6.11964">
        <ele>348</ele>
        <time>2013-04-14T10:46:59Z</time>
      </trkpt>
      <trkpt lat="48.65851" lon="6.1197">
        <ele>352</ele>
        <time>2013-04-14T10:47:01Z</time>
      </trkpt>
      <trkpt lat="48.6585" lon="6.11977">
        <ele>351</ele>
        <time>2013-04-14T10:47:03Z</time>
      </trkpt>
      <trkpt lat="48.65848" lon="6.11983">
        <ele>353</ele>
        <time>2013-04-14T10:47:05Z</time>
      </trkpt>
      <trkpt lat="48.65846" lon="6.1199">
        <ele>354</ele>
        <time>2013-04-14T10:47:07Z</time>
      </trkpt>
      <trkpt lat="48.65844" lon="6.11997">
        <ele>354</ele>
        <time>2013-04-14T10:47:09Z</time>
      </trkpt>
      <trkpt lat="48.65842" lon="6.12002">
        <ele>360</ele>
        <time>2013-04-14T10:47:11Z</time>
      </trkpt>
      <trkpt lat="48.65841" lon="6.12008">
        <ele>358</ele>
        <time>2013-04-14T10:47:13Z</time>
      </trkpt>
      <trkpt lat="48.65841" lon="6.12023">
        <ele>357</ele>
        <time>2013-04-14T10:47:17Z</time>
      </trkpt>
      <trkpt lat="48.6584" lon="6.12032">
        <ele>356</ele>
        <time>2013-04-14T10:47:19Z</time>
      </trkpt>
      <trkpt lat="48.65839" lon="6.1204">
        <ele>356</ele>
        <time>2013-04-14T10:47:21Z</time>
      </trkpt>
      <trkpt lat="48.65839" lon="6.12047">
        <ele>354</ele>
        <time>2013-04-14T10:47:23Z</time>
      </trkpt>
      <trkpt lat="48.65839" lon="6.12055">
        <ele>356</ele>
        <time>2013-04-14T10:47:25Z</time>
      </trkpt>
      <trkpt lat="48.6584" lon="6.12063">
        <ele>354</ele>
        <time>2013-04-14T10:47:27Z</time>
      </trkpt>
      <trkpt lat="48.65841" lon="6.12071">
        <ele>358</ele>
        <time>2013-04-14T10:47:29Z</time>
      </trkpt>
      <trkpt lat="48.65842" lon="6.12081">
        <ele>359</ele>
        <time>2013-04-14T10:47:31Z</time>
      </trkpt>
      <trkpt lat="48.65844" lon="6.12091">
        <ele>361</ele>
        <time>2013-04-14T10:47:33Z</time>
      </trkpt>
      <trkpt lat="48.65845" lon="6.12101">
        <ele>362</ele>
        <time>2013-04-14T10:47:35Z</time>
      </trkpt>
      <trkpt lat="48.65846" lon="6.12109">
        <ele>364</ele>
        <time>2013-04-14T10:47:37Z</time>
      </trkpt>
      <trkpt lat="48.65847" lon="6.12119">
        <ele>360</ele>
        <time>2013-04-14T10:47:39Z</time>
      </trkpt>
      <trkpt lat="48.65848" lon="6.12127">
        <ele>357</ele>
        <time>2013-04-14T10:47:41Z</time>
      </trkpt>
      <trkpt lat="48.65847" lon="6.12136">
        <ele>357</ele>
        <time>2013-04-14T10:47:43Z</time>
      </trkpt>
      <trkpt lat="48.65846" lon="6.12144">
        <ele>359</ele>
        <time>2013-04-14T10:47:45Z</time>
      </trkpt>
      <trkpt lat="48.65847" lon="6.12152">
        <ele>359</ele>
        <time>2013-04-14T10:47:47Z</time>
      </trkpt>
      <trkpt lat="48.65849" lon="6.12159">
        <ele>355</ele>
        <time>2013-04-14T10:47:49Z</time>
      </trkpt>
      <trkpt lat="48.6585" lon="6.12166">
        <ele>359</ele>
        <time>2013-04-14T10:47:51Z</time>
      </trkpt>
      <trkpt lat="48.65852" lon="6.12174">
        <ele>359</ele>
        <time>2013-04-14T10:47:53Z</time>
      </trkpt>
      <trkpt lat="48.65853" lon="6.12182">
        <ele>359</ele>
        <time>2013-04-14T10:47:55Z</time>
      </trkpt>
      <trkpt lat="48.65855" lon="6.12191">
        <ele>358</ele>
        <time>2013-04-14T10:47:57Z</time>
      </trkpt>
      <trkpt lat="48.65857" lon="6.12199">
        <ele>359</ele>
        <time>2013-04-14T10:47:59Z</time>
      </trkpt>
      <trkpt lat="48.65858" lon="6.12207">
        <ele>360</ele>
        <time>2013-04-14T10:48:01Z</time>
      </trkpt>
      <trkpt lat="48.65859" lon="6.12216">
        <ele>361</ele>
        <time>2013-04-14T10:48:03Z</time>
      </trkpt>
      <trkpt lat="48.65862" lon="6.12224">
        <ele>362</ele>
        <time>2013-04-14T10:48:05Z</time>
      </trkpt>
      <trkpt lat="48.65864" lon="6.12234">
        <ele>359</ele>
        <time>2013-04-14T10:48:07Z</time>
      </trkpt>
      <trkpt lat="48.65866" lon="6.12242">
        <ele>360</ele>
        <time>2013-04-14T10:48:09Z</time>
      </trkpt>
      <trkpt lat="48.65869" lon="6.1225">
        <ele>362</ele>
        <time>2013-04-14T10:48:11Z</time>
      </trkpt>
      <trkpt lat="48.65871" lon="6.12258">
        <ele>363</ele>
        <time>2013-04-14T10:48:13Z</time>
      </trkpt>
      <trkpt lat="48.65873" lon="6.12265">
        <ele>363</ele>
        <time>2013-04-14T10:48:15Z</time>
      </trkpt>
      <trkpt lat="48.65876" lon="6.12272">
        <ele>363</ele>
        <time>2013-04-14T10:48:17Z</time>
      </trkpt>
      <trkpt lat="48.65878" lon="6.1228">
        <ele>363</ele>
        <time>2013-04-14T10:48:19Z</time>
      </trkpt>
      <trkpt lat="48.65881" lon="6.12287">
        <ele>364</ele>
        <time>2013-04-14T10:48:21Z</time>
      </trkpt>
      <trkpt lat="48.65884" lon="6.12296">
        <ele>364</ele>
        <time>2013-04-14T10:48:23Z</time>
      </trkpt>
      <trkpt lat="48.65887" lon="6.12304">
        <ele>364</ele>
        <time>2013-04-14T10:48:25Z</time>
      </trkpt>
      <trkpt lat="48.65891" lon="6.12313">
        <ele>362</ele>
        <time>2013-04-14T10:48:27Z</time>
      </trkpt>
      <trkpt lat="48.65894" lon="6.12321">
        <ele>363</ele>
        <time>2013-04-14T10:48:29Z</time>
      </trkpt>
      <trkpt lat="48.65897" lon="6.12329">
        <ele>364</ele>
        <time>2013-04-14T10:48:31Z</time>
      </trkpt>
      <trkpt lat="48.659" lon="6.12338">
        <ele>363</ele>
        <time>2013-04-14T10:48:33Z</time>
      </trkpt>
      <trkpt lat="48.65903" lon="6.12347">
        <ele>364</ele>
        <time>2013-04-14T10:48:35Z</time>
      </trkpt>
      <trkpt lat="48.65906" lon="6.12355">
        <ele>365</ele>
        <time>2013-04-14T10:48:37Z</time>
      </trkpt>
      <trkpt lat="48.65909" lon="6.12364">
        <ele>364</ele>
        <time>2013-04-14T10:48:39Z</time>
      </trkpt>
      <trkpt lat="48.65912" lon="6.12373">
        <ele>365</ele>
        <time>2013-04-14T10:48:41Z</time>
      </trkpt>
      <trkpt lat="48.65915" lon="6.12383">
        <ele>365</ele>
        <time>2013-04-14T10:48:43Z</time>
      </trkpt>
      <trkpt lat="48.65918" lon="6.12394">
        <ele>364</ele>
        <time>2013-04-14T10:48:45Z</time>
      </trkpt>
      <trkpt lat="48.6592" lon="6.12404">
        <ele>365</ele>
        <time>2013-04-14T10:48:47Z</time>
      </trkpt>
      <trkpt lat="48.65922" lon="6.12415">
        <ele>365</ele>
        <time>2013-04-14T10:48:49Z</time>
      </trkpt>
      <trkpt lat="48.65924" lon="6.12425">
        <ele>365</ele>
        <time>2013-04-14T10:48:51Z</time>
      </trkpt>
      <trkpt lat="48.65926" lon="6.12435">
        <ele>366</ele>
        <time>2013-04-14T10:48:53Z</time>
      </trkpt>
      <trkpt lat="48.65928" lon="6.12445">
        <ele>362</ele>
        <time>2013-04-14T10:48:55Z</time>
      </trkpt>
      <trkpt lat="48.65931" lon="6.12453">
        <ele>362</ele>
        <time>2013-04-14T10:48:57Z</time>
      </trkpt>
      <trkpt lat="48.65934" lon="6.12462">
        <ele>361</ele>
        <time>2013-04-14T10:48:59Z</time>
      </trkpt>
      <trkpt lat="48.65937" lon="6.12471">
        <ele>361</ele>
        <time>2013-04-14T10:49:01Z</time>
      </trkpt>
      <trkpt lat="48.6594" lon="6.1248">
        <ele>362</ele>
        <time>2013-04-14T10:49:03Z</time>
      </trkpt>
      <trkpt lat="48.65943" lon="6.12489">
        <ele>362</ele>
        <time>2013-04-14T10:49:05Z</time>
      </trkpt>
      <trkpt lat="48.65946" lon="6.12499">
        <ele>363</ele>
        <time>2013-04-14T10:49:07Z</time>
      </trkpt>
      <trkpt lat="48.65949" lon="6.12509">
        <ele>362</ele>
        <time>2013-04-14T10:49:09Z</time>
      </trkpt>
      <trkpt lat="48.65952" lon="6.12518">
        <ele>366</ele>
        <time>2013-04-14T10:49:11Z</time>
      </trkpt>
      <trkpt lat="48.65956" lon="6.12527">
        <ele>367</ele>
        <time>2013-04-14T10:49:13Z</time>
      </trkpt>
      <trkpt lat="48.6596" lon="6.12535">
        <ele>367</ele>
        <time>2013-04-14T10:49:15Z</time>
      </trkpt>
      <trkpt lat="48.65964" lon="6.12544">
        <ele>364</ele>
        <time>2013-04-14T10:49:17Z</time>
      </trkpt>
      <trkpt lat="48.65969" lon="6.12554">
        <ele>359</ele>
        <time>2013-04-14T10:49:19Z</time>
      </trkpt>
      <trkpt lat="48.65973" lon="6.12564">
        <ele>358</ele>
        <time>2013-04-14T10:49:21Z</time>
      </trkpt>
      <trkpt lat="48.65976" lon="6.12573">
        <ele>361</ele>
        <time>2013-04-14T10:49:23Z</time>
      </trkpt>
      <trkpt lat="48.65981" lon="6.1258">
        <ele>365</ele>
        <time>2013-04-14T10:49:25Z</time>
      </trkpt>
      <trkpt lat="48.65985" lon="6.12587">
        <ele>367</ele>
        <time>2013-04-14T10:49:27Z</time>
      </trkpt>
      <trkpt lat="48.6599" lon="6.12594">
        <ele>366</ele>
        <time>2013-04-14T10:49:29Z</time>
      </trkpt>
      <trkpt lat="48.65993" lon="6.12602">
        <ele>362</ele>
        <time>2013-04-14T10:49:31Z</time>
      </trkpt>
      <trkpt lat="48.65997" lon="6.12609">
        <ele>362</ele>
        <time>2013-04-14T10:49:33Z</time>
      </trkpt>
      <trkpt lat="48.66002" lon="6.12616">
        <ele>361</ele>
        <time>2013-04-14T10:49:35Z</time>
      </trkpt>
      <trkpt lat="48.66006" lon="6.12623">
        <ele>363</ele>
        <time>2013-04-14T10:49:37Z</time>
      </trkpt>
      <trkpt lat="48.6601" lon="6.12629">
        <ele>362</ele>
        <time>2013-04-14T10:49:39Z</time>
      </trkpt>
      <trkpt lat="48.66012" lon="6.12637">
        <ele>362</ele>
        <time>2013-04-14T10:49:41Z</time>
      </trkpt>
      <trkpt lat="48.66015" lon="6.12646">
        <ele>365</ele>
        <time>2013-04-14T10:49:43Z</time>
      </trkpt>
      <trkpt lat="48.66017" lon="6.12655">
        <ele>365</ele>
        <time>2013-04-14T10:49:45Z</time>
      </trkpt>
      <trkpt lat="48.66019" lon="6.12664">
        <ele>368</ele>
        <time>2013-04-14T10:49:47Z</time>
      </trkpt>
      <trkpt lat="48.66022" lon="6.12673">
        <ele>369</ele>
        <time>2013-04-14T10:49:49Z</time>
      </trkpt>
      <trkpt lat="48.66024" lon="6.12681">
        <ele>369</ele>
        <time>2013-04-14T10:49:51Z</time>
      </trkpt>
      <trkpt lat="48.66027" lon="6.12689">
        <ele>373</ele>
        <time>2013-04-14T10:49:53Z</time>
      </trkpt>
      <trkpt lat="48.6603" lon="6.12697">
        <ele>374</ele>
        <time>2013-04-14T10:49:55Z</time>
      </trkpt>
      <trkpt lat="48.66032" lon="6.12708">
        <ele>374</ele>
        <time>2013-04-14T10:49:57Z</time>
      </trkpt>
      <trkpt lat="48.66036" lon="6.12719">
        <ele>377</ele>
        <time>2013-04-14T10:49:59Z</time>
      </trkpt>
      <trkpt lat="48.66037" lon="6.1273">
        <ele>378</ele>
        <time>2013-04-14T10:50:01Z</time>
      </trkpt>
      <trkpt lat="48.66039" lon="6.12739">
        <ele>379</ele>
        <time>2013-04-14T10:50:03Z</time>
      </trkpt>
      <trkpt lat="48.66041" lon="6.12749">
        <ele>379</ele>
        <time>2013-04-14T10:50:05Z</time>
      </trkpt>
      <trkpt lat="48.66044" lon="6.12758">
        <ele>380</ele>
        <time>2013-04-14T10:50:07Z</time>
      </trkpt>
      <trkpt lat="48.66046" lon="6.1277">
        <ele>380</ele>
        <time>2013-04-14T10:50:09Z</time>
      </trkpt>
      <trkpt lat="48.66048" lon="6.12781">
        <ele>377</ele>
        <time>2013-04-14T10:50:11Z</time>
      </trkpt>
      <trkpt lat="48.66051" lon="6.12792">
        <ele>377</ele>
        <time>2013-04-14T10:50:13Z</time>
      </trkpt>
      <trkpt lat="48.66055" lon="6.12802">
        <ele>376</ele>
        <time>2013-04-14T10:50:15Z</time>
      </trkpt>
      <trkpt lat="48.66057" lon="6.12813">
        <ele>374</ele>
        <time>2013-04-14T10:50:17Z</time>
      </trkpt>
      <trkpt lat="48.6606" lon="6.12825">
        <ele>371</ele>
        <time>2013-04-14T10:50:19Z</time>
      </trkpt>
      <trkpt lat="48.66063" lon="6.12838">
        <ele>368</ele>
        <time>2013-04-14T10:50:21Z</time>
      </trkpt>
      <trkpt lat="48.66066" lon="6.12851">
        <ele>367</ele>
        <time>2013-04-14T10:50:23Z</time>
      </trkpt>
      <trkpt lat="48.66069" lon="6.12862">
        <ele>365</ele>
        <time>2013-04-14T10:50:25Z</time>
      </trkpt>
      <trkpt lat="48.6607" lon="6.12873">
        <ele>363</ele>
        <time>2013-04-14T10:50:27Z</time>
      </trkpt>
      <trkpt lat="48.66072" lon="6.12884">
        <ele>366</ele>
        <time>2013-04-14T10:50:29Z</time>
      </trkpt>
      <trkpt lat="48.66073" lon="6.12897">
        <ele>366</ele>
        <time>2013-04-14T10:50:31Z</time>
      </trkpt>
      <trkpt lat="48.66074" lon="6.12909">
        <ele>367</ele>
        <time>2013-04-14T10:50:33Z</time>
      </trkpt>
      <trkpt lat="48.66078" lon="6.12919">
        <ele>367</ele>
        <time>2013-04-14T10:50:35Z</time>
      </trkpt>
      <trkpt lat="48.66084" lon="6.1293">
        <ele>366</ele>
        <time>2013-04-14T10:50:37Z</time>
      </trkpt>
      <trkpt lat="48.6609" lon="6.12941">
        <ele>366</ele>
        <time>2013-04-14T10:50:39Z</time>
      </trkpt>
      <trkpt lat="48.66095" lon="6.12952">
        <ele>365</ele>
        <time>2013-04-14T10:50:41Z</time>
      </trkpt>
      <trkpt lat="48.66099" lon="6.12963">
        <ele>364</ele>
        <time>2013-04-14T10:50:43Z</time>
      </trkpt>
      <trkpt lat="48.66103" lon="6.12974">
        <ele>362</ele>
        <time>2013-04-14T10:50:45Z</time>
      </trkpt>
      <trkpt lat="48.66108" lon="6.12986">
        <ele>362</ele>
        <time>2013-04-14T10:50:47Z</time>
      </trkpt>
      <trkpt lat="48.66112" lon="6.12997">
        <ele>363</ele>
        <time>2013-04-14T10:50:49Z</time>
      </trkpt>
      <trkpt lat="48.66116" lon="6.13009">
        <ele>363</ele>
        <time>2013-04-14T10:50:51Z</time>
      </trkpt>
      <trkpt lat="48.66121" lon="6.1302">
        <ele>363</ele>
        <time>2013-04-14T10:50:53Z</time>
      </trkpt>
      <trkpt lat="48.66125" lon="6.13031">
        <ele>361</ele>
        <time>2013-04-14T10:50:55Z</time>
      </trkpt>
      <trkpt lat="48.6613" lon="6.13042">
        <ele>362</ele>
        <time>2013-04-14T10:50:57Z</time>
      </trkpt>
      <trkpt lat="48.66135" lon="6.13054">
        <ele>362</ele>
        <time>2013-04-14T10:50:59Z</time>
      </trkpt>
      <trkpt lat="48.66141" lon="6.13067">
        <ele>362</ele>
        <time>2013-04-14T10:51:01Z</time>
      </trkpt>
      <trkpt lat="48.66147" lon="6.13081">
        <ele>363</ele>
        <time>2013-04-14T10:51:03Z</time>
      </trkpt>
      <trkpt lat="48.66153" lon="6.13094">
        <ele>362</ele>
        <time>2013-04-14T10:51:05Z</time>
      </trkpt>
      <trkpt lat="48.66159" lon="6.13108">
        <ele>362</ele>
        <time>2013-04-14T10:51:07Z</time>
      </trkpt>
      <trkpt lat="48.66165" lon="6.13122">
        <ele>364</ele>
        <time>2013-04-14T10:51:09Z</time>
      </trkpt>
      <trkpt lat="48.66171" lon="6.13136">
        <ele>362</ele>
        <time>2013-04-14T10:51:11Z</time>
      </trkpt>
      <trkpt lat="48.66179" lon="6.13151">
        <ele>360</ele>
        <time>2013-04-14T10:51:13Z</time>
      </trkpt>
      <trkpt lat="48.66186" lon="6.13167">
        <ele>361</ele>
        <time>2013-04-14T10:51:15Z</time>
      </trkpt>
      <trkpt lat="48.66195" lon="6.13182">
        <ele>359</ele>
        <time>2013-04-14T10:51:17Z</time>
      </trkpt>
      <trkpt lat="48.66204" lon="6.13194">
        <ele>359</ele>
        <time>2013-04-14T10:51:19Z</time>
      </trkpt>
      <trkpt lat="48.66213" lon="6.13208">
        <ele>360</ele>
        <time>2013-04-14T10:51:21Z</time>
      </trkpt>
      <trkpt lat="48.66222" lon="6.13222">
        <ele>361</ele>
        <time>2013-04-14T10:51:23Z</time>
      </trkpt>
      <trkpt lat="48.66232" lon="6.13237">
        <ele>362</ele>
        <time>2013-04-14T10:51:25Z</time>
      </trkpt>
      <trkpt lat="48.66243" lon="6.13252">
        <ele>362</ele>
        <time>2013-04-14T10:51:27Z</time>
      </trkpt>
      <trkpt lat="48.66254" lon="6.13268">
        <ele>361</ele>
        <time>2013-04-14T10:51:29Z</time>
      </trkpt>
      <trkpt lat="48.66267" lon="6.13284">
        <ele>360</ele>
        <time>2013-04-14T10:51:31Z</time>
      </trkpt>
      <trkpt lat="48.66282" lon="6.13294">
        <ele>358</ele>
        <time>2013-04-14T10:51:33Z</time>
      </trkpt>
      <trkpt lat="48.66295" lon="6.13305">
        <ele>357</ele>
        <time>2013-04-14T10:51:35Z</time>
      </trkpt>
      <trkpt lat="48.6631" lon="6.13318">
        <ele>359</ele>
        <time>2013-04-14T10:51:37Z</time>
      </trkpt>
      <trkpt lat="48.66325" lon="6.13334">
        <ele>357</ele>
        <time>2013-04-14T10:51:39Z</time>
      </trkpt>
      <trkpt lat="48.66339" lon="6.13346">
        <ele>358</ele>
        <time>2013-04-14T10:51:41Z</time>
      </trkpt>
      <trkpt lat="48.6635" lon="6.13356">
        <ele>356</ele>
        <time>2013-04-14T10:51:43Z</time>
      </trkpt>
      <trkpt lat="48.66363" lon="6.13362">
        <ele>357</ele>
        <time>2013-04-14T10:51:45Z</time>
      </trkpt>
      <trkpt lat="48.66377" lon="6.13367">
        <ele>359</ele>
        <time>2013-04-14T10:51:47Z</time>
      </trkpt>
      <trkpt lat="48.66393" lon="6.13372">
        <ele>360</ele>
        <time>2013-04-14T10:51:49Z</time>
      </trkpt>
      <trkpt lat="48.66411" lon="6.13379">
        <ele>357</ele>
        <time>2013-04-14T10:51:51Z</time>
      </trkpt>
      <trkpt lat="48.66431" lon="6.13385">
        <ele>352</ele>
        <time>2013-04-14T10:51:53Z</time>
      </trkpt>
      <trkpt lat="48.66453" lon="6.13395">
        <ele>355</ele>
        <time>2013-04-14T10:51:55Z</time>
      </trkpt>
      <trkpt lat="48.66476" lon="6.1341">
        <ele>357</ele>
        <time>2013-04-14T10:51:57Z</time>
      </trkpt>
      <trkpt lat="48.66501" lon="6.13428">
        <ele>348</ele>
        <time>2013-04-14T10:51:59Z</time>
      </trkpt>
      <trkpt lat="48.66526" lon="6.13447">
        <ele>343</ele>
        <time>2013-04-14T10:52:01Z</time>
      </trkpt>
      <trkpt lat="48.66549" lon="6.13463">
        <ele>341</ele>
        <time>2013-04-14T10:52:03Z</time>
      </trkpt>
      <trkpt lat="48.66564" lon="6.13474">
        <ele>340</ele>
        <time>2013-04-14T10:52:05Z</time>
      </trkpt>
      <trkpt lat="48.66574" lon="6.13481">
        <ele>336</ele>
        <time>2013-04-14T10:52:07Z</time>
      </trkpt>
      <trkpt lat="48.66581" lon="6.13483">
        <ele>336</ele>
        <time>2013-04-14T10:52:09Z</time>
      </trkpt>
      <trkpt lat="48.66587" lon="6.13484">
        <ele>335</ele>
        <time>2013-04-14T10:52:11Z</time>
      </trkpt>
      <trkpt lat="48.66591" lon="6.13483">
        <ele>335</ele>
        <time>2013-04-14T10:52:13Z</time>
      </trkpt>
      <trkpt lat="48.66596" lon="6.13473">
        <ele>329</ele>
        <time>2013-04-14T10:52:17Z</time>
      </trkpt>
      <trkpt lat="48.66597" lon="6.13467">
        <ele>334</ele>
        <time>2013-04-14T10:52:19Z</time>
      </trkpt>
      <trkpt lat="48.66603" lon="6.13454">
        <ele>340</ele>
        <time>2013-04-14T10:52:27Z</time>
      </trkpt>
      <trkpt lat="48.66619" lon="6.13445">
        <ele>340</ele>
        <time>2013-04-14T10:52:37Z</time>
      </trkpt>
      <trkpt lat="48.66632" lon="6.1344">
        <ele>340</ele>
        <time>2013-04-14T10:52:43Z</time>
      </trkpt>
      <trkpt lat="48.66636" lon="6.13436">
        <ele>343</ele>
        <time>2013-04-14T10:52:45Z</time>
      </trkpt>
      <trkpt lat="48.66639" lon="6.1343">
        <ele>346</ele>
        <time>2013-04-14T10:52:47Z</time>
      </trkpt>
      <trkpt lat="48.66644" lon="6.13424">
        <ele>343</ele>
        <time>2013-04-14T10:52:49Z</time>
      </trkpt>
      <trkpt lat="48.6665" lon="6.13416">
        <ele>341</ele>
        <time>2013-04-14T10:52:53Z</time>
      </trkpt>
      <trkpt lat="48.66657" lon="6.13401">
        <ele>342</ele>
        <time>2013-04-14T10:52:59Z</time>
      </trkpt>
      <trkpt lat="48.66659" lon="6.13395">
        <ele>348</ele>
        <time>2013-04-14T10:53:01Z</time>
      </trkpt>
      <trkpt lat="48.66664" lon="6.13378">
        <ele>345</ele>
        <time>2013-04-14T10:53:05Z</time>
      </trkpt>
      <trkpt lat="48.66665" lon="6.13369">
        <ele>348</ele>
        <time>2013-04-14T10:53:09Z</time>
      </trkpt>
      <trkpt lat="48.6667" lon="6.13355">
        <ele>357</ele>
        <time>2013-04-14T10:53:15Z</time>
      </trkpt>
      <trkpt lat="48.66673" lon="6.13347">
        <ele>356</ele>
        <time>2013-04-14T10:53:19Z</time>
      </trkpt>
      <trkpt lat="48.66694" lon="6.13304">
        <ele>366</ele>
        <time>2013-04-14T10:53:37Z</time>
      </trkpt>
      <trkpt lat="48.66699" lon="6.13297">
        <ele>369</ele>
        <time>2013-04-14T10:53:41Z</time>
      </trkpt>
      <trkpt lat="48.66705" lon="6.13288">
        <ele>363</ele>
        <time>2013-04-14T10:53:47Z</time>
      </trkpt>
      <trkpt lat="48.66711" lon="6.13271">
        <ele>360</ele>
        <time>2013-04-14T10:53:59Z</time>
      </trkpt>
      <trkpt lat="48.66726" lon="6.13247">
        <ele>354</ele>
        <time>2013-04-14T10:54:11Z</time>
      </trkpt>
      <trkpt lat="48.66727" lon="6.13243">
        <ele>360</ele>
        <time>2013-04-14T10:54:13Z</time>
      </trkpt>
      <trkpt lat="48.66732" lon="6.13231">
        <ele>348</ele>
        <time>2013-04-14T10:54:19Z</time>
      </trkpt>
      <trkpt lat="48.66733" lon="6.13221">
        <ele>349</ele>
        <time>2013-04-14T10:54:23Z</time>
      </trkpt>
      <trkpt lat="48.66735" lon="6.13215">
        <ele>352</ele>
        <time>2013-04-14T10:54:25Z</time>
      </trkpt>
      <trkpt lat="48.66737" lon="6.13174">
        <ele>361</ele>
        <time>2013-04-14T10:54:39Z</time>
      </trkpt>
      <trkpt lat="48.66737" lon="6.13169">
        <ele>366</ele>
        <time>2013-04-14T10:54:41Z</time>
      </trkpt>
      <trkpt lat="48.6674" lon="6.13158">
        <ele>364</ele>
        <time>2013-04-14T10:54:45Z</time>
      </trkpt>
      <trkpt lat="48.66742" lon="6.13149">
        <ele>360</ele>
        <time>2013-04-14T10:54:47Z</time>
      </trkpt>
      <trkpt lat="48.66745" lon="6.13134">
        <ele>371</ele>
        <time>2013-04-14T10:54:51Z</time>
      </trkpt>
      <trkpt lat="48.66745" lon="6.13127">
        <ele>371</ele>
        <time>2013-04-14T10:54:53Z</time>
      </trkpt>
      <trkpt lat="48.66745" lon="6.13122">
        <ele>372</ele>
        <time>2013-04-14T10:54:55Z</time>
      </trkpt>
      <trkpt lat="48.66746" lon="6.13117">
        <ele>372</ele>
        <time>2013-04-14T10:54:57Z</time>
      </trkpt>
      <trkpt lat="48.66747" lon="6.13111">
        <ele>374</ele>
        <time>2013-04-14T10:54:59Z</time>
      </trkpt>
      <trkpt lat="48.66748" lon="6.13105">
        <ele>374</ele>
        <time>2013-04-14T10:55:01Z</time>
      </trkpt>
      <trkpt lat="48.66748" lon="6.13099">
        <ele>380</ele>
        <time>2013-04-14T10:55:03Z</time>
      </trkpt>
      <trkpt lat="48.66748" lon="6.13094">
        <ele>379</ele>
        <time>2013-04-14T10:55:05Z</time>
      </trkpt>
      <trkpt lat="48.66747" lon="6.13087">
        <ele>378</ele>
        <time>2013-04-14T10:55:09Z</time>
      </trkpt>
      <trkpt lat="48.66747" lon="6.13072">
        <ele>377</ele>
        <time>2013-04-14T10:55:13Z</time>
      </trkpt>
      <trkpt lat="48.66748" lon="6.13064">
        <ele>378</ele>
        <time>2013-04-14T10:55:15Z</time>
      </trkpt>
      <trkpt lat="48.66748" lon="6.13057">
        <ele>382</ele>
        <time>2013-04-14T10:55:17Z</time>
      </trkpt>
      <trkpt lat="48.66748" lon="6.1305">
        <ele>382</ele>
        <time>2013-04-14T10:55:19Z</time>
      </trkpt>
      <trkpt lat="48.6675" lon="6.13043">
        <ele>385</ele>
        <time>2013-04-14T10:55:21Z</time>
      </trkpt>
      <trkpt lat="48.66751" lon="6.13036">
        <ele>379</ele>
        <time>2013-04-14T10:55:23Z</time>
      </trkpt>
      <trkpt lat="48.66753" lon="6.13031">
        <ele>382</ele>
        <time>2013-04-14T10:55:25Z</time>
      </trkpt>
      <trkpt lat="48.66753" lon="6.13025">
        <ele>382</ele>
        <time>2013-04-14T10:55:27Z</time>
      </trkpt>
      <trkpt lat="48.66753" lon="6.13012">
        <ele>382</ele>
        <time>2013-04-14T10:55:31Z</time>
      </trkpt>
      <trkpt lat="48.66755" lon="6.13005">
        <ele>379</ele>
        <time>2013-04-14T10:55:33Z</time>
      </trkpt>
      <trkpt lat="48.66756" lon="6.13">
        <ele>380</ele>
        <time>2013-04-14T10:55:35Z</time>
      </trkpt>
      <trkpt lat="48.66756" lon="6.12988">
        <ele>378</ele>
        <time>2013-04-14T10:55:39Z</time>
      </trkpt>
      <trkpt lat="48.66755" lon="6.12984">
        <ele>380</ele>
        <time>2013-04-14T10:55:41Z</time>
      </trkpt>
      <trkpt lat="48.66754" lon="6.1298">
        <ele>378</ele>
        <time>2013-04-14T10:55:43Z</time>
      </trkpt>
      <trkpt lat="48.66751" lon="6.12976">
        <ele>377</ele>
        <time>2013-04-14T10:55:45Z</time>
      </trkpt>
      <trkpt lat="48.6675" lon="6.1297">
        <ele>370</ele>
        <time>2013-04-14T10:55:47Z</time>
      </trkpt>
      <trkpt lat="48.6675" lon="6.12963">
        <ele>376</ele>
        <time>2013-04-14T10:55:49Z</time>
      </trkpt>
      <trkpt lat="48.66749" lon="6.12955">
        <ele>380</ele>
        <time>2013-04-14T10:55:51Z</time>
      </trkpt>
      <trkpt lat="48.6675" lon="6.12948">
        <ele>376</ele>
        <time>2013-04-14T10:55:53Z</time>
      </trkpt>
      <trkpt lat="48.66753" lon="6.12935">
        <ele>376</ele>
        <time>2013-04-14T10:55:57Z</time>
      </trkpt>
      <trkpt lat="48.66755" lon="6.12923">
        <ele>378</ele>
        <time>2013-04-14T10:56:01Z</time>
      </trkpt>
      <trkpt lat="48.66755" lon="6.12917">
        <ele>382</ele>
        <time>2013-04-14T10:56:03Z</time>
      </trkpt>
      <trkpt lat="48.66755" lon="6.12913">
        <ele>380</ele>
        <time>2013-04-14T10:56:05Z</time>
      </trkpt>
      <trkpt lat="48.66756" lon="6.12905">
        <ele>380</ele>
        <time>2013-04-14T10:56:07Z</time>
      </trkpt>
      <trkpt lat="48.66757" lon="6.12897">
        <ele>387</ele>
        <time>2013-04-14T10:56:09Z</time>
      </trkpt>
      <trkpt lat="48.66756" lon="6.12891">
        <ele>391</ele>
        <time>2013-04-14T10:56:11Z</time>
      </trkpt>
      <trkpt lat="48.66753" lon="6.12885">
        <ele>387</ele>
        <time>2013-04-14T10:56:13Z</time>
      </trkpt>
      <trkpt lat="48.66751" lon="6.12878">
        <ele>383</ele>
        <time>2013-04-14T10:56:15Z</time>
      </trkpt>
      <trkpt lat="48.66749" lon="6.12869">
        <ele>387</ele>
        <time>2013-04-14T10:56:17Z</time>
      </trkpt>
      <trkpt lat="48.66747" lon="6.1286">
        <ele>388</ele>
        <time>2013-04-14T10:56:19Z</time>
      </trkpt>
      <trkpt lat="48.66746" lon="6.12854">
        <ele>383</ele>
        <time>2013-04-14T10:56:21Z</time>
      </trkpt>
      <trkpt lat="48.66747" lon="6.12847">
        <ele>382</ele>
        <time>2013-04-14T10:56:23Z</time>
      </trkpt>
      <trkpt lat="48.66748" lon="6.12842">
        <ele>381</ele>
        <time>2013-04-14T10:56:25Z</time>
      </trkpt>
      <trkpt lat="48.66751" lon="6.12838">
        <ele>378</ele>
        <time>2013-04-14T10:56:29Z</time>
      </trkpt>
      <trkpt lat="48.66754" lon="6.12834">
        <ele>378</ele>
        <time>2013-04-14T10:56:31Z</time>
      </trkpt>
      <trkpt lat="48.66758" lon="6.1283">
        <ele>378</ele>
        <time>2013-04-14T10:56:33Z</time>
      </trkpt>
      <trkpt lat="48.66763" lon="6.12824">
        <ele>375</ele>
        <time>2013-04-14T10:56:35Z</time>
      </trkpt>
      <trkpt lat="48.66768" lon="6.12821">
        <ele>373</ele>
        <time>2013-04-14T10:56:37Z</time>
      </trkpt>
      <trkpt lat="48.66772" lon="6.1282">
        <ele>374</ele>
        <time>2013-04-14T10:56:39Z</time>
      </trkpt>
      <trkpt lat="48.66779" lon="6.12817">
        <ele>377</ele>
        <time>2013-04-14T10:56:43Z</time>
      </trkpt>
      <trkpt lat="48.66781" lon="6.12817">
        <ele>372</ele>
        <time>2013-04-14T10:56:45Z</time>
      </trkpt>
      <trkpt lat="48.66786" lon="6.12816">
        <ele>376</ele>
        <time>2013-04-14T10:56:47Z</time>
      </trkpt>
      <trkpt lat="48.66791" lon="6.12814">
        <ele>379</ele>
        <time>2013-04-14T10:56:49Z</time>
      </trkpt>
      <trkpt lat="48.66796" lon="6.12811">
        <ele>370</ele>
        <time>2013-04-14T10:56:51Z</time>
      </trkpt>
      <trkpt lat="48.66802" lon="6.1281">
        <ele>369</ele>
        <time>2013-04-14T10:56:53Z</time>
      </trkpt>
      <trkpt lat="48.66815" lon="6.12811">
        <ele>366</ele>
        <time>2013-04-14T10:56:57Z</time>
      </trkpt>
      <trkpt lat="48.66821" lon="6.12812">
        <ele>365</ele>
        <time>2013-04-14T10:56:59Z</time>
      </trkpt>
      <trkpt lat="48.66827" lon="6.12812">
        <ele>370</ele>
        <time>2013-04-14T10:57:01Z</time>
      </trkpt>
      <trkpt lat="48.66832" lon="6.12813">
        <ele>371</ele>
        <time>2013-04-14T10:57:03Z</time>
      </trkpt>
      <trkpt lat="48.66837" lon="6.12815">
        <ele>375</ele>
        <time>2013-04-14T10:57:05Z</time>
      </trkpt>
      <trkpt lat="48.66844" lon="6.12816">
        <ele>374</ele>
        <time>2013-04-14T10:57:07Z</time>
      </trkpt>
      <trkpt lat="48.66852" lon="6.12818">
        <ele>374</ele>
        <time>2013-04-14T10:57:09Z</time>
      </trkpt>
      <trkpt lat="48.66864" lon="6.12815">
        <ele>369</ele>
        <time>2013-04-14T10:57:13Z</time>
      </trkpt>
      <trkpt lat="48.66873" lon="6.12814">
        <ele>371</ele>
        <time>2013-04-14T10:57:15Z</time>
      </trkpt>
      <trkpt lat="48.6688" lon="6.1281">
        <ele>376</ele>
        <time>2013-04-14T10:57:17Z</time>
      </trkpt>
      <trkpt lat="48.66887" lon="6.1281">
        <ele>372</ele>
        <time>2013-04-14T10:57:19Z</time>
      </trkpt>
      <trkpt lat="48.66893" lon="6.1281">
        <ele>361</ele>
        <time>2013-04-14T10:57:21Z</time>
      </trkpt>
      <trkpt lat="48.66902" lon="6.12807">
        <ele>363</ele>
        <time>2013-04-14T10:57:23Z</time>
      </trkpt>
      <trkpt lat="48.6691" lon="6.12801">
        <ele>359</ele>
        <time>2013-04-14T10:57:25Z</time>
      </trkpt>
      <trkpt lat="48.66916" lon="6.12797">
        <ele>362</ele>
        <time>2013-04-14T10:57:27Z</time>
      </trkpt>
      <trkpt lat="48.66923" lon="6.12793">
        <ele>364</ele>
        <time>2013-04-14T10:57:29Z</time>
      </trkpt>
      <trkpt lat="48.66931" lon="6.12789">
        <ele>365</ele>
        <time>2013-04-14T10:57:31Z</time>
      </trkpt>
      <trkpt lat="48.66939" lon="6.12787">
        <ele>362</ele>
        <time>2013-04-14T10:57:33Z</time>
      </trkpt>
      <trkpt lat="48.66948" lon="6.12784">
        <ele>363</ele>
        <time>2013-04-14T10:57:35Z</time>
      </trkpt>
      <trkpt lat="48.66958" lon="6.12781">
        <ele>367</ele>
        <time>2013-04-14T10:57:37Z</time>
      </trkpt>
      <trkpt lat="48.66967" lon="6.12775">
        <ele>369</ele>
        <time>2013-04-14T10:57:39Z</time>
      </trkpt>
      <trkpt lat="48.66975" lon="6.12767">
        <ele>372</ele>
        <time>2013-04-14T10:57:41Z</time>
      </trkpt>
      <trkpt lat="48.66982" lon="6.12762">
        <ele>370</ele>
        <time>2013-04-14T10:57:43Z</time>
      </trkpt>
      <trkpt lat="48.66989" lon="6.12756">
        <ele>369</ele>
        <time>2013-04-14T10:57:45Z</time>
      </trkpt>
      <trkpt lat="48.66996" lon="6.12749">
        <ele>369</ele>
        <time>2013-04-14T10:57:47Z</time>
      </trkpt>
      <trkpt lat="48.67003" lon="6.12743">
        <ele>372</ele>
        <time>2013-04-14T10:57:49Z</time>
      </trkpt>
      <trkpt lat="48.67009" lon="6.12737">
        <ele>372</ele>
        <time>2013-04-14T10:57:51Z</time>
      </trkpt>
      <trkpt lat="48.67016" lon="6.12729">
        <ele>368</ele>
        <time>2013-04-14T10:57:53Z</time>
      </trkpt>
      <trkpt lat="48.67022" lon="6.12722">
        <ele>369</ele>
        <time>2013-04-14T10:57:55Z</time>
      </trkpt>
      <trkpt lat="48.6703" lon="6.12716">
        <ele>371</ele>
        <time>2013-04-14T10:57:57Z</time>
      </trkpt>
      <trkpt lat="48.67038" lon="6.1271">
        <ele>375</ele>
        <time>2013-04-14T10:57:59Z</time>
      </trkpt>
      <trkpt lat="48.67046" lon="6.12705">
        <ele>371</ele>
        <time>2013-04-14T10:58:01Z</time>
      </trkpt>
      <trkpt lat="48.67055" lon="6.12698">
        <ele>374</ele>
        <time>2013-04-14T10:58:03Z</time>
      </trkpt>
      <trkpt lat="48.67062" lon="6.12693">
        <ele>377</ele>
        <time>2013-04-14T10:58:05Z</time>
      </trkpt>
      <trkpt lat="48.67069" lon="6.12689">
        <ele>371</ele>
        <time>2013-04-14T10:58:07Z</time>
      </trkpt>
      <trkpt lat="48.67078" lon="6.12686">
        <ele>375</ele>
        <time>2013-04-14T10:58:09Z</time>
      </trkpt>
      <trkpt lat="48.67087" lon="6.12679">
        <ele>374</ele>
        <time>2013-04-14T10:58:11Z</time>
      </trkpt>
      <trkpt lat="48.67096" lon="6.12674">
        <ele>376</ele>
        <time>2013-04-14T10:58:13Z</time>
      </trkpt>
      <trkpt lat="48.67106" lon="6.12665">
        <ele>377</ele>
        <time>2013-04-14T10:58:15Z</time>
      </trkpt>
      <trkpt lat="48.67115" lon="6.1266">
        <ele>375</ele>
        <time>2013-04-14T10:58:17Z</time>
      </trkpt>
      <trkpt lat="48.67123" lon="6.12657">
        <ele>379</ele>
        <time>2013-04-14T10:58:19Z</time>
      </trkpt>
      <trkpt lat="48.67129" lon="6.12654">
        <ele>377</ele>
        <time>2013-04-14T10:58:21Z</time>
      </trkpt>
      <trkpt lat="48.67137" lon="6.12649">
        <ele>374</ele>
        <time>2013-04-14T10:58:23Z</time>
      </trkpt>
      <trkpt lat="48.67144" lon="6.12642">
        <ele>373</ele>
        <time>2013-04-14T10:58:25Z</time>
      </trkpt>
      <trkpt lat="48.67155" lon="6.12632">
        <ele>359</ele>
        <time>2013-04-14T10:58:33Z</time>
      </trkpt>
      <trkpt lat="48.6716" lon="6.12627">
        <ele>356</ele>
        <time>2013-04-14T10:58:35Z</time>
      </trkpt>
      <trkpt lat="48.67162" lon="6.12623">
        <ele>355</ele>
        <time>2013-04-14T10:58:37Z</time>
      </trkpt>
      <trkpt lat="48.67165" lon="6.12616">
        <ele>356</ele>
        <time>2013-04-14T10:58:41Z</time>
      </trkpt>
      <trkpt lat="48.67166" lon="6.12614">
        <ele>355</ele>
        <time>2013-04-14T10:58:43Z</time>
      </trkpt>
      <trkpt lat="48.67172" lon="6.12608">
        <ele>351</ele>
        <time>2013-04-14T10:58:49Z</time>
      </trkpt>
      <trkpt lat="48.67176" lon="6.12607">
        <ele>353</ele>
        <time>2013-04-14T10:58:51Z</time>
      </trkpt>
      <trkpt lat="48.67181" lon="6.12605">
        <ele>355</ele>
        <time>2013-04-14T10:58:53Z</time>
      </trkpt>
      <trkpt lat="48.67187" lon="6.12604">
        <ele>359</ele>
        <time>2013-04-14T10:58:55Z</time>
      </trkpt>
      <trkpt lat="48.67193" lon="6.12604">
        <ele>356</ele>
        <time>2013-04-14T10:58:57Z</time>
      </trkpt>
      <trkpt lat="48.67198" lon="6.12604">
        <ele>361</ele>
        <time>2013-04-14T10:58:59Z</time>
      </trkpt>
      <trkpt lat="48.67204" lon="6.12607">
        <ele>360</ele>
        <time>2013-04-14T10:59:01Z</time>
      </trkpt>
      <trkpt lat="48.6721" lon="6.12607">
        <ele>364</ele>
        <time>2013-04-14T10:59:03Z</time>
      </trkpt>
      <trkpt lat="48.67217" lon="6.12605">
        <ele>367</ele>
        <time>2013-04-14T10:59:05Z</time>
      </trkpt>
      <trkpt lat="48.67223" lon="6.12604">
        <ele>369</ele>
        <time>2013-04-14T10:59:07Z</time>
      </trkpt>
      <trkpt lat="48.6723" lon="6.12604">
        <ele>372</ele>
        <time>2013-04-14T10:59:09Z</time>
      </trkpt>
      <trkpt lat="48.67236" lon="6.12605">
        <ele>369</ele>
        <time>2013-04-14T10:59:11Z</time>
      </trkpt>
      <trkpt lat="48.67242" lon="6.12606">
        <ele>372</ele>
        <time>2013-04-14T10:59:13Z</time>
      </trkpt>
      <trkpt lat="48.67249" lon="6.12607">
        <ele>373</ele>
        <time>2013-04-14T10:59:15Z</time>
      </trkpt>
      <trkpt lat="48.67254" lon="6.1261">
        <ele>376</ele>
        <time>2013-04-14T10:59:17Z</time>
      </trkpt>
      <trkpt lat="48.67259" lon="6.12611">
        <ele>377</ele>
        <time>2013-04-14T10:59:19Z</time>
      </trkpt>
      <trkpt lat="48.67268" lon="6.12612">
        <ele>372</ele>
        <time>2013-04-14T10:59:21Z</time>
      </trkpt>
      <trkpt lat="48.67275" lon="6.12614">
        <ele>373</ele>
        <time>2013-04-14T10:59:23Z</time>
      </trkpt>
      <trkpt lat="48.67282" lon="6.12618">
        <ele>375</ele>
        <time>2013-04-14T10:59:25Z</time>
      </trkpt>
      <trkpt lat="48.67288" lon="6.12617">
        <ele>374</ele>
        <time>2013-04-14T10:59:27Z</time>
      </trkpt>
      <trkpt lat="48.67296" lon="6.1262">
        <ele>376</ele>
        <time>2013-04-14T10:59:29Z</time>
      </trkpt>
      <trkpt lat="48.67302" lon="6.12622">
        <ele>375</ele>
        <time>2013-04-14T10:59:31Z</time>
      </trkpt>
      <trkpt lat="48.67308" lon="6.12624">
        <ele>378</ele>
        <time>2013-04-14T10:59:33Z</time>
      </trkpt>
      <trkpt lat="48.67316" lon="6.12623">
        <ele>371</ele>
        <time>2013-04-14T10:59:35Z</time>
      </trkpt>
      <trkpt lat="48.67324" lon="6.12625">
        <ele>367</ele>
        <time>2013-04-14T10:59:37Z</time>
      </trkpt>
      <trkpt lat="48.67331" lon="6.12627">
        <ele>369</ele>
        <time>2013-04-14T10:59:39Z</time>
      </trkpt>
      <trkpt lat="48.67338" lon="6.1263">
        <ele>370</ele>
        <time>2013-04-14T10:59:41Z</time>
      </trkpt>
      <trkpt lat="48.67345" lon="6.12635">
        <ele>370</ele>
        <time>2013-04-14T10:59:43Z</time>
      </trkpt>
      <trkpt lat="48.67353" lon="6.12636">
        <ele>365</ele>
        <time>2013-04-14T10:59:45Z</time>
      </trkpt>
      <trkpt lat="48.67361" lon="6.12634">
        <ele>363</ele>
        <time>2013-04-14T10:59:47Z</time>
      </trkpt>
      <trkpt lat="48.6737" lon="6.12635">
        <ele>364</ele>
        <time>2013-04-14T10:59:49Z</time>
      </trkpt>
      <trkpt lat="48.67378" lon="6.12637">
        <ele>370</ele>
        <time>2013-04-14T10:59:51Z</time>
      </trkpt>
      <trkpt lat="48.67389" lon="6.12635">
        <ele>363</ele>
        <time>2013-04-14T10:59:53Z</time>
      </trkpt>
      <trkpt lat="48.674" lon="6.12634">
        <ele>367</ele>
        <time>2013-04-14T10:59:55Z</time>
      </trkpt>
      <trkpt lat="48.67409" lon="6.12634">
        <ele>367</ele>
        <time>2013-04-14T10:59:57Z</time>
      </trkpt>
      <trkpt lat="48.67418" lon="6.12635">
        <ele>367</ele>
        <time>2013-04-14T10:59:59Z</time>
      </trkpt>
      <trkpt lat="48.67426" lon="6.12635">
        <ele>367</ele>
        <time>2013-04-14T11:00:01Z</time>
      </trkpt>
      <trkpt lat="48.67435" lon="6.12633">
        <ele>367</ele>
        <time>2013-04-14T11:00:03Z</time>
      </trkpt>
      <trkpt lat="48.67444" lon="6.12634">
        <ele>367</ele>
        <time>2013-04-14T11:00:05Z</time>
      </trkpt>
      <trkpt lat="48.67453" lon="6.12636">
        <ele>368</ele>
        <time>2013-04-14T11:00:07Z</time>
      </trkpt>
      <trkpt lat="48.67462" lon="6.12637">
        <ele>373</ele>
        <time>2013-04-14T11:00:09Z</time>
      </trkpt>
      <trkpt lat="48.67469" lon="6.12638">
        <ele>373</ele>
        <time>2013-04-14T11:00:11Z</time>
      </trkpt>
      <trkpt lat="48.67476" lon="6.12635">
        <ele>371</ele>
        <time>2013-04-14T11:00:13Z</time>
      </trkpt>
      <trkpt lat="48.67485" lon="6.12635">
        <ele>369</ele>
        <time>2013-04-14T11:00:15Z</time>
      </trkpt>
      <trkpt lat="48.67492" lon="6.12629">
        <ele>363</ele>
        <time>2013-04-14T11:00:17Z</time>
      </trkpt>
      <trkpt lat="48.67497" lon="6.12624">
        <ele>365</ele>
        <time>2013-04-14T11:00:19Z</time>
      </trkpt>
      <trkpt lat="48.67504" lon="6.12622">
        <ele>368</ele>
        <time>2013-04-14T11:00:21Z</time>
      </trkpt>
      <trkpt lat="48.67511" lon="6.1262">
        <ele>367</ele>
        <time>2013-04-14T11:00:23Z</time>
      </trkpt>
      <trkpt lat="48.67518" lon="6.12619">
        <ele>364</ele>
        <time>2013-04-14T11:00:25Z</time>
      </trkpt>
      <trkpt lat="48.67526" lon="6.12617">
        <ele>365</ele>
        <time>2013-04-14T11:00:27Z</time>
      </trkpt>
      <trkpt lat="48.67534" lon="6.12616">
        <ele>367</ele>
        <time>2013-04-14T11:00:29Z</time>
      </trkpt>
      <trkpt lat="48.67542" lon="6.12615">
        <ele>362</ele>
        <time>2013-04-14T11:00:31Z</time>
      </trkpt>
      <trkpt lat="48.67551" lon="6.12612">
        <ele>364</ele>
        <time>2013-04-14T11:00:33Z</time>
      </trkpt>
      <trkpt lat="48.67559" lon="6.12613">
        <ele>365</ele>
        <time>2013-04-14T11:00:35Z</time>
      </trkpt>
      <trkpt lat="48.67566" lon="6.12613">
        <ele>367</ele>
        <time>2013-04-14T11:00:37Z</time>
      </trkpt>
      <trkpt lat="48.67574" lon="6.12611">
        <ele>366</ele>
        <time>2013-04-14T11:00:39Z</time>
      </trkpt>
      <trkpt lat="48.67581" lon="6.12609">
        <ele>363</ele>
        <time>2013-04-14T11:00:41Z</time>
      </trkpt>
      <trkpt lat="48.67589" lon="6.1261">
        <ele>365</ele>
        <time>2013-04-14T11:00:43Z</time>
      </trkpt>
      <trkpt lat="48.67596" lon="6.12609">
        <ele>364</ele>
        <time>2013-04-14T11:00:45Z</time>
      </trkpt>
      <trkpt lat="48.67603" lon="6.12609">
        <ele>364</ele>
        <time>2013-04-14T11:00:47Z</time>
      </trkpt>
      <trkpt lat="48.6761" lon="6.12607">
        <ele>365</ele>
        <time>2013-04-14T11:00:49Z</time>
      </trkpt>
      <trkpt lat="48.67617" lon="6.12608">
        <ele>371</ele>
        <time>2013-04-14T11:00:51Z</time>
      </trkpt>
      <trkpt lat="48.67625" lon="6.12609">
        <ele>370</ele>
        <time>2013-04-14T11:00:53Z</time>
      </trkpt>
      <trkpt lat="48.67636" lon="6.12609">
        <ele>375</ele>
        <time>2013-04-14T11:00:55Z</time>
      </trkpt>
      <trkpt lat="48.67645" lon="6.12611">
        <ele>375</ele>
        <time>2013-04-14T11:00:57Z</time>
      </trkpt>
      <trkpt lat="48.67653" lon="6.1261">
        <ele>371</ele>
        <time>2013-04-14T11:00:59Z</time>
      </trkpt>
      <trkpt lat="48.67664" lon="6.12607">
        <ele>370</ele>
        <time>2013-04-14T11:01:01Z</time>
      </trkpt>
      <trkpt lat="48.67672" lon="6.12607">
        <ele>370</ele>
        <time>2013-04-14T11:01:03Z</time>
      </trkpt>
      <trkpt lat="48.67679" lon="6.12608">
        <ele>366</ele>
        <time>2013-04-14T11:01:05Z</time>
      </trkpt>
      <trkpt lat="48.67684" lon="6.12611">
        <ele>366</ele>
        <time>2013-04-14T11:01:07Z</time>
      </trkpt>
      <trkpt lat="48.67691" lon="6.12614">
        <ele>366</ele>
        <time>2013-04-14T11:01:09Z</time>
      </trkpt>
      <trkpt lat="48.67699" lon="6.12618">
        <ele>363</ele>
        <time>2013-04-14T11:01:11Z</time>
      </trkpt>
      <trkpt lat="48.67707" lon="6.12619">
        <ele>367</ele>
        <time>2013-04-14T11:01:13Z</time>
      </trkpt>
      <trkpt lat="48.67717" lon="6.12622">
        <ele>365</ele>
        <time>2013-04-14T11:01:15Z</time>
      </trkpt>
      <trkpt lat="48.67727" lon="6.12625">
        <ele>364</ele>
        <time>2013-04-14T11:01:17Z</time>
      </trkpt>
      <trkpt lat="48.67736" lon="6.12629">
        <ele>360</ele>
        <time>2013-04-14T11:01:19Z</time>
      </trkpt>
      <trkpt lat="48.67746" lon="6.12633">
        <ele>360</ele>
        <time>2013-04-14T11:01:21Z</time>
      </trkpt>
      <trkpt lat="48.67755" lon="6.12636">
        <ele>366</ele>
        <time>2013-04-14T11:01:23Z</time>
      </trkpt>
      <trkpt lat="48.67762" lon="6.12637">
        <ele>361</ele>
        <time>2013-04-14T11:01:25Z</time>
      </trkpt>
      <trkpt lat="48.6777" lon="6.12635">
        <ele>361</ele>
        <time>2013-04-14T11:01:27Z</time>
      </trkpt>
      <trkpt lat="48.67778" lon="6.12636">
        <ele>370</ele>
        <time>2013-04-14T11:01:29Z</time>
      </trkpt>
      <trkpt lat="48.67787" lon="6.12638">
        <ele>372</ele>
        <time>2013-04-14T11:01:31Z</time>
      </trkpt>
      <trkpt lat="48.67797" lon="6.12637">
        <ele>374</ele>
        <time>2013-04-14T11:01:33Z</time>
      </trkpt>
      <trkpt lat="48.67806" lon="6.12636">
        <ele>375</ele>
        <time>2013-04-14T11:01:35Z</time>
      </trkpt>
      <trkpt lat="48.67815" lon="6.12636">
        <ele>373</ele>
        <time>2013-04-14T11:01:37Z</time>
      </trkpt>
      <trkpt lat="48.67823" lon="6.12635">
        <ele>373</ele>
        <time>2013-04-14T11:01:39Z</time>
      </trkpt>
      <trkpt lat="48.67831" lon="6.12636">
        <ele>371</ele>
        <time>2013-04-14T11:01:41Z</time>
      </trkpt>
      <trkpt lat="48.67838" lon="6.12637">
        <ele>372</ele>
        <time>2013-04-14T11:01:43Z</time>
      </trkpt>
      <trkpt lat="48.67845" lon="6.12636">
        <ele>373</ele>
        <time>2013-04-14T11:01:45Z</time>
      </trkpt>
      <trkpt lat="48.67854" lon="6.12636">
        <ele>371</ele>
        <time>2013-04-14T11:01:47Z</time>
      </trkpt>
      <trkpt lat="48.67861" lon="6.12638">
        <ele>370</ele>
        <time>2013-04-14T11:01:49Z</time>
      </trkpt>
      <trkpt lat="48.6787" lon="6.12642">
        <ele>379</ele>
        <time>2013-04-14T11:01:51Z</time>
      </trkpt>
      <trkpt lat="48.67878" lon="6.12645">
        <ele>378</ele>
        <time>2013-04-14T11:01:53Z</time>
      </trkpt>
      <trkpt lat="48.67886" lon="6.12647">
        <ele>375</ele>
        <time>2013-04-14T11:01:55Z</time>
      </trkpt>
      <trkpt lat="48.67895" lon="6.12644">
        <ele>374</ele>
        <time>2013-04-14T11:01:57Z</time>
      </trkpt>
      <trkpt lat="48.67904" lon="6.12639">
        <ele>377</ele>
        <time>2013-04-14T11:01:59Z</time>
      </trkpt>
      <trkpt lat="48.67913" lon="6.12639">
        <ele>377</ele>
        <time>2013-04-14T11:02:01Z</time>
      </trkpt>
      <trkpt lat="48.67921" lon="6.1264">
        <ele>382</ele>
        <time>2013-04-14T11:02:03Z</time>
      </trkpt>
      <trkpt lat="48.6793" lon="6.1264">
        <ele>376</ele>
        <time>2013-04-14T11:02:05Z</time>
      </trkpt>
      <trkpt lat="48.67936" lon="6.12639">
        <ele>378</ele>
        <time>2013-04-14T11:02:07Z</time>
      </trkpt>
      <trkpt lat="48.67939" lon="6.12638">
        <ele>377</ele>
        <time>2013-04-14T11:02:09Z</time>
      </trkpt>
      <trkpt lat="48.67941" lon="6.12635">
        <ele>368</ele>
        <time>2013-04-14T11:02:15Z</time>
      </trkpt>
      <trkpt lat="48.67962" lon="6.12623">
        <ele>346</ele>
        <time>2013-04-14T11:02:53Z</time>
      </trkpt>
      <trkpt lat="48.67966" lon="6.12617">
        <ele>351</ele>
        <time>2013-04-14T11:03:01Z</time>
      </trkpt>
      <trkpt lat="48.6797" lon="6.12612">
        <ele>358</ele>
        <time>2013-04-14T11:03:05Z</time>
      </trkpt>
      <trkpt lat="48.67972" lon="6.12611">
        <ele>361</ele>
        <time>2013-04-14T11:03:07Z</time>
      </trkpt>
      <trkpt lat="48.67975" lon="6.1261">
        <ele>364</ele>
        <time>2013-04-14T11:03:09Z</time>
      </trkpt>
      <trkpt lat="48.67978" lon="6.12606">
        <ele>368</ele>
        <time>2013-04-14T11:03:11Z</time>
      </trkpt>
      <trkpt lat="48.6798" lon="6.12601">
        <ele>372</ele>
        <time>2013-04-14T11:03:13Z</time>
      </trkpt>
      <trkpt lat="48.67983" lon="6.12598">
        <ele>376</ele>
        <time>2013-04-14T11:03:15Z</time>
      </trkpt>
      <trkpt lat="48.67987" lon="6.12594">
        <ele>378</ele>
        <time>2013-04-14T11:03:17Z</time>
      </trkpt>
      <trkpt lat="48.67991" lon="6.12591">
        <ele>378</ele>
        <time>2013-04-14T11:03:19Z</time>
      </trkpt>
      <trkpt lat="48.67994" lon="6.12588">
        <ele>376</ele>
        <time>2013-04-14T11:03:21Z</time>
      </trkpt>
      <trkpt lat="48.67997" lon="6.12583">
        <ele>379</ele>
        <time>2013-04-14T11:03:23Z</time>
      </trkpt>
      <trkpt lat="48.68002" lon="6.1258">
        <ele>384</ele>
        <time>2013-04-14T11:03:25Z</time>
      </trkpt>
      <trkpt lat="48.68006" lon="6.12576">
        <ele>377</ele>
        <time>2013-04-14T11:03:27Z</time>
      </trkpt>
      <trkpt lat="48.68013" lon="6.12575">
        <ele>378</ele>
        <time>2013-04-14T11:03:29Z</time>
      </trkpt>
      <trkpt lat="48.68019" lon="6.12578">
        <ele>375</ele>
        <time>2013-04-14T11:03:31Z</time>
      </trkpt>
      <trkpt lat="48.68025" lon="6.12578">
        <ele>378</ele>
        <time>2013-04-14T11:03:33Z</time>
      </trkpt>
      <trkpt lat="48.68032" lon="6.12579">
        <ele>377</ele>
        <time>2013-04-14T11:03:35Z</time>
      </trkpt>
      <trkpt lat="48.6804" lon="6.12578">
        <ele>374</ele>
        <time>2013-04-14T11:03:37Z</time>
      </trkpt>
      <trkpt lat="48.68047" lon="6.12579">
        <ele>372</ele>
        <time>2013-04-14T11:03:39Z</time>
      </trkpt>
      <trkpt lat="48.68053" lon="6.1258">
        <ele>369</ele>
        <time>2013-04-14T11:03:41Z</time>
      </trkpt>
      <trkpt lat="48.68058" lon="6.12582">
        <ele>373</ele>
        <time>2013-04-14T11:03:43Z</time>
      </trkpt>
      <trkpt lat="48.68063" lon="6.12584">
        <ele>379</ele>
        <time>2013-04-14T11:03:45Z</time>
      </trkpt>
      <trkpt lat="48.68069" lon="6.12584">
        <ele>382</ele>
        <time>2013-04-14T11:03:47Z</time>
      </trkpt>
      <trkpt lat="48.68074" lon="6.12583">
        <ele>381</ele>
        <time>2013-04-14T11:03:49Z</time>
      </trkpt>
      <trkpt lat="48.68081" lon="6.12581">
        <ele>386</ele>
        <time>2013-04-14T11:03:51Z</time>
      </trkpt>
      <trkpt lat="48.68092" lon="6.12579">
        <ele>385</ele>
        <time>2013-04-14T11:03:55Z</time>
      </trkpt>
      <trkpt lat="48.681" lon="6.12582">
        <ele>382</ele>
        <time>2013-04-14T11:03:57Z</time>
      </trkpt>
      <trkpt lat="48.68105" lon="6.12579">
        <ele>374</ele>
        <time>2013-04-14T11:03:59Z</time>
      </trkpt>
      <trkpt lat="48.68112" lon="6.12579">
        <ele>377</ele>
        <time>2013-04-14T11:04:01Z</time>
      </trkpt>
      <trkpt lat="48.68119" lon="6.12579">
        <ele>376</ele>
        <time>2013-04-14T11:04:03Z</time>
      </trkpt>
      <trkpt lat="48.68126" lon="6.12586">
        <ele>377</ele>
        <time>2013-04-14T11:04:05Z</time>
      </trkpt>
      <trkpt lat="48.68132" lon="6.12592">
        <ele>372</ele>
        <time>2013-04-14T11:04:07Z</time>
      </trkpt>
      <trkpt lat="48.68139" lon="6.12598">
        <ele>371</ele>
        <time>2013-04-14T11:04:09Z</time>
      </trkpt>
      <trkpt lat="48.68146" lon="6.12602">
        <ele>367</ele>
        <time>2013-04-14T11:04:11Z</time>
      </trkpt>
      <trkpt lat="48.68153" lon="6.12606">
        <ele>372</ele>
        <time>2013-04-14T11:04:13Z</time>
      </trkpt>
      <trkpt lat="48.68161" lon="6.1261">
        <ele>377</ele>
        <time>2013-04-14T11:04:15Z</time>
      </trkpt>
      <trkpt lat="48.68171" lon="6.12614">
        <ele>376</ele>
        <time>2013-04-14T11:04:17Z</time>
      </trkpt>
      <trkpt lat="48.68179" lon="6.12619">
        <ele>375</ele>
        <time>2013-04-14T11:04:19Z</time>
      </trkpt>
      <trkpt lat="48.68187" lon="6.12624">
        <ele>377</ele>
        <time>2013-04-14T11:04:21Z</time>
      </trkpt>
      <trkpt lat="48.68195" lon="6.12631">
        <ele>380</ele>
        <time>2013-04-14T11:04:23Z</time>
      </trkpt>
      <trkpt lat="48.68203" lon="6.12639">
        <ele>377</ele>
        <time>2013-04-14T11:04:25Z</time>
      </trkpt>
      <trkpt lat="48.68212" lon="6.12647">
        <ele>374</ele>
        <time>2013-04-14T11:04:27Z</time>
      </trkpt>
      <trkpt lat="48.6822" lon="6.12654">
        <ele>374</ele>
        <time>2013-04-14T11:04:29Z</time>
      </trkpt>
      <trkpt lat="48.68229" lon="6.12661">
        <ele>371</ele>
        <time>2013-04-14T11:04:31Z</time>
      </trkpt>
      <trkpt lat="48.68237" lon="6.12667">
        <ele>370</ele>
        <time>2013-04-14T11:04:33Z</time>
      </trkpt>
      <trkpt lat="48.68244" lon="6.12672">
        <ele>369</ele>
        <time>2013-04-14T11:04:35Z</time>
      </trkpt>
      <trkpt lat="48.68251" lon="6.12679">
        <ele>369</ele>
        <time>2013-04-14T11:04:37Z</time>
      </trkpt>
      <trkpt lat="48.68258" lon="6.12684">
        <ele>363</ele>
        <time>2013-04-14T11:04:39Z</time>
      </trkpt>
      <trkpt lat="48.68263" lon="6.12691">
        <ele>362</ele>
        <time>2013-04-14T11:04:41Z</time>
      </trkpt>
      <trkpt lat="48.68269" lon="6.12697">
        <ele>359</ele>
        <time>2013-04-14T11:04:43Z</time>
      </trkpt>
      <trkpt lat="48.68276" lon="6.12705">
        <ele>359</ele>
        <time>2013-04-14T11:04:45Z</time>
      </trkpt>
      <trkpt lat="48.68283" lon="6.12714">
        <ele>363</ele>
        <time>2013-04-14T11:04:47Z</time>
      </trkpt>
      <trkpt lat="48.6829" lon="6.12721">
        <ele>360</ele>
        <time>2013-04-14T11:04:49Z</time>
      </trkpt>
      <trkpt lat="48.68296" lon="6.12726">
        <ele>358</ele>
        <time>2013-04-14T11:04:51Z</time>
      </trkpt>
      <trkpt lat="48.68313" lon="6.12742">
        <ele>350</ele>
        <time>2013-04-14T11:04:54Z</time>
      </trkpt>
      <trkpt lat="48.68322" lon="6.12753">
        <ele>345</ele>
        <time>2013-04-14T11:04:57Z</time>
      </trkpt>
      <trkpt lat="48.68329" lon="6.1276">
        <ele>347</ele>
        <time>2013-04-14T11:04:59Z</time>
      </trkpt>
      <trkpt lat="48.68337" lon="6.12767">
        <ele>348</ele>
        <time>2013-04-14T11:05:01Z</time>
      </trkpt>
      <trkpt lat="48.68346" lon="6.12774">
        <ele>350</ele>
        <time>2013-04-14T11:05:03Z</time>
      </trkpt>
      <trkpt lat="48.68353" lon="6.12783">
        <ele>350</ele>
        <time>2013-04-14T11:05:05Z</time>
      </trkpt>
      <trkpt lat="48.68358" lon="6.12791">
        <ele>351</ele>
        <time>2013-04-14T11:05:07Z</time>
      </trkpt>
      <trkpt lat="48.68364" lon="6.12801">
        <ele>345</ele>
        <time>2013-04-14T11:05:09Z</time>
      </trkpt>
      <trkpt lat="48.68372" lon="6.1281">
        <ele>343</ele>
        <time>2013-04-14T11:05:11Z</time>
      </trkpt>
      <trkpt lat="48.68378" lon="6.12818">
        <ele>342</ele>
        <time>2013-04-14T11:05:13Z</time>
      </trkpt>
      <trkpt lat="48.68386" lon="6.12827">
        <ele>345</ele>
        <time>2013-04-14T11:05:15Z</time>
      </trkpt>
      <trkpt lat="48.68394" lon="6.12837">
        <ele>347</ele>
        <time>2013-04-14T11:05:17Z</time>
      </trkpt>
      <trkpt lat="48.68403" lon="6.12846">
        <ele>347</ele>
        <time>2013-04-14T11:05:19Z</time>
      </trkpt>
      <trkpt lat="48.68413" lon="6.12854">
        <ele>347</ele>
        <time>2013-04-14T11:05:21Z</time>
      </trkpt>
      <trkpt lat="48.68422" lon="6.12864">
        <ele>348</ele>
        <time>2013-04-14T11:05:23Z</time>
      </trkpt>
      <trkpt lat="48.68432" lon="6.12873">
        <ele>346</ele>
        <time>2013-04-14T11:05:25Z</time>
      </trkpt>
      <trkpt lat="48.68441" lon="6.12883">
        <ele>347</ele>
        <time>2013-04-14T11:05:27Z</time>
      </trkpt>
      <trkpt lat="48.6845" lon="6.12888">
        <ele>349</ele>
        <time>2013-04-14T11:05:29Z</time>
      </trkpt>
      <trkpt lat="48.68458" lon="6.12886">
        <ele>346</ele>
        <time>2013-04-14T11:05:31Z</time>
      </trkpt>
      <trkpt lat="48.68464" lon="6.12883">
        <ele>346</ele>
        <time>2013-04-14T11:05:33Z</time>
      </trkpt>
      <trkpt lat="48.68472" lon="6.1288">
        <ele>350</ele>
        <time>2013-04-14T11:05:35Z</time>
      </trkpt>
      <trkpt lat="48.68478" lon="6.12879">
        <ele>352</ele>
        <time>2013-04-14T11:05:37Z</time>
      </trkpt>
      <trkpt lat="48.68482" lon="6.12878">
        <ele>350</ele>
        <time>2013-04-14T11:05:39Z</time>
      </trkpt>
      <trkpt lat="48.68487" lon="6.12876">
        <ele>346</ele>
        <time>2013-04-14T11:05:41Z</time>
      </trkpt>
      <trkpt lat="48.68493" lon="6.12873">
        <ele>344</ele>
        <time>2013-04-14T11:05:43Z</time>
      </trkpt>
      <trkpt lat="48.68498" lon="6.12869">
        <ele>342</ele>
        <time>2013-04-14T11:05:45Z</time>
      </trkpt>
      <trkpt lat="48.68504" lon="6.12864">
        <ele>341</ele>
        <time>2013-04-14T11:05:47Z</time>
      </trkpt>
      <trkpt lat="48.68511" lon="6.12859">
        <ele>341</ele>
        <time>2013-04-14T11:05:49Z</time>
      </trkpt>
      <trkpt lat="48.68517" lon="6.12853">
        <ele>341</ele>
        <time>2013-04-14T11:05:51Z</time>
      </trkpt>
      <trkpt lat="48.68523" lon="6.12849">
        <ele>341</ele>
        <time>2013-04-14T11:05:53Z</time>
      </trkpt>
      <trkpt lat="48.68529" lon="6.12844">
        <ele>344</ele>
        <time>2013-04-14T11:05:55Z</time>
      </trkpt>
      <trkpt lat="48.68535" lon="6.1284">
        <ele>346</ele>
        <time>2013-04-14T11:05:57Z</time>
      </trkpt>
      <trkpt lat="48.68542" lon="6.12834">
        <ele>349</ele>
        <time>2013-04-14T11:05:59Z</time>
      </trkpt>
      <trkpt lat="48.68548" lon="6.12831">
        <ele>347</ele>
        <time>2013-04-14T11:06:01Z</time>
      </trkpt>
      <trkpt lat="48.68555" lon="6.12827">
        <ele>345</ele>
        <time>2013-04-14T11:06:03Z</time>
      </trkpt>
      <trkpt lat="48.68562" lon="6.12823">
        <ele>344</ele>
        <time>2013-04-14T11:06:05Z</time>
      </trkpt>
      <trkpt lat="48.68569" lon="6.12819">
        <ele>345</ele>
        <time>2013-04-14T11:06:07Z</time>
      </trkpt>
      <trkpt lat="48.68575" lon="6.12816">
        <ele>348</ele>
        <time>2013-04-14T11:06:09Z</time>
      </trkpt>
      <trkpt lat="48.68582" lon="6.12815">
        <ele>349</ele>
        <time>2013-04-14T11:06:11Z</time>
      </trkpt>
      <trkpt lat="48.68588" lon="6.12814">
        <ele>348</ele>
        <time>2013-04-14T11:06:13Z</time>
      </trkpt>
      <trkpt lat="48.68596" lon="6.12812">
        <ele>349</ele>
        <time>2013-04-14T11:06:15Z</time>
      </trkpt>
      <trkpt lat="48.68604" lon="6.1281">
        <ele>348</ele>
        <time>2013-04-14T11:06:17Z</time>
      </trkpt>
      <trkpt lat="48.68612" lon="6.12809">
        <ele>347</ele>
        <time>2013-04-14T11:06:19Z</time>
      </trkpt>
      <trkpt lat="48.6862" lon="6.12807">
        <ele>351</ele>
        <time>2013-04-14T11:06:21Z</time>
      </trkpt>
      <trkpt lat="48.68627" lon="6.12804">
        <ele>349</ele>
        <time>2013-04-14T11:06:23Z</time>
      </trkpt>
      <trkpt lat="48.68635" lon="6.12802">
        <ele>348</ele>
        <time>2013-04-14T11:06:25Z</time>
      </trkpt>
      <trkpt lat="48.68643" lon="6.128">
        <ele>348</ele>
        <time>2013-04-14T11:06:27Z</time>
      </trkpt>
      <trkpt lat="48.6865" lon="6.12798">
        <ele>349</ele>
        <time>2013-04-14T11:06:29Z</time>
      </trkpt>
      <trkpt lat="48.68657" lon="6.12796">
        <ele>351</ele>
        <time>2013-04-14T11:06:31Z</time>
      </trkpt>
      <trkpt lat="48.68665" lon="6.12792">
        <ele>350</ele>
        <time>2013-04-14T11:06:33Z</time>
      </trkpt>
      <trkpt lat="48.68672" lon="6.12789">
        <ele>351</ele>
        <time>2013-04-14T11:06:35Z</time>
      </trkpt>
      <trkpt lat="48.68679" lon="6.12786">
        <ele>351</ele>
        <time>2013-04-14T11:06:37Z</time>
      </trkpt>
      <trkpt lat="48.68685" lon="6.12783">
        <ele>351</ele>
        <time>2013-04-14T11:06:39Z</time>
      </trkpt>
      <trkpt lat="48.68691" lon="6.1278">
        <ele>351</ele>
        <time>2013-04-14T11:06:41Z</time>
      </trkpt>
      <trkpt lat="48.68699" lon="6.12776">
        <ele>353</ele>
        <time>2013-04-14T11:06:43Z</time>
      </trkpt>
      <trkpt lat="48.68706" lon="6.12772">
        <ele>350</ele>
        <time>2013-04-14T11:06:45Z</time>
      </trkpt>
      <trkpt lat="48.68713" lon="6.12768">
        <ele>351</ele>
        <time>2013-04-14T11:06:47Z</time>
      </trkpt>
      <trkpt lat="48.6872" lon="6.12765">
        <ele>349</ele>
        <time>2013-04-14T11:06:49Z</time>
      </trkpt>
      <trkpt lat="48.68728" lon="6.12764">
        <ele>349</ele>
        <time>2013-04-14T11:06:51Z</time>
      </trkpt>
      <trkpt lat="48.68736" lon="6.12761">
        <ele>348</ele>
        <time>2013-04-14T11:06:53Z</time>
      </trkpt>
      <trkpt lat="48.68744" lon="6.12759">
        <ele>352</ele>
        <time>2013-04-14T11:06:55Z</time>
      </trkpt>
      <trkpt lat="48.68751" lon="6.12757">
        <ele>352</ele>
        <time>2013-04-14T11:06:57Z</time>
      </trkpt>
      <trkpt lat="48.68757" lon="6.12752">
        <ele>355</ele>
        <time>2013-04-14T11:06:59Z</time>
      </trkpt>
      <trkpt lat="48.68764" lon="6.12749">
        <ele>358</ele>
        <time>2013-04-14T11:07:01Z</time>
      </trkpt>
      <trkpt lat="48.68771" lon="6.12748">
        <ele>357</ele>
        <time>2013-04-14T11:07:03Z</time>
      </trkpt>
      <trkpt lat="48.68776" lon="6.1275">
        <ele>353</ele>
        <time>2013-04-14T11:07:05Z</time>
      </trkpt>
      <trkpt lat="48.68782" lon="6.12753">
        <ele>350</ele>
        <time>2013-04-14T11:07:07Z</time>
      </trkpt>
      <trkpt lat="48.68787" lon="6.12758">
        <ele>346</ele>
        <time>2013-04-14T11:07:09Z</time>
      </trkpt>
      <trkpt lat="48.68789" lon="6.12767">
        <ele>348</ele>
        <time>2013-04-14T11:07:11Z</time>
      </trkpt>
      <trkpt lat="48.68792" lon="6.12778">
        <ele>350</ele>
        <time>2013-04-14T11:07:13Z</time>
      </trkpt>
      <trkpt lat="48.68792" lon="6.12791">
        <ele>348</ele>
        <time>2013-04-14T11:07:15Z</time>
      </trkpt>
      <trkpt lat="48.68794" lon="6.12805">
        <ele>348</ele>
        <time>2013-04-14T11:07:17Z</time>
      </trkpt>
      <trkpt lat="48.68795" lon="6.12822">
        <ele>347</ele>
        <time>2013-04-14T11:07:19Z</time>
      </trkpt>
      <trkpt lat="48.68796" lon="6.12839">
        <ele>349</ele>
        <time>2013-04-14T11:07:21Z</time>
      </trkpt>
      <trkpt lat="48.68797" lon="6.12857">
        <ele>351</ele>
        <time>2013-04-14T11:07:23Z</time>
      </trkpt>
      <trkpt lat="48.68798" lon="6.12876">
        <ele>352</ele>
        <time>2013-04-14T11:07:25Z</time>
      </trkpt>
      <trkpt lat="48.688" lon="6.12896">
        <ele>354</ele>
        <time>2013-04-14T11:07:27Z</time>
      </trkpt>
      <trkpt lat="48.68801" lon="6.12917">
        <ele>353</ele>
        <time>2013-04-14T11:07:29Z</time>
      </trkpt>
      <trkpt lat="48.68802" lon="6.1294">
        <ele>353</ele>
        <time>2013-04-14T11:07:31Z</time>
      </trkpt>
      <trkpt lat="48.68804" lon="6.12965">
        <ele>350</ele>
        <time>2013-04-14T11:07:33Z</time>
      </trkpt>
      <trkpt lat="48.68807" lon="6.1299">
        <ele>348</ele>
        <time>2013-04-14T11:07:35Z</time>
      </trkpt>
      <trkpt lat="48.68808" lon="6.13016">
        <ele>346</ele>
        <time>2013-04-14T11:07:37Z</time>
      </trkpt>
      <trkpt lat="48.6881" lon="6.13044">
        <ele>343</ele>
        <time>2013-04-14T11:07:39Z</time>
      </trkpt>
      <trkpt lat="48.68811" lon="6.13057">
        <ele>345</ele>
        <time>2013-04-14T11:07:40Z</time>
      </trkpt>
      <trkpt lat="48.68813" lon="6.13071">
        <ele>343</ele>
        <time>2013-04-14T11:07:41Z</time>
      </trkpt>
      <trkpt lat="48.68815" lon="6.13098">
        <ele>342</ele>
        <time>2013-04-14T11:07:43Z</time>
      </trkpt>
      <trkpt lat="48.68818" lon="6.13127">
        <ele>340</ele>
        <time>2013-04-14T11:07:45Z</time>
      </trkpt>
      <trkpt lat="48.68821" lon="6.13154">
        <ele>335</ele>
        <time>2013-04-14T11:07:47Z</time>
      </trkpt>
      <trkpt lat="48.68821" lon="6.13168">
        <ele>332</ele>
        <time>2013-04-14T11:07:49Z</time>
      </trkpt>
      <trkpt lat="48.68818" lon="6.13175">
        <ele>337</ele>
        <time>2013-04-14T11:07:51Z</time>
      </trkpt>
      <trkpt lat="48.68812" lon="6.13176">
        <ele>334</ele>
        <time>2013-04-14T11:07:53Z</time>
      </trkpt>
      <trkpt lat="48.68803" lon="6.13168">
        <ele>335</ele>
        <time>2013-04-14T11:07:55Z</time>
      </trkpt>
      <trkpt lat="48.68793" lon="6.1316">
        <ele>336</ele>
        <time>2013-04-14T11:07:57Z</time>
      </trkpt>
      <trkpt lat="48.68779" lon="6.13151">
        <ele>336</ele>
        <time>2013-04-14T11:07:59Z</time>
      </trkpt>
      <trkpt lat="48.68762" lon="6.13144">
        <ele>338</ele>
        <time>2013-04-14T11:08:01Z</time>
      </trkpt>
      <trkpt lat="48.68742" lon="6.13138">
        <ele>336</ele>
        <time>2013-04-14T11:08:03Z</time>
      </trkpt>
      <trkpt lat="48.68719" lon="6.13136">
        <ele>333</ele>
        <time>2013-04-14T11:08:05Z</time>
      </trkpt>
      <trkpt lat="48.68696" lon="6.13134">
        <ele>331</ele>
        <time>2013-04-14T11:08:07Z</time>
      </trkpt>
      <trkpt lat="48.68673" lon="6.13131">
        <ele>335</ele>
        <time>2013-04-14T11:08:09Z</time>
      </trkpt>
      <trkpt lat="48.68649" lon="6.13132">
        <ele>333</ele>
        <time>2013-04-14T11:08:11Z</time>
      </trkpt>
      <trkpt lat="48.68626" lon="6.13137">
        <ele>333</ele>
        <time>2013-04-14T11:08:13Z</time>
      </trkpt>
      <trkpt lat="48.68604" lon="6.13146">
        <ele>330</ele>
        <time>2013-04-14T11:08:15Z</time>
      </trkpt>
      <trkpt lat="48.68582" lon="6.13161">
        <ele>323</ele>
        <time>2013-04-14T11:08:17Z</time>
      </trkpt>
      <trkpt lat="48.6856" lon="6.13179">
        <ele>321</ele>
        <time>2013-04-14T11:08:19Z</time>
      </trkpt>
      <trkpt lat="48.68538" lon="6.13201">
        <ele>319</ele>
        <time>2013-04-14T11:08:21Z</time>
      </trkpt>
      <trkpt lat="48.6852" lon="6.13233">
        <ele>314</ele>
        <time>2013-04-14T11:08:23Z</time>
      </trkpt>
      <trkpt lat="48.68506" lon="6.13266">
        <ele>309</ele>
        <time>2013-04-14T11:08:25Z</time>
      </trkpt>
      <trkpt lat="48.68491" lon="6.133">
        <ele>308</ele>
        <time>2013-04-14T11:08:27Z</time>
      </trkpt>
      <trkpt lat="48.68477" lon="6.13336">
        <ele>308</ele>
        <time>2013-04-14T11:08:29Z</time>
      </trkpt>
      <trkpt lat="48.68465" lon="6.13375">
        <ele>308</ele>
        <time>2013-04-14T11:08:31Z</time>
      </trkpt>
      <trkpt lat="48.68459" lon="6.13484">
        <ele>305</ele>
        <time>2013-04-14T11:08:36Z</time>
      </trkpt>
      <trkpt lat="48.6846" lon="6.13527">
        <ele>305</ele>
        <time>2013-04-14T11:08:38Z</time>
      </trkpt>
      <trkpt lat="48.68463" lon="6.13572">
        <ele>303</ele>
        <time>2013-04-14T11:08:40Z</time>
      </trkpt>
      <trkpt lat="48.68466" lon="6.13617">
        <ele>300</ele>
        <time>2013-04-14T11:08:42Z</time>
      </trkpt>
      <trkpt lat="48.68468" lon="6.13663">
        <ele>301</ele>
        <time>2013-04-14T11:08:44Z</time>
      </trkpt>
      <trkpt lat="48.68467" lon="6.13707">
        <ele>296</ele>
        <time>2013-04-14T11:08:46Z</time>
      </trkpt>
      <trkpt lat="48.68459" lon="6.13745">
        <ele>295</ele>
        <time>2013-04-14T11:08:48Z</time>
      </trkpt>
      <trkpt lat="48.68449" lon="6.13782">
        <ele>294</ele>
        <time>2013-04-14T11:08:50Z</time>
      </trkpt>
      <trkpt lat="48.68433" lon="6.13814">
        <ele>289</ele>
        <time>2013-04-14T11:08:52Z</time>
      </trkpt>
      <trkpt lat="48.68414" lon="6.13844">
        <ele>286</ele>
        <time>2013-04-14T11:08:54Z</time>
      </trkpt>
      <trkpt lat="48.68395" lon="6.1387">
        <ele>284</ele>
        <time>2013-04-14T11:08:56Z</time>
      </trkpt>
      <trkpt lat="48.68377" lon="6.13892">
        <ele>283</ele>
        <time>2013-04-14T11:08:58Z</time>
      </trkpt>
      <trkpt lat="48.68361" lon="6.13905">
        <ele>283</ele>
        <time>2013-04-14T11:09:00Z</time>
      </trkpt>
      <trkpt lat="48.68355" lon="6.1391">
        <ele>282</ele>
        <time>2013-04-14T11:09:01Z</time>
      </trkpt>
      <trkpt lat="48.68349" lon="6.13911">
        <ele>278</ele>
        <time>2013-04-14T11:09:02Z</time>
      </trkpt>
      <trkpt lat="48.6834" lon="6.13912">
        <ele>272</ele>
        <time>2013-04-14T11:09:04Z</time>
      </trkpt>
      <trkpt lat="48.68334" lon="6.13911">
        <ele>271</ele>
        <time>2013-04-14T11:09:06Z</time>
      </trkpt>
      <trkpt lat="48.68329" lon="6.13911">
        <ele>273</ele>
        <time>2013-04-14T11:09:08Z</time>
      </trkpt>
      <trkpt lat="48.68322" lon="6.13915">
        <ele>271</ele>
        <time>2013-04-14T11:09:10Z</time>
      </trkpt>
      <trkpt lat="48.68315" lon="6.13921">
        <ele>273</ele>
        <time>2013-04-14T11:09:12Z</time>
      </trkpt>
      <trkpt lat="48.68307" lon="6.13927">
        <ele>273</ele>
        <time>2013-04-14T11:09:14Z</time>
      </trkpt>
      <trkpt lat="48.68296" lon="6.13936">
        <ele>273</ele>
        <time>2013-04-14T11:09:16Z</time>
      </trkpt>
      <trkpt lat="48.68284" lon="6.13947">
        <ele>273</ele>
        <time>2013-04-14T11:09:18Z</time>
      </trkpt>
      <trkpt lat="48.6827" lon="6.13959">
        <ele>272</ele>
        <time>2013-04-14T11:09:20Z</time>
      </trkpt>
      <trkpt lat="48.68253" lon="6.13973">
        <ele>271</ele>
        <time>2013-04-14T11:09:22Z</time>
      </trkpt>
      <trkpt lat="48.68235" lon="6.13988">
        <ele>269</ele>
        <time>2013-04-14T11:09:24Z</time>
      </trkpt>
      <trkpt lat="48.68213" lon="6.14005">
        <ele>266</ele>
        <time>2013-04-14T11:09:26Z</time>
      </trkpt>
      <trkpt lat="48.68192" lon="6.14022">
        <ele>263</ele>
        <time>2013-04-14T11:09:28Z</time>
      </trkpt>
      <trkpt lat="48.6817" lon="6.1404">
        <ele>260</ele>
        <time>2013-04-14T11:09:30Z</time>
      </trkpt>
      <trkpt lat="48.68148" lon="6.14058">
        <ele>257</ele>
        <time>2013-04-14T11:09:32Z</time>
      </trkpt>
      <trkpt lat="48.68126" lon="6.14076">
        <ele>256</ele>
        <time>2013-04-14T11:09:34Z</time>
      </trkpt>
      <trkpt lat="48.68104" lon="6.14092">
        <ele>254</ele>
        <time>2013-04-14T11:09:36Z</time>
      </trkpt>
      <trkpt lat="48.68083" lon="6.14106">
        <ele>251</ele>
        <time>2013-04-14T11:09:38Z</time>
      </trkpt>
      <trkpt lat="48.68061" lon="6.14117">
        <ele>250</ele>
        <time>2013-04-14T11:09:40Z</time>
      </trkpt>
      <trkpt lat="48.68039" lon="6.14128">
        <ele>248</ele>
        <time>2013-04-14T11:09:42Z</time>
      </trkpt>
      <trkpt lat="48.68018" lon="6.14139">
        <ele>250</ele>
        <time>2013-04-14T11:09:44Z</time>
      </trkpt>
      <trkpt lat="48.67994" lon="6.14149">
        <ele>252</ele>
        <time>2013-04-14T11:09:46Z</time>
      </trkpt>
      <trkpt lat="48.67975" lon="6.14156">
        <ele>251</ele>
        <time>2013-04-14T11:09:48Z</time>
      </trkpt>
      <trkpt lat="48.67955" lon="6.14161">
        <ele>253</ele>
        <time>2013-04-14T11:09:50Z</time>
      </trkpt>
      <trkpt lat="48.67935" lon="6.14154">
        <ele>255</ele>
        <time>2013-04-14T11:09:52Z</time>
      </trkpt>
      <trkpt lat="48.67921" lon="6.14145">
        <ele>252</ele>
        <time>2013-04-14T11:09:54Z</time>
      </trkpt>
      <trkpt lat="48.67909" lon="6.14145">
        <ele>255</ele>
        <time>2013-04-14T11:09:56Z</time>
      </trkpt>
      <trkpt lat="48.67898" lon="6.14149">
        <ele>253</ele>
        <time>2013-04-14T11:09:58Z</time>
      </trkpt>
      <trkpt lat="48.67887" lon="6.1415">
        <ele>252</ele>
        <time>2013-04-14T11:10:00Z</time>
      </trkpt>
      <trkpt lat="48.67868" lon="6.14159">
        <ele>254</ele>
        <time>2013-04-14T11:10:04Z</time>
      </trkpt>
      <trkpt lat="48.67868" lon="6.14172">
        <ele>255</ele>
        <time>2013-04-14T11:10:06Z</time>
      </trkpt>
      <trkpt lat="48.67876" lon="6.1418">
        <ele>253</ele>
        <time>2013-04-14T11:10:08Z</time>
      </trkpt>
      <trkpt lat="48.67886" lon="6.14179">
        <ele>250</ele>
        <time>2013-04-14T11:10:10Z</time>
      </trkpt>
      <trkpt lat="48.67886" lon="6.14172">
        <ele>248</ele>
        <time>2013-04-14T11:10:12Z</time>
      </trkpt>
      <trkpt lat="48.67881" lon="6.14169">
        <ele>245</ele>
        <time>2013-04-14T11:10:14Z</time>
      </trkpt>
      <trkpt lat="48.67878" lon="6.14171">
        <ele>246</ele>
        <time>2013-04-14T11:10:16Z</time>
      </trkpt>
      <trkpt lat="48.6788" lon="6.14179">
        <ele>244</ele>
        <time>2013-04-14T11:10:18Z</time>
      </trkpt>
      <trkpt lat="48.67884" lon="6.14186">
        <ele>242</ele>
        <time>2013-04-14T11:10:20Z</time>
      </trkpt>
      <trkpt lat="48.6789" lon="6.14193">
        <ele>242</ele>
        <time>2013-04-14T11:10:22Z</time>
      </trkpt>
      <trkpt lat="48.67897" lon="6.14201">
        <ele>244</ele>
        <time>2013-04-14T11:10:24Z</time>
      </trkpt>
      <trkpt lat="48.67901" lon="6.1421">
        <ele>245</ele>
        <time>2013-04-14T11:10:26Z</time>
      </trkpt>
      <trkpt lat="48.67906" lon="6.1422">
        <ele>244</ele>
        <time>2013-04-14T11:10:28Z</time>
      </trkpt>
      <trkpt lat="48.67911" lon="6.14231">
        <ele>243</ele>
        <time>2013-04-14T11:10:30Z</time>
      </trkpt>
      <trkpt lat="48.67917" lon="6.14244">
        <ele>242</ele>
        <time>2013-04-14T11:10:32Z</time>
      </trkpt>
      <trkpt lat="48.67925" lon="6.14258">
        <ele>242</ele>
        <time>2013-04-14T11:10:34Z</time>
      </trkpt>
      <trkpt lat="48.67933" lon="6.14272">
        <ele>240</ele>
        <time>2013-04-14T11:10:36Z</time>
      </trkpt>
      <trkpt lat="48.67944" lon="6.14289">
        <ele>241</ele>
        <time>2013-04-14T11:10:38Z</time>
      </trkpt>
      <trkpt lat="48.67955" lon="6.14309">
        <ele>240</ele>
        <time>2013-04-14T11:10:40Z</time>
      </trkpt>
      <trkpt lat="48.67967" lon="6.1433">
        <ele>238</ele>
        <time>2013-04-14T11:10:42Z</time>
      </trkpt>
      <trkpt lat="48.67979" lon="6.14353">
        <ele>237</ele>
        <time>2013-04-14T11:10:44Z</time>
      </trkpt>
      <trkpt lat="48.67991" lon="6.14377">
        <ele>235</ele>
        <time>2013-04-14T11:10:46Z</time>
      </trkpt>
      <trkpt lat="48.68003" lon="6.144">
        <ele>235</ele>
        <time>2013-04-14T11:10:48Z</time>
      </trkpt>
      <trkpt lat="48.68015" lon="6.14422">
        <ele>235</ele>
        <time>2013-04-14T11:10:50Z</time>
      </trkpt>
      <trkpt lat="48.68027" lon="6.14446">
        <ele>236</ele>
        <time>2013-04-14T11:10:52Z</time>
      </trkpt>
      <trkpt lat="48.68039" lon="6.1447">
        <ele>238</ele>
        <time>2013-04-14T11:10:54Z</time>
      </trkpt>
      <trkpt lat="48.6805" lon="6.14492">
        <ele>238</ele>
        <time>2013-04-14T11:10:56Z</time>
      </trkpt>
      <trkpt lat="48.68062" lon="6.14514">
        <ele>235</ele>
        <time>2013-04-14T11:10:58Z</time>
      </trkpt>
      <trkpt lat="48.68074" lon="6.14535">
        <ele>237</ele>
        <time>2013-04-14T11:11:00Z</time>
      </trkpt>
      <trkpt lat="48.68085" lon="6.14558">
        <ele>234</ele>
        <time>2013-04-14T11:11:02Z</time>
      </trkpt>
      <trkpt lat="48.68091" lon="6.1457">
        <ele>235</ele>
        <time>2013-04-14T11:11:03Z</time>
      </trkpt>
      <trkpt lat="48.68097" lon="6.14582">
        <ele>236</ele>
        <time>2013-04-14T11:11:04Z</time>
      </trkpt>
      <trkpt lat="48.68108" lon="6.14605">
        <ele>241</ele>
        <time>2013-04-14T11:11:06Z</time>
      </trkpt>
      <trkpt lat="48.6812" lon="6.14628">
        <ele>239</ele>
        <time>2013-04-14T11:11:08Z</time>
      </trkpt>
      <trkpt lat="48.68132" lon="6.14652">
        <ele>237</ele>
        <time>2013-04-14T11:11:10Z</time>
      </trkpt>
      <trkpt lat="48.68143" lon="6.14673">
        <ele>239</ele>
        <time>2013-04-14T11:11:12Z</time>
      </trkpt>
      <trkpt lat="48.68153" lon="6.14693">
        <ele>240</ele>
        <time>2013-04-14T11:11:14Z</time>
      </trkpt>
      <trkpt lat="48.68163" lon="6.14712">
        <ele>243</ele>
        <time>2013-04-14T11:11:16Z</time>
      </trkpt>
      <trkpt lat="48.68174" lon="6.14732">
        <ele>243</ele>
        <time>2013-04-14T11:11:18Z</time>
      </trkpt>
      <trkpt lat="48.68185" lon="6.14752">
        <ele>244</ele>
        <time>2013-04-14T11:11:20Z</time>
      </trkpt>
      <trkpt lat="48.68196" lon="6.14773">
        <ele>238</ele>
        <time>2013-04-14T11:11:22Z</time>
      </trkpt>
      <trkpt lat="48.68208" lon="6.14793">
        <ele>236</ele>
        <time>2013-04-14T11:11:24Z</time>
      </trkpt>
      <trkpt lat="48.6822" lon="6.14813">
        <ele>237</ele>
        <time>2013-04-14T11:11:26Z</time>
      </trkpt>
      <trkpt lat="48.68233" lon="6.14835">
        <ele>240</ele>
        <time>2013-04-14T11:11:28Z</time>
      </trkpt>
      <trkpt lat="48.68247" lon="6.14857">
        <ele>237</ele>
        <time>2013-04-14T11:11:30Z</time>
      </trkpt>
      <trkpt lat="48.68262" lon="6.14879">
        <ele>238</ele>
        <time>2013-04-14T11:11:32Z</time>
      </trkpt>
      <trkpt lat="48.68277" lon="6.14901">
        <ele>240</ele>
        <time>2013-04-14T11:11:34Z</time>
      </trkpt>
      <trkpt lat="48.68292" lon="6.14924">
        <ele>238</ele>
        <time>2013-04-14T11:11:36Z</time>
      </trkpt>
      <trkpt lat="48.68308" lon="6.14946">
        <ele>238</ele>
        <time>2013-04-14T11:11:38Z</time>
      </trkpt>
      <trkpt lat="48.68324" lon="6.14969">
        <ele>238</ele>
        <time>2013-04-14T11:11:40Z</time>
      </trkpt>
      <trkpt lat="48.68339" lon="6.14991">
        <ele>237</ele>
        <time>2013-04-14T11:11:42Z</time>
      </trkpt>
      <trkpt lat="48.68353" lon="6.15011">
        <ele>237</ele>
        <time>2013-04-14T11:11:44Z</time>
      </trkpt>
      <trkpt lat="48.68366" lon="6.15033">
        <ele>236</ele>
        <time>2013-04-14T11:11:46Z</time>
      </trkpt>
      <trkpt lat="48.68378" lon="6.15057">
        <ele>234</ele>
        <time>2013-04-14T11:11:48Z</time>
      </trkpt>
      <trkpt lat="48.68389" lon="6.1508">
        <ele>232</ele>
        <time>2013-04-14T11:11:50Z</time>
      </trkpt>
      <trkpt lat="48.684" lon="6.15105">
        <ele>228</ele>
        <time>2013-04-14T11:11:52Z</time>
      </trkpt>
      <trkpt lat="48.68409" lon="6.15133">
        <ele>227</ele>
        <time>2013-04-14T11:11:54Z</time>
      </trkpt>
      <trkpt lat="48.68416" lon="6.15162">
        <ele>225</ele>
        <time>2013-04-14T11:11:56Z</time>
      </trkpt>
      <trkpt lat="48.68423" lon="6.15191">
        <ele>224</ele>
        <time>2013-04-14T11:11:58Z</time>
      </trkpt>
      <trkpt lat="48.68429" lon="6.15219">
        <ele>226</ele>
        <time>2013-04-14T11:12:00Z</time>
      </trkpt>
      <trkpt lat="48.68435" lon="6.15248">
        <ele>226</ele>
        <time>2013-04-14T11:12:02Z</time>
      </trkpt>
      <trkpt lat="48.68441" lon="6.15277">
        <ele>230</ele>
        <time>2013-04-14T11:12:04Z</time>
      </trkpt>
      <trkpt lat="48.68447" lon="6.15302">
        <ele>228</ele>
        <time>2013-04-14T11:12:06Z</time>
      </trkpt>
      <trkpt lat="48.68451" lon="6.15324">
        <ele>227</ele>
        <time>2013-04-14T11:12:08Z</time>
      </trkpt>
      <trkpt lat="48.6845" lon="6.15341">
        <ele>224</ele>
        <time>2013-04-14T11:12:10Z</time>
      </trkpt>
      <trkpt lat="48.6845" lon="6.15357">
        <ele>225</ele>
        <time>2013-04-14T11:12:12Z</time>
      </trkpt>
      <trkpt lat="48.68451" lon="6.15375">
        <ele>226</ele>
        <time>2013-04-14T11:12:14Z</time>
      </trkpt>
      <trkpt lat="48.68456" lon="6.15393">
        <ele>226</ele>
        <time>2013-04-14T11:12:16Z</time>
      </trkpt>
      <trkpt lat="48.6846" lon="6.15412">
        <ele>223</ele>
        <time>2013-04-14T11:12:18Z</time>
      </trkpt>
      <trkpt lat="48.68465" lon="6.1543">
        <ele>226</ele>
        <time>2013-04-14T11:12:20Z</time>
      </trkpt>
      <trkpt lat="48.68467" lon="6.15449">
        <ele>232</ele>
        <time>2013-04-14T11:12:22Z</time>
      </trkpt>
      <trkpt lat="48.6847" lon="6.1547">
        <ele>236</ele>
        <time>2013-04-14T11:12:24Z</time>
      </trkpt>
      <trkpt lat="48.68472" lon="6.1549">
        <ele>237</ele>
        <time>2013-04-14T11:12:26Z</time>
      </trkpt>
      <trkpt lat="48.68472" lon="6.1551">
        <ele>236</ele>
        <time>2013-04-14T11:12:28Z</time>
      </trkpt>
      <trkpt lat="48.68473" lon="6.15529">
        <ele>236</ele>
        <time>2013-04-14T11:12:30Z</time>
      </trkpt>
      <trkpt lat="48.68473" lon="6.15549">
        <ele>237</ele>
        <time>2013-04-14T11:12:32Z</time>
      </trkpt>
      <trkpt lat="48.68473" lon="6.15568">
        <ele>241</ele>
        <time>2013-04-14T11:12:34Z</time>
      </trkpt>
      <trkpt lat="48.68474" lon="6.15592">
        <ele>237</ele>
        <time>2013-04-14T11:12:36Z</time>
      </trkpt>
      <trkpt lat="48.68471" lon="6.15616">
        <ele>232</ele>
        <time>2013-04-14T11:12:38Z</time>
      </trkpt>
      <trkpt lat="48.68467" lon="6.15638">
        <ele>228</ele>
        <time>2013-04-14T11:12:40Z</time>
      </trkpt>
      <trkpt lat="48.68464" lon="6.1566">
        <ele>230</ele>
        <time>2013-04-14T11:12:42Z</time>
      </trkpt>
      <trkpt lat="48.6846" lon="6.15684">
        <ele>227</ele>
        <time>2013-04-14T11:12:44Z</time>
      </trkpt>
      <trkpt lat="48.68457" lon="6.15705">
        <ele>224</ele>
        <time>2013-04-14T11:12:46Z</time>
      </trkpt>
      <trkpt lat="48.68453" lon="6.15727">
        <ele>222</ele>
        <time>2013-04-14T11:12:48Z</time>
      </trkpt>
      <trkpt lat="48.6845" lon="6.15752">
        <ele>219</ele>
        <time>2013-04-14T11:12:50Z</time>
      </trkpt>
      <trkpt lat="48.68448" lon="6.15777">
        <ele>220</ele>
        <time>2013-04-14T11:12:52Z</time>
      </trkpt>
      <trkpt lat="48.68449" lon="6.158">
        <ele>216</ele>
        <time>2013-04-14T11:12:54Z</time>
      </trkpt>
      <trkpt lat="48.68453" lon="6.15821">
        <ele>218</ele>
        <time>2013-04-14T11:12:56Z</time>
      </trkpt>
      <trkpt lat="48.68458" lon="6.1584">
        <ele>219</ele>
        <time>2013-04-14T11:12:58Z</time>
      </trkpt>
      <trkpt lat="48.68463" lon="6.15858">
        <ele>221</ele>
        <time>2013-04-14T11:13:00Z</time>
      </trkpt>
      <trkpt lat="48.68469" lon="6.15873">
        <ele>219</ele>
        <time>2013-04-14T11:13:02Z</time>
      </trkpt>
      <trkpt lat="48.68475" lon="6.15886">
        <ele>221</ele>
        <time>2013-04-14T11:13:04Z</time>
      </trkpt>
      <trkpt lat="48.6848" lon="6.15898">
        <ele>227</ele>
        <time>2013-04-14T11:13:06Z</time>
      </trkpt>
      <trkpt lat="48.68485" lon="6.15909">
        <ele>228</ele>
        <time>2013-04-14T11:13:08Z</time>
      </trkpt>
      <trkpt lat="48.68488" lon="6.15917">
        <ele>230</ele>
        <time>2013-04-14T11:13:10Z</time>
      </trkpt>
      <trkpt lat="48.6849" lon="6.15926">
        <ele>233</ele>
        <time>2013-04-14T11:13:12Z</time>
      </trkpt>
      <trkpt lat="48.68493" lon="6.15935">
        <ele>232</ele>
        <time>2013-04-14T11:13:14Z</time>
      </trkpt>
      <trkpt lat="48.68494" lon="6.15943">
        <ele>229</ele>
        <time>2013-04-14T11:13:16Z</time>
      </trkpt>
      <trkpt lat="48.68498" lon="6.15951">
        <ele>230</ele>
        <time>2013-04-14T11:13:18Z</time>
      </trkpt>
      <trkpt lat="48.68502" lon="6.1596">
        <ele>228</ele>
        <time>2013-04-14T11:13:20Z</time>
      </trkpt>
      <trkpt lat="48.68504" lon="6.15969">
        <ele>232</ele>
        <time>2013-04-14T11:13:22Z</time>
      </trkpt>
      <trkpt lat="48.68507" lon="6.15975">
        <ele>230</ele>
        <time>2013-04-14T11:13:24Z</time>
      </trkpt>
      <trkpt lat="48.68511" lon="6.15981">
        <ele>227</ele>
        <time>2013-04-14T11:13:26Z</time>
      </trkpt>
      <trkpt lat="48.68519" lon="6.15983">
        <ele>221</ele>
        <time>2013-04-14T11:13:28Z</time>
      </trkpt>
      <trkpt lat="48.68536" lon="6.15984">
        <ele>226</ele>
        <time>2013-04-14T11:13:36Z</time>
      </trkpt>
    </trkseg>
  </trk>
</gpx>